<?xml version="1.0" encoding="UTF-8" standalone="no" ?>
<gpx xmlns="http://www.topografix.com/GPX/1/1" xmlns:xsi="http://www.w3.org/2001/XMLSchema-instance" xsi:schemaLocation="http://www.topografix.com/GPX/1/1 http://www.topografix.com/GPX/1/1/gpx.xsd" version="1.1" creator="VisuGPX - https://www.visugpx.com">
  <metadata>
    <name>Chamechaude - 2022-02-23 (2x)</name>
  </metadata>
  <trk>
    <name><![CDATA[Chamechaude - 2022-02-23 (2x)]]></name>
    <trkseg>
      <trkpt lat="45.28245" lon="5.76578">
        <ele>1335.89</ele>
        <time>2022-02-23T08:23:07Z</time>
      </trkpt>
      <trkpt lat="45.28247" lon="5.76577">
        <ele>1335.89</ele>
        <time>2022-02-23T08:23:09Z</time>
      </trkpt>
      <trkpt lat="45.28247" lon="5.76577">
        <ele>1256.1</ele>
        <time>2022-02-23T08:23:14Z</time>
      </trkpt>
      <trkpt lat="45.28247" lon="5.76577">
        <ele>1256.1</ele>
        <time>2022-02-23T08:23:15Z</time>
      </trkpt>
      <trkpt lat="45.28246" lon="5.76577">
        <ele>1254.66</ele>
        <time>2022-02-23T08:23:18Z</time>
      </trkpt>
      <trkpt lat="45.28246" lon="5.76576">
        <ele>1257.06</ele>
        <time>2022-02-23T08:23:20Z</time>
      </trkpt>
      <trkpt lat="45.28247" lon="5.76575">
        <ele>1255.62</ele>
        <time>2022-02-23T08:23:22Z</time>
      </trkpt>
      <trkpt lat="45.28243" lon="5.76584">
        <ele>1255.62</ele>
        <time>2022-02-23T08:23:55Z</time>
      </trkpt>
      <trkpt lat="45.28242" lon="5.76582">
        <ele>1255.62</ele>
        <time>2022-02-23T08:24:34Z</time>
      </trkpt>
      <trkpt lat="45.28243" lon="5.76576">
        <ele>1255.14</ele>
        <time>2022-02-23T08:25:14Z</time>
      </trkpt>
      <trkpt lat="45.28245" lon="5.76585">
        <ele>1256.1</ele>
        <time>2022-02-23T08:25:36Z</time>
      </trkpt>
      <trkpt lat="45.28245" lon="5.76587">
        <ele>1255.62</ele>
        <time>2022-02-23T08:25:45Z</time>
      </trkpt>
      <trkpt lat="45.28248" lon="5.76613">
        <ele>1255.14</ele>
        <time>2022-02-23T08:26:02Z</time>
      </trkpt>
      <trkpt lat="45.28252" lon="5.7664">
        <ele>1256.1</ele>
        <time>2022-02-23T08:26:21Z</time>
      </trkpt>
      <trkpt lat="45.2826" lon="5.76661">
        <ele>1257.06</ele>
        <time>2022-02-23T08:26:39Z</time>
      </trkpt>
      <trkpt lat="45.28266" lon="5.76677">
        <ele>1258.02</ele>
        <time>2022-02-23T08:26:54Z</time>
      </trkpt>
      <trkpt lat="45.28277" lon="5.76692">
        <ele>1260.43</ele>
        <time>2022-02-23T08:27:13Z</time>
      </trkpt>
      <trkpt lat="45.28285" lon="5.76708">
        <ele>1262.83</ele>
        <time>2022-02-23T08:27:32Z</time>
      </trkpt>
      <trkpt lat="45.28296" lon="5.76722">
        <ele>1265.71</ele>
        <time>2022-02-23T08:27:53Z</time>
      </trkpt>
      <trkpt lat="45.28308" lon="5.76727">
        <ele>1268.6</ele>
        <time>2022-02-23T08:28:12Z</time>
      </trkpt>
      <trkpt lat="45.28316" lon="5.76741">
        <ele>1271.48</ele>
        <time>2022-02-23T08:28:33Z</time>
      </trkpt>
      <trkpt lat="45.2833" lon="5.76753">
        <ele>1274.36</ele>
        <time>2022-02-23T08:28:56Z</time>
      </trkpt>
      <trkpt lat="45.2834" lon="5.76763">
        <ele>1276.77</ele>
        <time>2022-02-23T08:29:15Z</time>
      </trkpt>
      <trkpt lat="45.28342" lon="5.76764">
        <ele>1278.21</ele>
        <time>2022-02-23T08:29:18Z</time>
      </trkpt>
      <trkpt lat="45.28349" lon="5.76774">
        <ele>1278.69</ele>
        <time>2022-02-23T08:29:33Z</time>
      </trkpt>
      <trkpt lat="45.2835" lon="5.76774">
        <ele>1280.13</ele>
        <time>2022-02-23T08:29:34Z</time>
      </trkpt>
      <trkpt lat="45.2836" lon="5.76784">
        <ele>1282.54</ele>
        <time>2022-02-23T08:29:54Z</time>
      </trkpt>
      <trkpt lat="45.28362" lon="5.76786">
        <ele>1282.06</ele>
        <time>2022-02-23T08:29:57Z</time>
      </trkpt>
      <trkpt lat="45.28363" lon="5.76786">
        <ele>1283.5</ele>
        <time>2022-02-23T08:29:58Z</time>
      </trkpt>
      <trkpt lat="45.28368" lon="5.76792">
        <ele>1283.02</ele>
        <time>2022-02-23T08:30:06Z</time>
      </trkpt>
      <trkpt lat="45.28368" lon="5.76793">
        <ele>1284.94</ele>
        <time>2022-02-23T08:30:07Z</time>
      </trkpt>
      <trkpt lat="45.28368" lon="5.76794">
        <ele>1283.5</ele>
        <time>2022-02-23T08:30:08Z</time>
      </trkpt>
      <trkpt lat="45.28369" lon="5.76797">
        <ele>1284.94</ele>
        <time>2022-02-23T08:30:10Z</time>
      </trkpt>
      <trkpt lat="45.28375" lon="5.76806">
        <ele>1286.38</ele>
        <time>2022-02-23T08:30:21Z</time>
      </trkpt>
      <trkpt lat="45.28377" lon="5.76807">
        <ele>1286.86</ele>
        <time>2022-02-23T08:30:24Z</time>
      </trkpt>
      <trkpt lat="45.28387" lon="5.76817">
        <ele>1289.75</ele>
        <time>2022-02-23T08:30:44Z</time>
      </trkpt>
      <trkpt lat="45.28391" lon="5.7682">
        <ele>1291.19</ele>
        <time>2022-02-23T08:30:52Z</time>
      </trkpt>
      <trkpt lat="45.28399" lon="5.76827">
        <ele>1294.07</ele>
        <time>2022-02-23T08:31:08Z</time>
      </trkpt>
      <trkpt lat="45.28405" lon="5.76832">
        <ele>1294.07</ele>
        <time>2022-02-23T08:31:20Z</time>
      </trkpt>
      <trkpt lat="45.28406" lon="5.76833">
        <ele>1295.99</ele>
        <time>2022-02-23T08:31:21Z</time>
      </trkpt>
      <trkpt lat="45.28416" lon="5.76841">
        <ele>1297.44</ele>
        <time>2022-02-23T08:31:40Z</time>
      </trkpt>
      <trkpt lat="45.28424" lon="5.7685">
        <ele>1299.84</ele>
        <time>2022-02-23T08:31:55Z</time>
      </trkpt>
      <trkpt lat="45.28425" lon="5.76851">
        <ele>1298.88</ele>
        <time>2022-02-23T08:31:56Z</time>
      </trkpt>
      <trkpt lat="45.28425" lon="5.76851">
        <ele>1300.32</ele>
        <time>2022-02-23T08:31:57Z</time>
      </trkpt>
      <trkpt lat="45.28435" lon="5.76864">
        <ele>1301.28</ele>
        <time>2022-02-23T08:32:16Z</time>
      </trkpt>
      <trkpt lat="45.28436" lon="5.76865">
        <ele>1302.72</ele>
        <time>2022-02-23T08:32:18Z</time>
      </trkpt>
      <trkpt lat="45.28439" lon="5.76867">
        <ele>1303.69</ele>
        <time>2022-02-23T08:32:23Z</time>
      </trkpt>
      <trkpt lat="45.28453" lon="5.76875">
        <ele>1305.61</ele>
        <time>2022-02-23T08:32:46Z</time>
      </trkpt>
      <trkpt lat="45.28468" lon="5.76878">
        <ele>1307.53</ele>
        <time>2022-02-23T08:33:05Z</time>
      </trkpt>
      <trkpt lat="45.28475" lon="5.76881">
        <ele>1307.53</ele>
        <time>2022-02-23T08:33:13Z</time>
      </trkpt>
      <trkpt lat="45.28489" lon="5.76889">
        <ele>1308.49</ele>
        <time>2022-02-23T08:33:33Z</time>
      </trkpt>
      <trkpt lat="45.28504" lon="5.76893">
        <ele>1310.9</ele>
        <time>2022-02-23T08:33:54Z</time>
      </trkpt>
      <trkpt lat="45.28514" lon="5.76894">
        <ele>1314.26</ele>
        <time>2022-02-23T08:34:11Z</time>
      </trkpt>
      <trkpt lat="45.28525" lon="5.76908">
        <ele>1316.18</ele>
        <time>2022-02-23T08:34:30Z</time>
      </trkpt>
      <trkpt lat="45.2854" lon="5.76906">
        <ele>1318.59</ele>
        <time>2022-02-23T08:34:54Z</time>
      </trkpt>
      <trkpt lat="45.28553" lon="5.76905">
        <ele>1321.95</ele>
        <time>2022-02-23T08:35:12Z</time>
      </trkpt>
      <trkpt lat="45.28565" lon="5.76916">
        <ele>1325.31</ele>
        <time>2022-02-23T08:35:32Z</time>
      </trkpt>
      <trkpt lat="45.28579" lon="5.76919">
        <ele>1327.24</ele>
        <time>2022-02-23T08:35:53Z</time>
      </trkpt>
      <trkpt lat="45.2859" lon="5.76922">
        <ele>1329.64</ele>
        <time>2022-02-23T08:36:12Z</time>
      </trkpt>
      <trkpt lat="45.286" lon="5.76925">
        <ele>1333.01</ele>
        <time>2022-02-23T08:36:29Z</time>
      </trkpt>
      <trkpt lat="45.2861" lon="5.76937">
        <ele>1335.89</ele>
        <time>2022-02-23T08:36:51Z</time>
      </trkpt>
      <trkpt lat="45.28626" lon="5.76956">
        <ele>1338.29</ele>
        <time>2022-02-23T08:37:12Z</time>
      </trkpt>
      <trkpt lat="45.28633" lon="5.76969">
        <ele>1341.66</ele>
        <time>2022-02-23T08:37:27Z</time>
      </trkpt>
      <trkpt lat="45.28638" lon="5.76985">
        <ele>1343.1</ele>
        <time>2022-02-23T08:37:45Z</time>
      </trkpt>
      <trkpt lat="45.28651" lon="5.77">
        <ele>1345.98</ele>
        <time>2022-02-23T08:38:07Z</time>
      </trkpt>
      <trkpt lat="45.28653" lon="5.77015">
        <ele>1348.87</ele>
        <time>2022-02-23T08:38:29Z</time>
      </trkpt>
      <trkpt lat="45.28658" lon="5.77036">
        <ele>1351.27</ele>
        <time>2022-02-23T08:38:49Z</time>
      </trkpt>
      <trkpt lat="45.28664" lon="5.77052">
        <ele>1354.63</ele>
        <time>2022-02-23T08:39:10Z</time>
      </trkpt>
      <trkpt lat="45.28665" lon="5.77065">
        <ele>1356.56</ele>
        <time>2022-02-23T08:39:22Z</time>
      </trkpt>
      <trkpt lat="45.28662" lon="5.7708">
        <ele>1358.96</ele>
        <time>2022-02-23T08:39:41Z</time>
      </trkpt>
      <trkpt lat="45.28667" lon="5.77097">
        <ele>1360.88</ele>
        <time>2022-02-23T08:40:00Z</time>
      </trkpt>
      <trkpt lat="45.28675" lon="5.7711">
        <ele>1364.25</ele>
        <time>2022-02-23T08:40:16Z</time>
      </trkpt>
      <trkpt lat="45.2868" lon="5.7712">
        <ele>1365.69</ele>
        <time>2022-02-23T08:40:27Z</time>
      </trkpt>
      <trkpt lat="45.28689" lon="5.77133">
        <ele>1368.57</ele>
        <time>2022-02-23T08:40:48Z</time>
      </trkpt>
      <trkpt lat="45.28688" lon="5.77144">
        <ele>1370.5</ele>
        <time>2022-02-23T08:41:02Z</time>
      </trkpt>
      <trkpt lat="45.28693" lon="5.77161">
        <ele>1371.94</ele>
        <time>2022-02-23T08:41:21Z</time>
      </trkpt>
      <trkpt lat="45.28693" lon="5.77176">
        <ele>1375.3</ele>
        <time>2022-02-23T08:41:39Z</time>
      </trkpt>
      <trkpt lat="45.28694" lon="5.77191">
        <ele>1378.19</ele>
        <time>2022-02-23T08:41:58Z</time>
      </trkpt>
      <trkpt lat="45.28693" lon="5.77205">
        <ele>1380.59</ele>
        <time>2022-02-23T08:42:16Z</time>
      </trkpt>
      <trkpt lat="45.28695" lon="5.77219">
        <ele>1383.47</ele>
        <time>2022-02-23T08:42:35Z</time>
      </trkpt>
      <trkpt lat="45.28692" lon="5.77235">
        <ele>1386.84</ele>
        <time>2022-02-23T08:42:55Z</time>
      </trkpt>
      <trkpt lat="45.28692" lon="5.7724">
        <ele>1386.84</ele>
        <time>2022-02-23T08:43:01Z</time>
      </trkpt>
      <trkpt lat="45.28692" lon="5.7725">
        <ele>1390.2</ele>
        <time>2022-02-23T08:43:19Z</time>
      </trkpt>
      <trkpt lat="45.2869" lon="5.77255">
        <ele>1390.68</ele>
        <time>2022-02-23T08:43:25Z</time>
      </trkpt>
      <trkpt lat="45.28685" lon="5.77267">
        <ele>1394.05</ele>
        <time>2022-02-23T08:43:43Z</time>
      </trkpt>
      <trkpt lat="45.28681" lon="5.77272">
        <ele>1394.05</ele>
        <time>2022-02-23T08:43:49Z</time>
      </trkpt>
      <trkpt lat="45.28678" lon="5.7728">
        <ele>1394.53</ele>
        <time>2022-02-23T08:44:10Z</time>
      </trkpt>
      <trkpt lat="45.28678" lon="5.77287">
        <ele>1397.89</ele>
        <time>2022-02-23T08:44:23Z</time>
      </trkpt>
      <trkpt lat="45.28672" lon="5.77295">
        <ele>1400.3</ele>
        <time>2022-02-23T08:44:41Z</time>
      </trkpt>
      <trkpt lat="45.2867" lon="5.77312">
        <ele>1401.26</ele>
        <time>2022-02-23T08:44:57Z</time>
      </trkpt>
      <trkpt lat="45.28668" lon="5.77319">
        <ele>1404.62</ele>
        <time>2022-02-23T08:45:13Z</time>
      </trkpt>
      <trkpt lat="45.28666" lon="5.77324">
        <ele>1406.07</ele>
        <time>2022-02-23T08:45:23Z</time>
      </trkpt>
      <trkpt lat="45.28663" lon="5.77332">
        <ele>1407.51</ele>
        <time>2022-02-23T08:45:33Z</time>
      </trkpt>
      <trkpt lat="45.28659" lon="5.77343">
        <ele>1409.43</ele>
        <time>2022-02-23T08:45:49Z</time>
      </trkpt>
      <trkpt lat="45.28662" lon="5.77354">
        <ele>1412.31</ele>
        <time>2022-02-23T08:46:04Z</time>
      </trkpt>
      <trkpt lat="45.28664" lon="5.77359">
        <ele>1412.79</ele>
        <time>2022-02-23T08:46:10Z</time>
      </trkpt>
      <trkpt lat="45.28657" lon="5.77364">
        <ele>1414.24</ele>
        <time>2022-02-23T08:46:29Z</time>
      </trkpt>
      <trkpt lat="45.28657" lon="5.77367">
        <ele>1416.16</ele>
        <time>2022-02-23T08:46:33Z</time>
      </trkpt>
      <trkpt lat="45.28656" lon="5.77379">
        <ele>1419.52</ele>
        <time>2022-02-23T08:46:54Z</time>
      </trkpt>
      <trkpt lat="45.28659" lon="5.77392">
        <ele>1421.93</ele>
        <time>2022-02-23T08:47:12Z</time>
      </trkpt>
      <trkpt lat="45.28651" lon="5.77397">
        <ele>1424.81</ele>
        <time>2022-02-23T08:47:29Z</time>
      </trkpt>
      <trkpt lat="45.28643" lon="5.77403">
        <ele>1426.73</ele>
        <time>2022-02-23T08:47:46Z</time>
      </trkpt>
      <trkpt lat="45.28636" lon="5.77404">
        <ele>1429.62</ele>
        <time>2022-02-23T08:48:07Z</time>
      </trkpt>
      <trkpt lat="45.28631" lon="5.77411">
        <ele>1432.02</ele>
        <time>2022-02-23T08:48:28Z</time>
      </trkpt>
      <trkpt lat="45.28629" lon="5.77419">
        <ele>1434.42</ele>
        <time>2022-02-23T08:48:47Z</time>
      </trkpt>
      <trkpt lat="45.28632" lon="5.7743">
        <ele>1436.83</ele>
        <time>2022-02-23T08:49:04Z</time>
      </trkpt>
      <trkpt lat="45.28633" lon="5.77442">
        <ele>1440.19</ele>
        <time>2022-02-23T08:49:21Z</time>
      </trkpt>
      <trkpt lat="45.28635" lon="5.77455">
        <ele>1442.6</ele>
        <time>2022-02-23T08:49:41Z</time>
      </trkpt>
      <trkpt lat="45.28641" lon="5.77464">
        <ele>1445</ele>
        <time>2022-02-23T08:49:58Z</time>
      </trkpt>
      <trkpt lat="45.28643" lon="5.77478">
        <ele>1447.4</ele>
        <time>2022-02-23T08:50:16Z</time>
      </trkpt>
      <trkpt lat="45.28642" lon="5.77488">
        <ele>1449.81</ele>
        <time>2022-02-23T08:50:34Z</time>
      </trkpt>
      <trkpt lat="45.28642" lon="5.775">
        <ele>1452.69</ele>
        <time>2022-02-23T08:50:54Z</time>
      </trkpt>
      <trkpt lat="45.28641" lon="5.77503">
        <ele>1454.13</ele>
        <time>2022-02-23T08:51:15Z</time>
      </trkpt>
      <trkpt lat="45.28634" lon="5.77504">
        <ele>1456.05</ele>
        <time>2022-02-23T08:51:30Z</time>
      </trkpt>
      <trkpt lat="45.28627" lon="5.77503">
        <ele>1457.02</ele>
        <time>2022-02-23T08:51:46Z</time>
      </trkpt>
      <trkpt lat="45.28625" lon="5.77503">
        <ele>1458.94</ele>
        <time>2022-02-23T08:51:49Z</time>
      </trkpt>
      <trkpt lat="45.2862" lon="5.77503">
        <ele>1460.38</ele>
        <time>2022-02-23T08:52:04Z</time>
      </trkpt>
      <trkpt lat="45.28612" lon="5.77505">
        <ele>1461.34</ele>
        <time>2022-02-23T08:52:20Z</time>
      </trkpt>
      <trkpt lat="45.28611" lon="5.77505">
        <ele>1462.78</ele>
        <time>2022-02-23T08:52:22Z</time>
      </trkpt>
      <trkpt lat="45.2861" lon="5.77511">
        <ele>1465.19</ele>
        <time>2022-02-23T08:52:36Z</time>
      </trkpt>
      <trkpt lat="45.28613" lon="5.77522">
        <ele>1467.11</ele>
        <time>2022-02-23T08:52:54Z</time>
      </trkpt>
      <trkpt lat="45.28617" lon="5.77535">
        <ele>1469.51</ele>
        <time>2022-02-23T08:53:14Z</time>
      </trkpt>
      <trkpt lat="45.28617" lon="5.7754">
        <ele>1471.44</ele>
        <time>2022-02-23T08:53:21Z</time>
      </trkpt>
      <trkpt lat="45.28619" lon="5.77551">
        <ele>1474.32</ele>
        <time>2022-02-23T08:53:39Z</time>
      </trkpt>
      <trkpt lat="45.28614" lon="5.77552">
        <ele>1474.8</ele>
        <time>2022-02-23T08:53:56Z</time>
      </trkpt>
      <trkpt lat="45.28608" lon="5.77553">
        <ele>1478.65</ele>
        <time>2022-02-23T08:54:11Z</time>
      </trkpt>
      <trkpt lat="45.28606" lon="5.7756">
        <ele>1480.57</ele>
        <time>2022-02-23T08:54:28Z</time>
      </trkpt>
      <trkpt lat="45.28603" lon="5.77566">
        <ele>1483.45</ele>
        <time>2022-02-23T08:54:47Z</time>
      </trkpt>
      <trkpt lat="45.28596" lon="5.77567">
        <ele>1485.85</ele>
        <time>2022-02-23T08:55:03Z</time>
      </trkpt>
      <trkpt lat="45.2859" lon="5.7757">
        <ele>1488.74</ele>
        <time>2022-02-23T08:55:21Z</time>
      </trkpt>
      <trkpt lat="45.2858" lon="5.77572">
        <ele>1491.14</ele>
        <time>2022-02-23T08:55:39Z</time>
      </trkpt>
      <trkpt lat="45.28583" lon="5.77584">
        <ele>1493.55</ele>
        <time>2022-02-23T08:55:58Z</time>
      </trkpt>
      <trkpt lat="45.28586" lon="5.77595">
        <ele>1496.91</ele>
        <time>2022-02-23T08:56:17Z</time>
      </trkpt>
      <trkpt lat="45.28589" lon="5.77607">
        <ele>1499.31</ele>
        <time>2022-02-23T08:56:36Z</time>
      </trkpt>
      <trkpt lat="45.28592" lon="5.77614">
        <ele>1502.2</ele>
        <time>2022-02-23T08:56:49Z</time>
      </trkpt>
      <trkpt lat="45.28591" lon="5.77614">
        <ele>1502.2</ele>
        <time>2022-02-23T08:56:50Z</time>
      </trkpt>
      <trkpt lat="45.28587" lon="5.7762">
        <ele>1505.56</ele>
        <time>2022-02-23T08:57:11Z</time>
      </trkpt>
      <trkpt lat="45.28586" lon="5.7762">
        <ele>1505.56</ele>
        <time>2022-02-23T08:57:12Z</time>
      </trkpt>
      <trkpt lat="45.28579" lon="5.77624">
        <ele>1509.41</ele>
        <time>2022-02-23T08:57:30Z</time>
      </trkpt>
      <trkpt lat="45.28571" lon="5.77629">
        <ele>1511.81</ele>
        <time>2022-02-23T08:57:47Z</time>
      </trkpt>
      <trkpt lat="45.28557" lon="5.7763">
        <ele>1514.21</ele>
        <time>2022-02-23T08:58:08Z</time>
      </trkpt>
      <trkpt lat="45.28548" lon="5.77634">
        <ele>1517.1</ele>
        <time>2022-02-23T08:58:23Z</time>
      </trkpt>
      <trkpt lat="45.28537" lon="5.77639">
        <ele>1519.5</ele>
        <time>2022-02-23T08:58:42Z</time>
      </trkpt>
      <trkpt lat="45.28527" lon="5.77644">
        <ele>1522.87</ele>
        <time>2022-02-23T08:59:01Z</time>
      </trkpt>
      <trkpt lat="45.28519" lon="5.77649">
        <ele>1524.79</ele>
        <time>2022-02-23T08:59:19Z</time>
      </trkpt>
      <trkpt lat="45.28521" lon="5.77658">
        <ele>1526.71</ele>
        <time>2022-02-23T08:59:35Z</time>
      </trkpt>
      <trkpt lat="45.28531" lon="5.77669">
        <ele>1530.08</ele>
        <time>2022-02-23T08:59:54Z</time>
      </trkpt>
      <trkpt lat="45.28543" lon="5.7768">
        <ele>1532.96</ele>
        <time>2022-02-23T09:00:15Z</time>
      </trkpt>
      <trkpt lat="45.28553" lon="5.7769">
        <ele>1536.32</ele>
        <time>2022-02-23T09:00:39Z</time>
      </trkpt>
      <trkpt lat="45.28553" lon="5.77696">
        <ele>1539.69</ele>
        <time>2022-02-23T09:00:59Z</time>
      </trkpt>
      <trkpt lat="45.28548" lon="5.77707">
        <ele>1541.13</ele>
        <time>2022-02-23T09:01:17Z</time>
      </trkpt>
      <trkpt lat="45.28555" lon="5.77716">
        <ele>1543.53</ele>
        <time>2022-02-23T09:01:37Z</time>
      </trkpt>
      <trkpt lat="45.28562" lon="5.77729">
        <ele>1546.9</ele>
        <time>2022-02-23T09:01:53Z</time>
      </trkpt>
      <trkpt lat="45.28567" lon="5.77741">
        <ele>1549.78</ele>
        <time>2022-02-23T09:02:13Z</time>
      </trkpt>
      <trkpt lat="45.28571" lon="5.77748">
        <ele>1553.15</ele>
        <time>2022-02-23T09:02:31Z</time>
      </trkpt>
      <trkpt lat="45.28576" lon="5.77751">
        <ele>1555.07</ele>
        <time>2022-02-23T09:02:45Z</time>
      </trkpt>
      <trkpt lat="45.28579" lon="5.77765">
        <ele>1557.95</ele>
        <time>2022-02-23T09:03:00Z</time>
      </trkpt>
      <trkpt lat="45.28582" lon="5.7777">
        <ele>1559.88</ele>
        <time>2022-02-23T09:03:17Z</time>
      </trkpt>
      <trkpt lat="45.28585" lon="5.77783">
        <ele>1563.24</ele>
        <time>2022-02-23T09:03:32Z</time>
      </trkpt>
      <trkpt lat="45.28589" lon="5.77798">
        <ele>1566.12</ele>
        <time>2022-02-23T09:03:53Z</time>
      </trkpt>
      <trkpt lat="45.28592" lon="5.7781">
        <ele>1568.05</ele>
        <time>2022-02-23T09:04:14Z</time>
      </trkpt>
      <trkpt lat="45.28593" lon="5.77813">
        <ele>1569.49</ele>
        <time>2022-02-23T09:04:18Z</time>
      </trkpt>
      <trkpt lat="45.28596" lon="5.77826">
        <ele>1572.85</ele>
        <time>2022-02-23T09:04:38Z</time>
      </trkpt>
      <trkpt lat="45.28597" lon="5.7784">
        <ele>1575.74</ele>
        <time>2022-02-23T09:04:56Z</time>
      </trkpt>
      <trkpt lat="45.28598" lon="5.77848">
        <ele>1578.14</ele>
        <time>2022-02-23T09:05:15Z</time>
      </trkpt>
      <trkpt lat="45.28609" lon="5.77853">
        <ele>1581.03</ele>
        <time>2022-02-23T09:05:35Z</time>
      </trkpt>
      <trkpt lat="45.28617" lon="5.77864">
        <ele>1584.39</ele>
        <time>2022-02-23T09:05:53Z</time>
      </trkpt>
      <trkpt lat="45.28618" lon="5.77864">
        <ele>1584.39</ele>
        <time>2022-02-23T09:05:54Z</time>
      </trkpt>
      <trkpt lat="45.28619" lon="5.77872">
        <ele>1586.79</ele>
        <time>2022-02-23T09:06:12Z</time>
      </trkpt>
      <trkpt lat="45.28618" lon="5.77873">
        <ele>1587.75</ele>
        <time>2022-02-23T09:06:14Z</time>
      </trkpt>
      <trkpt lat="45.28618" lon="5.77881">
        <ele>1590.16</ele>
        <time>2022-02-23T09:06:34Z</time>
      </trkpt>
      <trkpt lat="45.28628" lon="5.77891">
        <ele>1593.52</ele>
        <time>2022-02-23T09:06:53Z</time>
      </trkpt>
      <trkpt lat="45.28634" lon="5.77894">
        <ele>1596.41</ele>
        <time>2022-02-23T09:07:12Z</time>
      </trkpt>
      <trkpt lat="45.2864" lon="5.77899">
        <ele>1599.77</ele>
        <time>2022-02-23T09:07:30Z</time>
      </trkpt>
      <trkpt lat="45.28642" lon="5.77901">
        <ele>1601.69</ele>
        <time>2022-02-23T09:07:47Z</time>
      </trkpt>
      <trkpt lat="45.28638" lon="5.77906">
        <ele>1604.58</ele>
        <time>2022-02-23T09:08:05Z</time>
      </trkpt>
      <trkpt lat="45.28634" lon="5.7791">
        <ele>1606.02</ele>
        <time>2022-02-23T09:08:18Z</time>
      </trkpt>
      <trkpt lat="45.28631" lon="5.77918">
        <ele>1609.38</ele>
        <time>2022-02-23T09:08:35Z</time>
      </trkpt>
      <trkpt lat="45.28628" lon="5.77926">
        <ele>1611.79</ele>
        <time>2022-02-23T09:08:53Z</time>
      </trkpt>
      <trkpt lat="45.2862" lon="5.77934">
        <ele>1615.15</ele>
        <time>2022-02-23T09:09:12Z</time>
      </trkpt>
      <trkpt lat="45.28616" lon="5.77943">
        <ele>1618.52</ele>
        <time>2022-02-23T09:09:31Z</time>
      </trkpt>
      <trkpt lat="45.2861" lon="5.7795">
        <ele>1621.88</ele>
        <time>2022-02-23T09:09:48Z</time>
      </trkpt>
      <trkpt lat="45.28604" lon="5.77954">
        <ele>1624.77</ele>
        <time>2022-02-23T09:10:05Z</time>
      </trkpt>
      <trkpt lat="45.28598" lon="5.7796">
        <ele>1628.13</ele>
        <time>2022-02-23T09:10:24Z</time>
      </trkpt>
      <trkpt lat="45.28588" lon="5.7796">
        <ele>1631.01</ele>
        <time>2022-02-23T09:10:44Z</time>
      </trkpt>
      <trkpt lat="45.28589" lon="5.77967">
        <ele>1633.42</ele>
        <time>2022-02-23T09:11:04Z</time>
      </trkpt>
      <trkpt lat="45.2859" lon="5.77972">
        <ele>1636.3</ele>
        <time>2022-02-23T09:11:16Z</time>
      </trkpt>
      <trkpt lat="45.28591" lon="5.77982">
        <ele>1638.7</ele>
        <time>2022-02-23T09:11:35Z</time>
      </trkpt>
      <trkpt lat="45.28593" lon="5.77991">
        <ele>1642.07</ele>
        <time>2022-02-23T09:11:50Z</time>
      </trkpt>
      <trkpt lat="45.28596" lon="5.78002">
        <ele>1644.95</ele>
        <time>2022-02-23T09:12:09Z</time>
      </trkpt>
      <trkpt lat="45.286" lon="5.78007">
        <ele>1645.91</ele>
        <time>2022-02-23T09:12:26Z</time>
      </trkpt>
      <trkpt lat="45.28609" lon="5.78015">
        <ele>1648.8</ele>
        <time>2022-02-23T09:12:46Z</time>
      </trkpt>
      <trkpt lat="45.28618" lon="5.7802">
        <ele>1651.68</ele>
        <time>2022-02-23T09:13:02Z</time>
      </trkpt>
      <trkpt lat="45.28629" lon="5.78025">
        <ele>1654.09</ele>
        <time>2022-02-23T09:13:23Z</time>
      </trkpt>
      <trkpt lat="45.28644" lon="5.78029">
        <ele>1656.97</ele>
        <time>2022-02-23T09:13:46Z</time>
      </trkpt>
      <trkpt lat="45.28654" lon="5.78033">
        <ele>1660.33</ele>
        <time>2022-02-23T09:14:07Z</time>
      </trkpt>
      <trkpt lat="45.28666" lon="5.78033">
        <ele>1662.74</ele>
        <time>2022-02-23T09:14:24Z</time>
      </trkpt>
      <trkpt lat="45.28676" lon="5.78033">
        <ele>1664.18</ele>
        <time>2022-02-23T09:14:40Z</time>
      </trkpt>
      <trkpt lat="45.28685" lon="5.78028">
        <ele>1666.58</ele>
        <time>2022-02-23T09:14:57Z</time>
      </trkpt>
      <trkpt lat="45.28694" lon="5.78029">
        <ele>1668.99</ele>
        <time>2022-02-23T09:15:16Z</time>
      </trkpt>
      <trkpt lat="45.28703" lon="5.78034">
        <ele>1671.87</ele>
        <time>2022-02-23T09:15:37Z</time>
      </trkpt>
      <trkpt lat="45.28711" lon="5.7804">
        <ele>1675.23</ele>
        <time>2022-02-23T09:15:56Z</time>
      </trkpt>
      <trkpt lat="45.28719" lon="5.78045">
        <ele>1677.16</ele>
        <time>2022-02-23T09:16:14Z</time>
      </trkpt>
      <trkpt lat="45.28724" lon="5.78051">
        <ele>1680.04</ele>
        <time>2022-02-23T09:16:28Z</time>
      </trkpt>
      <trkpt lat="45.28731" lon="5.78058">
        <ele>1682.93</ele>
        <time>2022-02-23T09:16:47Z</time>
      </trkpt>
      <trkpt lat="45.28737" lon="5.78066">
        <ele>1685.81</ele>
        <time>2022-02-23T09:17:08Z</time>
      </trkpt>
      <trkpt lat="45.28729" lon="5.78071">
        <ele>1688.21</ele>
        <time>2022-02-23T09:17:26Z</time>
      </trkpt>
      <trkpt lat="45.28719" lon="5.78077">
        <ele>1691.1</ele>
        <time>2022-02-23T09:17:46Z</time>
      </trkpt>
      <trkpt lat="45.28707" lon="5.78083">
        <ele>1693.5</ele>
        <time>2022-02-23T09:18:07Z</time>
      </trkpt>
      <trkpt lat="45.28699" lon="5.78089">
        <ele>1695.9</ele>
        <time>2022-02-23T09:18:24Z</time>
      </trkpt>
      <trkpt lat="45.28697" lon="5.78096">
        <ele>1697.34</ele>
        <time>2022-02-23T09:18:43Z</time>
      </trkpt>
      <trkpt lat="45.28692" lon="5.78104">
        <ele>1700.71</ele>
        <time>2022-02-23T09:18:58Z</time>
      </trkpt>
      <trkpt lat="45.28686" lon="5.78114">
        <ele>1703.59</ele>
        <time>2022-02-23T09:19:17Z</time>
      </trkpt>
      <trkpt lat="45.28678" lon="5.78127">
        <ele>1706.96</ele>
        <time>2022-02-23T09:19:38Z</time>
      </trkpt>
      <trkpt lat="45.28672" lon="5.78136">
        <ele>1709.36</ele>
        <time>2022-02-23T09:19:56Z</time>
      </trkpt>
      <trkpt lat="45.28665" lon="5.78143">
        <ele>1712.25</ele>
        <time>2022-02-23T09:20:13Z</time>
      </trkpt>
      <trkpt lat="45.28658" lon="5.78149">
        <ele>1714.65</ele>
        <time>2022-02-23T09:20:31Z</time>
      </trkpt>
      <trkpt lat="45.28651" lon="5.78153">
        <ele>1717.05</ele>
        <time>2022-02-23T09:20:47Z</time>
      </trkpt>
      <trkpt lat="45.28642" lon="5.78158">
        <ele>1719.94</ele>
        <time>2022-02-23T09:21:07Z</time>
      </trkpt>
      <trkpt lat="45.28635" lon="5.78161">
        <ele>1722.82</ele>
        <time>2022-02-23T09:21:27Z</time>
      </trkpt>
      <trkpt lat="45.28637" lon="5.78165">
        <ele>1723.78</ele>
        <time>2022-02-23T09:21:46Z</time>
      </trkpt>
      <trkpt lat="45.2864" lon="5.78176">
        <ele>1727.63</ele>
        <time>2022-02-23T09:22:06Z</time>
      </trkpt>
      <trkpt lat="45.28654" lon="5.78183">
        <ele>1730.03</ele>
        <time>2022-02-23T09:22:27Z</time>
      </trkpt>
      <trkpt lat="45.28666" lon="5.78191">
        <ele>1732.43</ele>
        <time>2022-02-23T09:22:48Z</time>
      </trkpt>
      <trkpt lat="45.28677" lon="5.78195">
        <ele>1735.8</ele>
        <time>2022-02-23T09:23:07Z</time>
      </trkpt>
      <trkpt lat="45.28677" lon="5.78196">
        <ele>1735.8</ele>
        <time>2022-02-23T09:23:08Z</time>
      </trkpt>
      <trkpt lat="45.28675" lon="5.78199">
        <ele>1737.72</ele>
        <time>2022-02-23T09:23:25Z</time>
      </trkpt>
      <trkpt lat="45.28663" lon="5.78205">
        <ele>1740.12</ele>
        <time>2022-02-23T09:23:47Z</time>
      </trkpt>
      <trkpt lat="45.28654" lon="5.78208">
        <ele>1742.53</ele>
        <time>2022-02-23T09:24:05Z</time>
      </trkpt>
      <trkpt lat="45.28647" lon="5.78212">
        <ele>1744.93</ele>
        <time>2022-02-23T09:24:23Z</time>
      </trkpt>
      <trkpt lat="45.28647" lon="5.78215">
        <ele>1747.33</ele>
        <time>2022-02-23T09:24:40Z</time>
      </trkpt>
      <trkpt lat="45.28647" lon="5.78217">
        <ele>1748.78</ele>
        <time>2022-02-23T09:24:58Z</time>
      </trkpt>
      <trkpt lat="45.28638" lon="5.78213">
        <ele>1751.66</ele>
        <time>2022-02-23T09:25:16Z</time>
      </trkpt>
      <trkpt lat="45.28631" lon="5.78211">
        <ele>1755.02</ele>
        <time>2022-02-23T09:25:35Z</time>
      </trkpt>
      <trkpt lat="45.2862" lon="5.78195">
        <ele>1756.47</ele>
        <time>2022-02-23T09:25:54Z</time>
      </trkpt>
      <trkpt lat="45.28611" lon="5.78199">
        <ele>1758.87</ele>
        <time>2022-02-23T09:26:11Z</time>
      </trkpt>
      <trkpt lat="45.28602" lon="5.78202">
        <ele>1762.23</ele>
        <time>2022-02-23T09:26:30Z</time>
      </trkpt>
      <trkpt lat="45.28593" lon="5.78202">
        <ele>1764.64</ele>
        <time>2022-02-23T09:26:49Z</time>
      </trkpt>
      <trkpt lat="45.28584" lon="5.78203">
        <ele>1768.48</ele>
        <time>2022-02-23T09:27:06Z</time>
      </trkpt>
      <trkpt lat="45.28577" lon="5.78206">
        <ele>1771.37</ele>
        <time>2022-02-23T09:27:22Z</time>
      </trkpt>
      <trkpt lat="45.2857" lon="5.7821">
        <ele>1774.73</ele>
        <time>2022-02-23T09:27:41Z</time>
      </trkpt>
      <trkpt lat="45.2856" lon="5.7821">
        <ele>1777.61</ele>
        <time>2022-02-23T09:27:59Z</time>
      </trkpt>
      <trkpt lat="45.28552" lon="5.78215">
        <ele>1780.98</ele>
        <time>2022-02-23T09:28:17Z</time>
      </trkpt>
      <trkpt lat="45.2854" lon="5.78216">
        <ele>1783.38</ele>
        <time>2022-02-23T09:28:38Z</time>
      </trkpt>
      <trkpt lat="45.28527" lon="5.78215">
        <ele>1786.75</ele>
        <time>2022-02-23T09:28:59Z</time>
      </trkpt>
      <trkpt lat="45.28514" lon="5.78211">
        <ele>1788.67</ele>
        <time>2022-02-23T09:29:23Z</time>
      </trkpt>
      <trkpt lat="45.28502" lon="5.78209">
        <ele>1792.03</ele>
        <time>2022-02-23T09:29:42Z</time>
      </trkpt>
      <trkpt lat="45.28494" lon="5.78206">
        <ele>1795.4</ele>
        <time>2022-02-23T09:30:01Z</time>
      </trkpt>
      <trkpt lat="45.28483" lon="5.78205">
        <ele>1798.28</ele>
        <time>2022-02-23T09:30:21Z</time>
      </trkpt>
      <trkpt lat="45.28477" lon="5.78202">
        <ele>1801.65</ele>
        <time>2022-02-23T09:30:39Z</time>
      </trkpt>
      <trkpt lat="45.28473" lon="5.78201">
        <ele>1803.09</ele>
        <time>2022-02-23T09:30:47Z</time>
      </trkpt>
      <trkpt lat="45.2846" lon="5.78199">
        <ele>1805.97</ele>
        <time>2022-02-23T09:31:05Z</time>
      </trkpt>
      <trkpt lat="45.28448" lon="5.78201">
        <ele>1808.86</ele>
        <time>2022-02-23T09:31:26Z</time>
      </trkpt>
      <trkpt lat="45.28444" lon="5.78202">
        <ele>1810.3</ele>
        <time>2022-02-23T09:31:34Z</time>
      </trkpt>
      <trkpt lat="45.28433" lon="5.78205">
        <ele>1812.7</ele>
        <time>2022-02-23T09:31:54Z</time>
      </trkpt>
      <trkpt lat="45.28423" lon="5.78206">
        <ele>1815.11</ele>
        <time>2022-02-23T09:32:11Z</time>
      </trkpt>
      <trkpt lat="45.28417" lon="5.78215">
        <ele>1817.99</ele>
        <time>2022-02-23T09:32:31Z</time>
      </trkpt>
      <trkpt lat="45.28423" lon="5.78225">
        <ele>1821.35</ele>
        <time>2022-02-23T09:32:47Z</time>
      </trkpt>
      <trkpt lat="45.28428" lon="5.78238">
        <ele>1823.76</ele>
        <time>2022-02-23T09:33:07Z</time>
      </trkpt>
      <trkpt lat="45.28434" lon="5.78246">
        <ele>1827.12</ele>
        <time>2022-02-23T09:33:27Z</time>
      </trkpt>
      <trkpt lat="45.28433" lon="5.78245">
        <ele>1827.12</ele>
        <time>2022-02-23T09:34:07Z</time>
      </trkpt>
      <trkpt lat="45.28431" lon="5.78245">
        <ele>1825.2</ele>
        <time>2022-02-23T09:34:16Z</time>
      </trkpt>
      <trkpt lat="45.28431" lon="5.78245">
        <ele>1826.64</ele>
        <time>2022-02-23T09:34:18Z</time>
      </trkpt>
      <trkpt lat="45.28432" lon="5.78245">
        <ele>1825.2</ele>
        <time>2022-02-23T09:34:34Z</time>
      </trkpt>
      <trkpt lat="45.28433" lon="5.78243">
        <ele>1825.2</ele>
        <time>2022-02-23T09:34:57Z</time>
      </trkpt>
      <trkpt lat="45.28433" lon="5.78243">
        <ele>1827.12</ele>
        <time>2022-02-23T09:35:01Z</time>
      </trkpt>
      <trkpt lat="45.28433" lon="5.78243">
        <ele>1825.68</ele>
        <time>2022-02-23T09:35:06Z</time>
      </trkpt>
      <trkpt lat="45.28432" lon="5.78244">
        <ele>1827.6</ele>
        <time>2022-02-23T09:35:13Z</time>
      </trkpt>
      <trkpt lat="45.28423" lon="5.78252">
        <ele>1830.97</ele>
        <time>2022-02-23T09:35:32Z</time>
      </trkpt>
      <trkpt lat="45.2842" lon="5.78261">
        <ele>1833.37</ele>
        <time>2022-02-23T09:35:49Z</time>
      </trkpt>
      <trkpt lat="45.28421" lon="5.78273">
        <ele>1836.26</ele>
        <time>2022-02-23T09:36:08Z</time>
      </trkpt>
      <trkpt lat="45.28423" lon="5.78284">
        <ele>1839.62</ele>
        <time>2022-02-23T09:36:27Z</time>
      </trkpt>
      <trkpt lat="45.28423" lon="5.78285">
        <ele>1839.62</ele>
        <time>2022-02-23T09:36:28Z</time>
      </trkpt>
      <trkpt lat="45.28424" lon="5.78296">
        <ele>1842.02</ele>
        <time>2022-02-23T09:36:49Z</time>
      </trkpt>
      <trkpt lat="45.28418" lon="5.78303">
        <ele>1844.91</ele>
        <time>2022-02-23T09:37:08Z</time>
      </trkpt>
      <trkpt lat="45.28411" lon="5.78312">
        <ele>1846.83</ele>
        <time>2022-02-23T09:37:26Z</time>
      </trkpt>
      <trkpt lat="45.28412" lon="5.78319">
        <ele>1848.75</ele>
        <time>2022-02-23T09:37:42Z</time>
      </trkpt>
      <trkpt lat="45.28416" lon="5.78329">
        <ele>1852.6</ele>
        <time>2022-02-23T09:38:00Z</time>
      </trkpt>
      <trkpt lat="45.28417" lon="5.78332">
        <ele>1852.6</ele>
        <time>2022-02-23T09:38:06Z</time>
      </trkpt>
      <trkpt lat="45.28422" lon="5.78342">
        <ele>1854.52</ele>
        <time>2022-02-23T09:38:23Z</time>
      </trkpt>
      <trkpt lat="45.28426" lon="5.7835">
        <ele>1857.4</ele>
        <time>2022-02-23T09:38:37Z</time>
      </trkpt>
      <trkpt lat="45.2843" lon="5.7836">
        <ele>1857.89</ele>
        <time>2022-02-23T09:38:54Z</time>
      </trkpt>
      <trkpt lat="45.2843" lon="5.78365">
        <ele>1861.25</ele>
        <time>2022-02-23T09:39:06Z</time>
      </trkpt>
      <trkpt lat="45.28422" lon="5.78371">
        <ele>1862.21</ele>
        <time>2022-02-23T09:39:22Z</time>
      </trkpt>
      <trkpt lat="45.28413" lon="5.78376">
        <ele>1865.09</ele>
        <time>2022-02-23T09:39:40Z</time>
      </trkpt>
      <trkpt lat="45.28403" lon="5.78381">
        <ele>1867.02</ele>
        <time>2022-02-23T09:39:59Z</time>
      </trkpt>
      <trkpt lat="45.28395" lon="5.78385">
        <ele>1870.38</ele>
        <time>2022-02-23T09:40:17Z</time>
      </trkpt>
      <trkpt lat="45.28385" lon="5.7839">
        <ele>1873.75</ele>
        <time>2022-02-23T09:40:38Z</time>
      </trkpt>
      <trkpt lat="45.28375" lon="5.78391">
        <ele>1876.15</ele>
        <time>2022-02-23T09:40:59Z</time>
      </trkpt>
      <trkpt lat="45.28365" lon="5.78392">
        <ele>1878.55</ele>
        <time>2022-02-23T09:41:18Z</time>
      </trkpt>
      <trkpt lat="45.28363" lon="5.78395">
        <ele>1878.55</ele>
        <time>2022-02-23T09:41:33Z</time>
      </trkpt>
      <trkpt lat="45.28362" lon="5.78396">
        <ele>1880</ele>
        <time>2022-02-23T09:41:35Z</time>
      </trkpt>
      <trkpt lat="45.28364" lon="5.78396">
        <ele>1878.55</ele>
        <time>2022-02-23T09:42:05Z</time>
      </trkpt>
      <trkpt lat="45.28365" lon="5.784">
        <ele>1880</ele>
        <time>2022-02-23T09:42:10Z</time>
      </trkpt>
      <trkpt lat="45.28367" lon="5.78403">
        <ele>1882.88</ele>
        <time>2022-02-23T09:42:15Z</time>
      </trkpt>
      <trkpt lat="45.28367" lon="5.78405">
        <ele>1880.96</ele>
        <time>2022-02-23T09:42:18Z</time>
      </trkpt>
      <trkpt lat="45.28368" lon="5.78407">
        <ele>1882.4</ele>
        <time>2022-02-23T09:42:22Z</time>
      </trkpt>
      <trkpt lat="45.2837" lon="5.78414">
        <ele>1884.32</ele>
        <time>2022-02-23T09:42:36Z</time>
      </trkpt>
      <trkpt lat="45.28373" lon="5.78425">
        <ele>1887.69</ele>
        <time>2022-02-23T09:42:54Z</time>
      </trkpt>
      <trkpt lat="45.28376" lon="5.78435">
        <ele>1888.17</ele>
        <time>2022-02-23T09:43:12Z</time>
      </trkpt>
      <trkpt lat="45.28376" lon="5.78434">
        <ele>1889.61</ele>
        <time>2022-02-23T09:43:15Z</time>
      </trkpt>
      <trkpt lat="45.28376" lon="5.78435">
        <ele>1888.17</ele>
        <time>2022-02-23T09:43:17Z</time>
      </trkpt>
      <trkpt lat="45.28378" lon="5.78442">
        <ele>1891.53</ele>
        <time>2022-02-23T09:43:30Z</time>
      </trkpt>
      <trkpt lat="45.28379" lon="5.78442">
        <ele>1891.53</ele>
        <time>2022-02-23T09:43:31Z</time>
      </trkpt>
      <trkpt lat="45.28382" lon="5.78452">
        <ele>1894.42</ele>
        <time>2022-02-23T09:43:51Z</time>
      </trkpt>
      <trkpt lat="45.28383" lon="5.78455">
        <ele>1894.9</ele>
        <time>2022-02-23T09:43:57Z</time>
      </trkpt>
      <trkpt lat="45.28386" lon="5.78462">
        <ele>1896.34</ele>
        <time>2022-02-23T09:44:10Z</time>
      </trkpt>
      <trkpt lat="45.28388" lon="5.7847">
        <ele>1898.74</ele>
        <time>2022-02-23T09:44:26Z</time>
      </trkpt>
      <trkpt lat="45.28392" lon="5.78479">
        <ele>1901.63</ele>
        <time>2022-02-23T09:44:46Z</time>
      </trkpt>
      <trkpt lat="45.28394" lon="5.78483">
        <ele>1902.11</ele>
        <time>2022-02-23T09:44:55Z</time>
      </trkpt>
      <trkpt lat="45.28398" lon="5.78489">
        <ele>1904.99</ele>
        <time>2022-02-23T09:45:09Z</time>
      </trkpt>
      <trkpt lat="45.28398" lon="5.78489">
        <ele>1904.99</ele>
        <time>2022-02-23T09:45:10Z</time>
      </trkpt>
      <trkpt lat="45.2839" lon="5.78493">
        <ele>1908.35</ele>
        <time>2022-02-23T09:45:30Z</time>
      </trkpt>
      <trkpt lat="45.28385" lon="5.78496">
        <ele>1908.83</ele>
        <time>2022-02-23T09:45:44Z</time>
      </trkpt>
      <trkpt lat="45.28385" lon="5.78496">
        <ele>1910.28</ele>
        <time>2022-02-23T09:45:46Z</time>
      </trkpt>
      <trkpt lat="45.28378" lon="5.78499">
        <ele>1912.68</ele>
        <time>2022-02-23T09:46:05Z</time>
      </trkpt>
      <trkpt lat="45.28371" lon="5.78504">
        <ele>1914.6</ele>
        <time>2022-02-23T09:46:24Z</time>
      </trkpt>
      <trkpt lat="45.28372" lon="5.78508">
        <ele>1913.64</ele>
        <time>2022-02-23T09:46:33Z</time>
      </trkpt>
      <trkpt lat="45.28373" lon="5.78509">
        <ele>1915.08</ele>
        <time>2022-02-23T09:46:36Z</time>
      </trkpt>
      <trkpt lat="45.28375" lon="5.78513">
        <ele>1915.56</ele>
        <time>2022-02-23T09:46:44Z</time>
      </trkpt>
      <trkpt lat="45.28376" lon="5.78518">
        <ele>1918.93</ele>
        <time>2022-02-23T09:46:55Z</time>
      </trkpt>
      <trkpt lat="45.28378" lon="5.78523">
        <ele>1919.89</ele>
        <time>2022-02-23T09:47:04Z</time>
      </trkpt>
      <trkpt lat="45.28382" lon="5.78529">
        <ele>1921.33</ele>
        <time>2022-02-23T09:47:23Z</time>
      </trkpt>
      <trkpt lat="45.28386" lon="5.7854">
        <ele>1923.74</ele>
        <time>2022-02-23T09:47:44Z</time>
      </trkpt>
      <trkpt lat="45.28389" lon="5.78547">
        <ele>1925.18</ele>
        <time>2022-02-23T09:47:59Z</time>
      </trkpt>
      <trkpt lat="45.28392" lon="5.78551">
        <ele>1927.58</ele>
        <time>2022-02-23T09:48:09Z</time>
      </trkpt>
      <trkpt lat="45.28399" lon="5.78561">
        <ele>1928.54</ele>
        <time>2022-02-23T09:48:31Z</time>
      </trkpt>
      <trkpt lat="45.284" lon="5.78562">
        <ele>1929.98</ele>
        <time>2022-02-23T09:48:34Z</time>
      </trkpt>
      <trkpt lat="45.28405" lon="5.78569">
        <ele>1931.91</ele>
        <time>2022-02-23T09:48:52Z</time>
      </trkpt>
      <trkpt lat="45.28412" lon="5.78575">
        <ele>1933.83</ele>
        <time>2022-02-23T09:49:10Z</time>
      </trkpt>
      <trkpt lat="45.28419" lon="5.7858">
        <ele>1936.71</ele>
        <time>2022-02-23T09:49:27Z</time>
      </trkpt>
      <trkpt lat="45.28423" lon="5.78583">
        <ele>1937.67</ele>
        <time>2022-02-23T09:49:36Z</time>
      </trkpt>
      <trkpt lat="45.28424" lon="5.78585">
        <ele>1937.67</ele>
        <time>2022-02-23T09:49:41Z</time>
      </trkpt>
      <trkpt lat="45.28429" lon="5.7859">
        <ele>1941.52</ele>
        <time>2022-02-23T09:49:55Z</time>
      </trkpt>
      <trkpt lat="45.28426" lon="5.78591">
        <ele>1942</ele>
        <time>2022-02-23T09:50:05Z</time>
      </trkpt>
      <trkpt lat="45.28417" lon="5.78595">
        <ele>1943.44</ele>
        <time>2022-02-23T09:50:24Z</time>
      </trkpt>
      <trkpt lat="45.2841" lon="5.786">
        <ele>1945.85</ele>
        <time>2022-02-23T09:50:44Z</time>
      </trkpt>
      <trkpt lat="45.28401" lon="5.78604">
        <ele>1949.69</ele>
        <time>2022-02-23T09:51:03Z</time>
      </trkpt>
      <trkpt lat="45.28401" lon="5.78605">
        <ele>1949.69</ele>
        <time>2022-02-23T09:51:04Z</time>
      </trkpt>
      <trkpt lat="45.28401" lon="5.78606">
        <ele>1948.25</ele>
        <time>2022-02-23T09:51:08Z</time>
      </trkpt>
      <trkpt lat="45.28402" lon="5.78605">
        <ele>1950.17</ele>
        <time>2022-02-23T09:51:12Z</time>
      </trkpt>
      <trkpt lat="45.28402" lon="5.78606">
        <ele>1948.73</ele>
        <time>2022-02-23T09:51:14Z</time>
      </trkpt>
      <trkpt lat="45.28404" lon="5.78611">
        <ele>1948.73</ele>
        <time>2022-02-23T09:51:22Z</time>
      </trkpt>
      <trkpt lat="45.28412" lon="5.78616">
        <ele>1947.77</ele>
        <time>2022-02-23T09:51:36Z</time>
      </trkpt>
      <trkpt lat="45.28416" lon="5.78617">
        <ele>1950.17</ele>
        <time>2022-02-23T09:51:43Z</time>
      </trkpt>
      <trkpt lat="45.28425" lon="5.78622">
        <ele>1953.06</ele>
        <time>2022-02-23T09:52:01Z</time>
      </trkpt>
      <trkpt lat="45.28433" lon="5.78627">
        <ele>1955.46</ele>
        <time>2022-02-23T09:52:19Z</time>
      </trkpt>
      <trkpt lat="45.28443" lon="5.78632">
        <ele>1958.34</ele>
        <time>2022-02-23T09:52:39Z</time>
      </trkpt>
      <trkpt lat="45.28454" lon="5.78634">
        <ele>1959.78</ele>
        <time>2022-02-23T09:53:00Z</time>
      </trkpt>
      <trkpt lat="45.28457" lon="5.78637">
        <ele>1960.75</ele>
        <time>2022-02-23T09:53:08Z</time>
      </trkpt>
      <trkpt lat="45.28463" lon="5.78644">
        <ele>1965.07</ele>
        <time>2022-02-23T09:53:27Z</time>
      </trkpt>
      <trkpt lat="45.28471" lon="5.7865">
        <ele>1966.03</ele>
        <time>2022-02-23T09:53:47Z</time>
      </trkpt>
      <trkpt lat="45.28477" lon="5.78655">
        <ele>1968.92</ele>
        <time>2022-02-23T09:54:06Z</time>
      </trkpt>
      <trkpt lat="45.28486" lon="5.78659">
        <ele>1971.8</ele>
        <time>2022-02-23T09:54:27Z</time>
      </trkpt>
      <trkpt lat="45.2849" lon="5.78661">
        <ele>1973.72</ele>
        <time>2022-02-23T09:54:41Z</time>
      </trkpt>
      <trkpt lat="45.28498" lon="5.78666">
        <ele>1976.13</ele>
        <time>2022-02-23T09:55:04Z</time>
      </trkpt>
      <trkpt lat="45.28498" lon="5.78666">
        <ele>1977.09</ele>
        <time>2022-02-23T09:55:06Z</time>
      </trkpt>
      <trkpt lat="45.28505" lon="5.78667">
        <ele>1979.97</ele>
        <time>2022-02-23T09:55:22Z</time>
      </trkpt>
      <trkpt lat="45.28506" lon="5.78667">
        <ele>1979.97</ele>
        <time>2022-02-23T09:55:23Z</time>
      </trkpt>
      <trkpt lat="45.28514" lon="5.78668">
        <ele>1981.9</ele>
        <time>2022-02-23T09:55:41Z</time>
      </trkpt>
      <trkpt lat="45.28522" lon="5.78671">
        <ele>1982.86</ele>
        <time>2022-02-23T09:55:59Z</time>
      </trkpt>
      <trkpt lat="45.28523" lon="5.78671">
        <ele>1984.3</ele>
        <time>2022-02-23T09:56:01Z</time>
      </trkpt>
      <trkpt lat="45.28527" lon="5.78672">
        <ele>1985.74</ele>
        <time>2022-02-23T09:56:18Z</time>
      </trkpt>
      <trkpt lat="45.28535" lon="5.78677">
        <ele>1989.59</ele>
        <time>2022-02-23T09:56:36Z</time>
      </trkpt>
      <trkpt lat="45.28542" lon="5.7868">
        <ele>1991.03</ele>
        <time>2022-02-23T09:56:54Z</time>
      </trkpt>
      <trkpt lat="45.28549" lon="5.78684">
        <ele>1993.43</ele>
        <time>2022-02-23T09:57:13Z</time>
      </trkpt>
      <trkpt lat="45.2856" lon="5.78687">
        <ele>1995.83</ele>
        <time>2022-02-23T09:57:35Z</time>
      </trkpt>
      <trkpt lat="45.28564" lon="5.78687">
        <ele>1998.72</ele>
        <time>2022-02-23T09:57:50Z</time>
      </trkpt>
      <trkpt lat="45.28565" lon="5.78687">
        <ele>1998.72</ele>
        <time>2022-02-23T09:57:51Z</time>
      </trkpt>
      <trkpt lat="45.28567" lon="5.78686">
        <ele>2000.16</ele>
        <time>2022-02-23T09:57:59Z</time>
      </trkpt>
      <trkpt lat="45.28569" lon="5.78688">
        <ele>2000.64</ele>
        <time>2022-02-23T09:58:22Z</time>
      </trkpt>
      <trkpt lat="45.28569" lon="5.78689">
        <ele>2000.64</ele>
        <time>2022-02-23T09:58:44Z</time>
      </trkpt>
      <trkpt lat="45.28573" lon="5.78689">
        <ele>2002.08</ele>
        <time>2022-02-23T09:59:01Z</time>
      </trkpt>
      <trkpt lat="45.28577" lon="5.7869">
        <ele>2003.04</ele>
        <time>2022-02-23T09:59:16Z</time>
      </trkpt>
      <trkpt lat="45.28581" lon="5.78692">
        <ele>2004.49</ele>
        <time>2022-02-23T09:59:32Z</time>
      </trkpt>
      <trkpt lat="45.28583" lon="5.78692">
        <ele>2005.45</ele>
        <time>2022-02-23T09:59:52Z</time>
      </trkpt>
      <trkpt lat="45.28584" lon="5.78694">
        <ele>2006.89</ele>
        <time>2022-02-23T10:00:10Z</time>
      </trkpt>
      <trkpt lat="45.28586" lon="5.78695">
        <ele>2007.85</ele>
        <time>2022-02-23T10:00:18Z</time>
      </trkpt>
      <trkpt lat="45.28587" lon="5.78695">
        <ele>2007.85</ele>
        <time>2022-02-23T10:00:43Z</time>
      </trkpt>
      <trkpt lat="45.28587" lon="5.78696">
        <ele>2007.85</ele>
        <time>2022-02-23T10:01:06Z</time>
      </trkpt>
      <trkpt lat="45.28586" lon="5.78698">
        <ele>2008.33</ele>
        <time>2022-02-23T10:01:20Z</time>
      </trkpt>
      <trkpt lat="45.28585" lon="5.787">
        <ele>2011.7</ele>
        <time>2022-02-23T10:16:36Z</time>
      </trkpt>
      <trkpt lat="45.28585" lon="5.78701">
        <ele>2011.22</ele>
        <time>2022-02-23T10:16:43Z</time>
      </trkpt>
      <trkpt lat="45.28583" lon="5.78702">
        <ele>2009.29</ele>
        <time>2022-02-23T10:16:48Z</time>
      </trkpt>
      <trkpt lat="45.28584" lon="5.78702">
        <ele>2009.29</ele>
        <time>2022-02-23T10:17:00Z</time>
      </trkpt>
      <trkpt lat="45.28581" lon="5.78701">
        <ele>2006.89</ele>
        <time>2022-02-23T10:17:06Z</time>
      </trkpt>
      <trkpt lat="45.28583" lon="5.78697">
        <ele>2006.41</ele>
        <time>2022-02-23T10:17:12Z</time>
      </trkpt>
      <trkpt lat="45.28581" lon="5.78695">
        <ele>2006.41</ele>
        <time>2022-02-23T10:17:17Z</time>
      </trkpt>
      <trkpt lat="45.28577" lon="5.78693">
        <ele>2004.01</ele>
        <time>2022-02-23T10:17:19Z</time>
      </trkpt>
      <trkpt lat="45.28574" lon="5.78693">
        <ele>2004.01</ele>
        <time>2022-02-23T10:17:20Z</time>
      </trkpt>
      <trkpt lat="45.28572" lon="5.78694">
        <ele>2003.04</ele>
        <time>2022-02-23T10:17:21Z</time>
      </trkpt>
      <trkpt lat="45.28571" lon="5.78695">
        <ele>2003.04</ele>
        <time>2022-02-23T10:17:22Z</time>
      </trkpt>
      <trkpt lat="45.28569" lon="5.78696">
        <ele>2003.04</ele>
        <time>2022-02-23T10:17:23Z</time>
      </trkpt>
      <trkpt lat="45.28553" lon="5.787">
        <ele>2001.6</ele>
        <time>2022-02-23T10:17:33Z</time>
      </trkpt>
      <trkpt lat="45.28551" lon="5.78698">
        <ele>2000.64</ele>
        <time>2022-02-23T10:17:34Z</time>
      </trkpt>
      <trkpt lat="45.28548" lon="5.78698">
        <ele>2000.64</ele>
        <time>2022-02-23T10:17:35Z</time>
      </trkpt>
      <trkpt lat="45.28546" lon="5.78698">
        <ele>1999.68</ele>
        <time>2022-02-23T10:17:36Z</time>
      </trkpt>
      <trkpt lat="45.28544" lon="5.78699">
        <ele>1999.2</ele>
        <time>2022-02-23T10:17:37Z</time>
      </trkpt>
      <trkpt lat="45.28539" lon="5.78699">
        <ele>1998.24</ele>
        <time>2022-02-23T10:17:39Z</time>
      </trkpt>
      <trkpt lat="45.28521" lon="5.787">
        <ele>1995.35</ele>
        <time>2022-02-23T10:17:46Z</time>
      </trkpt>
      <trkpt lat="45.2852" lon="5.787">
        <ele>1998.24</ele>
        <time>2022-02-23T10:17:47Z</time>
      </trkpt>
      <trkpt lat="45.28519" lon="5.78699">
        <ele>1999.2</ele>
        <time>2022-02-23T10:17:48Z</time>
      </trkpt>
      <trkpt lat="45.2852" lon="5.78696">
        <ele>1994.39</ele>
        <time>2022-02-23T10:17:49Z</time>
      </trkpt>
      <trkpt lat="45.28526" lon="5.78689">
        <ele>1991.99</ele>
        <time>2022-02-23T10:17:52Z</time>
      </trkpt>
      <trkpt lat="45.28545" lon="5.78674">
        <ele>1987.66</ele>
        <time>2022-02-23T10:18:02Z</time>
      </trkpt>
      <trkpt lat="45.28544" lon="5.7867">
        <ele>1987.66</ele>
        <time>2022-02-23T10:18:03Z</time>
      </trkpt>
      <trkpt lat="45.28541" lon="5.78667">
        <ele>1987.66</ele>
        <time>2022-02-23T10:18:04Z</time>
      </trkpt>
      <trkpt lat="45.28538" lon="5.78666">
        <ele>1985.74</ele>
        <time>2022-02-23T10:18:05Z</time>
      </trkpt>
      <trkpt lat="45.28536" lon="5.78664">
        <ele>1987.18</ele>
        <time>2022-02-23T10:18:06Z</time>
      </trkpt>
      <trkpt lat="45.28536" lon="5.7866">
        <ele>1984.78</ele>
        <time>2022-02-23T10:18:07Z</time>
      </trkpt>
      <trkpt lat="45.28538" lon="5.78656">
        <ele>1979.49</ele>
        <time>2022-02-23T10:18:08Z</time>
      </trkpt>
      <trkpt lat="45.28539" lon="5.78651">
        <ele>1979.49</ele>
        <time>2022-02-23T10:18:09Z</time>
      </trkpt>
      <trkpt lat="45.28538" lon="5.78648">
        <ele>1979.49</ele>
        <time>2022-02-23T10:18:10Z</time>
      </trkpt>
      <trkpt lat="45.28535" lon="5.78646">
        <ele>1977.57</ele>
        <time>2022-02-23T10:18:11Z</time>
      </trkpt>
      <trkpt lat="45.2853" lon="5.78645">
        <ele>1977.57</ele>
        <time>2022-02-23T10:18:12Z</time>
      </trkpt>
      <trkpt lat="45.28527" lon="5.78646">
        <ele>1976.13</ele>
        <time>2022-02-23T10:18:13Z</time>
      </trkpt>
      <trkpt lat="45.28524" lon="5.78645">
        <ele>1976.13</ele>
        <time>2022-02-23T10:18:14Z</time>
      </trkpt>
      <trkpt lat="45.28523" lon="5.78643">
        <ele>1973.24</ele>
        <time>2022-02-23T10:18:15Z</time>
      </trkpt>
      <trkpt lat="45.28527" lon="5.78638">
        <ele>1968.92</ele>
        <time>2022-02-23T10:18:17Z</time>
      </trkpt>
      <trkpt lat="45.28525" lon="5.78625">
        <ele>1966.99</ele>
        <time>2022-02-23T10:18:21Z</time>
      </trkpt>
      <trkpt lat="45.28525" lon="5.78619">
        <ele>1962.67</ele>
        <time>2022-02-23T10:18:22Z</time>
      </trkpt>
      <trkpt lat="45.28526" lon="5.78613">
        <ele>1960.75</ele>
        <time>2022-02-23T10:18:23Z</time>
      </trkpt>
      <trkpt lat="45.28528" lon="5.78605">
        <ele>1960.75</ele>
        <time>2022-02-23T10:18:25Z</time>
      </trkpt>
      <trkpt lat="45.28528" lon="5.786">
        <ele>1959.78</ele>
        <time>2022-02-23T10:18:30Z</time>
      </trkpt>
      <trkpt lat="45.28525" lon="5.78597">
        <ele>1953.06</ele>
        <time>2022-02-23T10:18:34Z</time>
      </trkpt>
      <trkpt lat="45.2853" lon="5.7859">
        <ele>1951.61</ele>
        <time>2022-02-23T10:18:36Z</time>
      </trkpt>
      <trkpt lat="45.28524" lon="5.78584">
        <ele>1950.17</ele>
        <time>2022-02-23T10:18:38Z</time>
      </trkpt>
      <trkpt lat="45.2852" lon="5.78585">
        <ele>1949.69</ele>
        <time>2022-02-23T10:18:39Z</time>
      </trkpt>
      <trkpt lat="45.28515" lon="5.78587">
        <ele>1948.25</ele>
        <time>2022-02-23T10:18:41Z</time>
      </trkpt>
      <trkpt lat="45.28514" lon="5.78582">
        <ele>1944.4</ele>
        <time>2022-02-23T10:18:43Z</time>
      </trkpt>
      <trkpt lat="45.28519" lon="5.78573">
        <ele>1941.52</ele>
        <time>2022-02-23T10:18:46Z</time>
      </trkpt>
      <trkpt lat="45.28517" lon="5.78568">
        <ele>1940.08</ele>
        <time>2022-02-23T10:18:48Z</time>
      </trkpt>
      <trkpt lat="45.28511" lon="5.78564">
        <ele>1935.75</ele>
        <time>2022-02-23T10:18:51Z</time>
      </trkpt>
      <trkpt lat="45.28514" lon="5.78556">
        <ele>1933.83</ele>
        <time>2022-02-23T10:18:53Z</time>
      </trkpt>
      <trkpt lat="45.28509" lon="5.78552">
        <ele>1932.39</ele>
        <time>2022-02-23T10:18:55Z</time>
      </trkpt>
      <trkpt lat="45.28507" lon="5.78552">
        <ele>1931.91</ele>
        <time>2022-02-23T10:18:56Z</time>
      </trkpt>
      <trkpt lat="45.28503" lon="5.78554">
        <ele>1930.46</ele>
        <time>2022-02-23T10:18:58Z</time>
      </trkpt>
      <trkpt lat="45.28502" lon="5.78558">
        <ele>1931.43</ele>
        <time>2022-02-23T10:19:03Z</time>
      </trkpt>
      <trkpt lat="45.28503" lon="5.78549">
        <ele>1925.66</ele>
        <time>2022-02-23T10:19:06Z</time>
      </trkpt>
      <trkpt lat="45.28505" lon="5.78545">
        <ele>1925.66</ele>
        <time>2022-02-23T10:19:07Z</time>
      </trkpt>
      <trkpt lat="45.28502" lon="5.78531">
        <ele>1919.41</ele>
        <time>2022-02-23T10:19:10Z</time>
      </trkpt>
      <trkpt lat="45.28505" lon="5.78521">
        <ele>1916.04</ele>
        <time>2022-02-23T10:19:12Z</time>
      </trkpt>
      <trkpt lat="45.28503" lon="5.78516">
        <ele>1915.08</ele>
        <time>2022-02-23T10:19:13Z</time>
      </trkpt>
      <trkpt lat="45.28498" lon="5.78505">
        <ele>1909.8</ele>
        <time>2022-02-23T10:19:16Z</time>
      </trkpt>
      <trkpt lat="45.285" lon="5.785">
        <ele>1906.43</ele>
        <time>2022-02-23T10:19:17Z</time>
      </trkpt>
      <trkpt lat="45.28496" lon="5.78493">
        <ele>1905.47</ele>
        <time>2022-02-23T10:19:19Z</time>
      </trkpt>
      <trkpt lat="45.28495" lon="5.78484">
        <ele>1899.22</ele>
        <time>2022-02-23T10:19:21Z</time>
      </trkpt>
      <trkpt lat="45.28493" lon="5.78478">
        <ele>1896.34</ele>
        <time>2022-02-23T10:19:23Z</time>
      </trkpt>
      <trkpt lat="45.28492" lon="5.78479">
        <ele>1896.82</ele>
        <time>2022-02-23T10:19:35Z</time>
      </trkpt>
      <trkpt lat="45.28492" lon="5.7848">
        <ele>1896.82</ele>
        <time>2022-02-23T10:20:07Z</time>
      </trkpt>
      <trkpt lat="45.28492" lon="5.78479">
        <ele>1896.34</ele>
        <time>2022-02-23T10:20:08Z</time>
      </trkpt>
      <trkpt lat="45.28492" lon="5.78464">
        <ele>1892.97</ele>
        <time>2022-02-23T10:20:12Z</time>
      </trkpt>
      <trkpt lat="45.28489" lon="5.78461">
        <ele>1891.53</ele>
        <time>2022-02-23T10:20:13Z</time>
      </trkpt>
      <trkpt lat="45.28486" lon="5.78459">
        <ele>1891.53</ele>
        <time>2022-02-23T10:20:14Z</time>
      </trkpt>
      <trkpt lat="45.28486" lon="5.78449">
        <ele>1885.76</ele>
        <time>2022-02-23T10:20:16Z</time>
      </trkpt>
      <trkpt lat="45.28484" lon="5.78444">
        <ele>1884.8</ele>
        <time>2022-02-23T10:20:17Z</time>
      </trkpt>
      <trkpt lat="45.28481" lon="5.78443">
        <ele>1884.8</ele>
        <time>2022-02-23T10:20:18Z</time>
      </trkpt>
      <trkpt lat="45.28478" lon="5.78441">
        <ele>1884.32</ele>
        <time>2022-02-23T10:20:19Z</time>
      </trkpt>
      <trkpt lat="45.28477" lon="5.78438">
        <ele>1881.44</ele>
        <time>2022-02-23T10:20:20Z</time>
      </trkpt>
      <trkpt lat="45.28477" lon="5.78433">
        <ele>1879.03</ele>
        <time>2022-02-23T10:20:21Z</time>
      </trkpt>
      <trkpt lat="45.28475" lon="5.78429">
        <ele>1878.07</ele>
        <time>2022-02-23T10:20:22Z</time>
      </trkpt>
      <trkpt lat="45.28473" lon="5.78426">
        <ele>1878.07</ele>
        <time>2022-02-23T10:20:23Z</time>
      </trkpt>
      <trkpt lat="45.28471" lon="5.78423">
        <ele>1876.15</ele>
        <time>2022-02-23T10:20:24Z</time>
      </trkpt>
      <trkpt lat="45.28471" lon="5.78417">
        <ele>1873.75</ele>
        <time>2022-02-23T10:20:25Z</time>
      </trkpt>
      <trkpt lat="45.28469" lon="5.78412">
        <ele>1872.3</ele>
        <time>2022-02-23T10:20:26Z</time>
      </trkpt>
      <trkpt lat="45.28466" lon="5.78408">
        <ele>1871.82</ele>
        <time>2022-02-23T10:20:27Z</time>
      </trkpt>
      <trkpt lat="45.28466" lon="5.78403">
        <ele>1869.42</ele>
        <time>2022-02-23T10:20:28Z</time>
      </trkpt>
      <trkpt lat="45.28467" lon="5.78388">
        <ele>1865.58</ele>
        <time>2022-02-23T10:20:31Z</time>
      </trkpt>
      <trkpt lat="45.28469" lon="5.78379">
        <ele>1860.77</ele>
        <time>2022-02-23T10:20:33Z</time>
      </trkpt>
      <trkpt lat="45.28467" lon="5.78374">
        <ele>1860.77</ele>
        <time>2022-02-23T10:20:34Z</time>
      </trkpt>
      <trkpt lat="45.28459" lon="5.7837">
        <ele>1858.37</ele>
        <time>2022-02-23T10:20:36Z</time>
      </trkpt>
      <trkpt lat="45.28454" lon="5.78369">
        <ele>1856.92</ele>
        <time>2022-02-23T10:20:37Z</time>
      </trkpt>
      <trkpt lat="45.28451" lon="5.78367">
        <ele>1856.44</ele>
        <time>2022-02-23T10:20:38Z</time>
      </trkpt>
      <trkpt lat="45.28444" lon="5.78365">
        <ele>1859.33</ele>
        <time>2022-02-23T10:20:40Z</time>
      </trkpt>
      <trkpt lat="45.28443" lon="5.78362">
        <ele>1855.48</ele>
        <time>2022-02-23T10:20:41Z</time>
      </trkpt>
      <trkpt lat="45.28442" lon="5.78357">
        <ele>1854.04</ele>
        <time>2022-02-23T10:20:42Z</time>
      </trkpt>
      <trkpt lat="45.28442" lon="5.78351">
        <ele>1853.08</ele>
        <time>2022-02-23T10:20:43Z</time>
      </trkpt>
      <trkpt lat="45.28439" lon="5.78347">
        <ele>1852.12</ele>
        <time>2022-02-23T10:20:44Z</time>
      </trkpt>
      <trkpt lat="45.28435" lon="5.78344">
        <ele>1852.12</ele>
        <time>2022-02-23T10:20:45Z</time>
      </trkpt>
      <trkpt lat="45.28433" lon="5.78341">
        <ele>1850.68</ele>
        <time>2022-02-23T10:20:46Z</time>
      </trkpt>
      <trkpt lat="45.28434" lon="5.78336">
        <ele>1849.23</ele>
        <time>2022-02-23T10:20:47Z</time>
      </trkpt>
      <trkpt lat="45.28436" lon="5.78331">
        <ele>1846.35</ele>
        <time>2022-02-23T10:20:48Z</time>
      </trkpt>
      <trkpt lat="45.28437" lon="5.78325">
        <ele>1846.35</ele>
        <time>2022-02-23T10:20:49Z</time>
      </trkpt>
      <trkpt lat="45.28435" lon="5.7832">
        <ele>1844.91</ele>
        <time>2022-02-23T10:20:50Z</time>
      </trkpt>
      <trkpt lat="45.28432" lon="5.78316">
        <ele>1844.43</ele>
        <time>2022-02-23T10:20:51Z</time>
      </trkpt>
      <trkpt lat="45.2843" lon="5.78311">
        <ele>1842.98</ele>
        <time>2022-02-23T10:20:52Z</time>
      </trkpt>
      <trkpt lat="45.28431" lon="5.78306">
        <ele>1842.02</ele>
        <time>2022-02-23T10:20:53Z</time>
      </trkpt>
      <trkpt lat="45.28435" lon="5.78303">
        <ele>1838.66</ele>
        <time>2022-02-23T10:20:54Z</time>
      </trkpt>
      <trkpt lat="45.28438" lon="5.783">
        <ele>1838.66</ele>
        <time>2022-02-23T10:20:55Z</time>
      </trkpt>
      <trkpt lat="45.2844" lon="5.78295">
        <ele>1837.22</ele>
        <time>2022-02-23T10:20:56Z</time>
      </trkpt>
      <trkpt lat="45.2844" lon="5.78289">
        <ele>1837.22</ele>
        <time>2022-02-23T10:20:57Z</time>
      </trkpt>
      <trkpt lat="45.28442" lon="5.78283">
        <ele>1833.37</ele>
        <time>2022-02-23T10:20:58Z</time>
      </trkpt>
      <trkpt lat="45.28444" lon="5.78278">
        <ele>1831.93</ele>
        <time>2022-02-23T10:20:59Z</time>
      </trkpt>
      <trkpt lat="45.28444" lon="5.78273">
        <ele>1831.45</ele>
        <time>2022-02-23T10:21:00Z</time>
      </trkpt>
      <trkpt lat="45.28442" lon="5.7827">
        <ele>1830.01</ele>
        <time>2022-02-23T10:21:01Z</time>
      </trkpt>
      <trkpt lat="45.28439" lon="5.78268">
        <ele>1828.56</ele>
        <time>2022-02-23T10:21:02Z</time>
      </trkpt>
      <trkpt lat="45.28436" lon="5.78268">
        <ele>1830.01</ele>
        <time>2022-02-23T10:21:03Z</time>
      </trkpt>
      <trkpt lat="45.28435" lon="5.78269">
        <ele>1830.49</ele>
        <time>2022-02-23T10:21:19Z</time>
      </trkpt>
      <trkpt lat="45.28434" lon="5.78268">
        <ele>1828.56</ele>
        <time>2022-02-23T10:21:38Z</time>
      </trkpt>
      <trkpt lat="45.28433" lon="5.78267">
        <ele>1829.05</ele>
        <time>2022-02-23T10:21:48Z</time>
      </trkpt>
      <trkpt lat="45.28429" lon="5.78258">
        <ele>1828.56</ele>
        <time>2022-02-23T10:21:53Z</time>
      </trkpt>
      <trkpt lat="45.28431" lon="5.78255">
        <ele>1828.08</ele>
        <time>2022-02-23T10:21:54Z</time>
      </trkpt>
      <trkpt lat="45.28434" lon="5.78254">
        <ele>1825.68</ele>
        <time>2022-02-23T10:21:55Z</time>
      </trkpt>
      <trkpt lat="45.28443" lon="5.78252">
        <ele>1823.76</ele>
        <time>2022-02-23T10:21:58Z</time>
      </trkpt>
      <trkpt lat="45.28444" lon="5.78249">
        <ele>1823.76</ele>
        <time>2022-02-23T10:21:59Z</time>
      </trkpt>
      <trkpt lat="45.28447" lon="5.78246">
        <ele>1822.8</ele>
        <time>2022-02-23T10:22:00Z</time>
      </trkpt>
      <trkpt lat="45.2845" lon="5.78243">
        <ele>1819.91</ele>
        <time>2022-02-23T10:22:01Z</time>
      </trkpt>
      <trkpt lat="45.28452" lon="5.78242">
        <ele>1818.47</ele>
        <time>2022-02-23T10:22:02Z</time>
      </trkpt>
      <trkpt lat="45.28455" lon="5.78243">
        <ele>1817.03</ele>
        <time>2022-02-23T10:22:03Z</time>
      </trkpt>
      <trkpt lat="45.28458" lon="5.78243">
        <ele>1817.03</ele>
        <time>2022-02-23T10:22:04Z</time>
      </trkpt>
      <trkpt lat="45.28461" lon="5.78245">
        <ele>1816.55</ele>
        <time>2022-02-23T10:22:05Z</time>
      </trkpt>
      <trkpt lat="45.28463" lon="5.78246">
        <ele>1816.55</ele>
        <time>2022-02-23T10:22:06Z</time>
      </trkpt>
      <trkpt lat="45.28465" lon="5.78248">
        <ele>1816.55</ele>
        <time>2022-02-23T10:22:07Z</time>
      </trkpt>
      <trkpt lat="45.2847" lon="5.78252">
        <ele>1816.55</ele>
        <time>2022-02-23T10:22:10Z</time>
      </trkpt>
      <trkpt lat="45.28471" lon="5.78251">
        <ele>1816.55</ele>
        <time>2022-02-23T10:22:11Z</time>
      </trkpt>
      <trkpt lat="45.28471" lon="5.78248">
        <ele>1815.11</ele>
        <time>2022-02-23T10:22:12Z</time>
      </trkpt>
      <trkpt lat="45.2847" lon="5.78244">
        <ele>1814.15</ele>
        <time>2022-02-23T10:22:13Z</time>
      </trkpt>
      <trkpt lat="45.28467" lon="5.78241">
        <ele>1814.15</ele>
        <time>2022-02-23T10:22:14Z</time>
      </trkpt>
      <trkpt lat="45.28463" lon="5.78233">
        <ele>1813.18</ele>
        <time>2022-02-23T10:22:17Z</time>
      </trkpt>
      <trkpt lat="45.28463" lon="5.78232">
        <ele>1811.74</ele>
        <time>2022-02-23T10:22:18Z</time>
      </trkpt>
      <trkpt lat="45.28464" lon="5.78232">
        <ele>1811.26</ele>
        <time>2022-02-23T10:22:19Z</time>
      </trkpt>
      <trkpt lat="45.28471" lon="5.78232">
        <ele>1808.38</ele>
        <time>2022-02-23T10:22:23Z</time>
      </trkpt>
      <trkpt lat="45.28478" lon="5.78235">
        <ele>1805.97</ele>
        <time>2022-02-23T10:22:26Z</time>
      </trkpt>
      <trkpt lat="45.2848" lon="5.78234">
        <ele>1805.49</ele>
        <time>2022-02-23T10:22:27Z</time>
      </trkpt>
      <trkpt lat="45.28481" lon="5.78231">
        <ele>1805.49</ele>
        <time>2022-02-23T10:22:28Z</time>
      </trkpt>
      <trkpt lat="45.28483" lon="5.78228">
        <ele>1804.05</ele>
        <time>2022-02-23T10:22:30Z</time>
      </trkpt>
      <trkpt lat="45.28485" lon="5.78228">
        <ele>1802.61</ele>
        <time>2022-02-23T10:22:31Z</time>
      </trkpt>
      <trkpt lat="45.28487" lon="5.78228">
        <ele>1801.17</ele>
        <time>2022-02-23T10:22:32Z</time>
      </trkpt>
      <trkpt lat="45.28491" lon="5.78228">
        <ele>1800.69</ele>
        <time>2022-02-23T10:22:33Z</time>
      </trkpt>
      <trkpt lat="45.28494" lon="5.78229">
        <ele>1800.21</ele>
        <time>2022-02-23T10:22:34Z</time>
      </trkpt>
      <trkpt lat="45.28497" lon="5.78231">
        <ele>1798.76</ele>
        <time>2022-02-23T10:22:35Z</time>
      </trkpt>
      <trkpt lat="45.28499" lon="5.78233">
        <ele>1798.76</ele>
        <time>2022-02-23T10:22:36Z</time>
      </trkpt>
      <trkpt lat="45.28501" lon="5.78234">
        <ele>1798.28</ele>
        <time>2022-02-23T10:22:37Z</time>
      </trkpt>
      <trkpt lat="45.28503" lon="5.78236">
        <ele>1797.8</ele>
        <time>2022-02-23T10:22:38Z</time>
      </trkpt>
      <trkpt lat="45.28512" lon="5.78238">
        <ele>1796.36</ele>
        <time>2022-02-23T10:22:44Z</time>
      </trkpt>
      <trkpt lat="45.28516" lon="5.78233">
        <ele>1793</ele>
        <time>2022-02-23T10:22:46Z</time>
      </trkpt>
      <trkpt lat="45.28516" lon="5.78231">
        <ele>1793</ele>
        <time>2022-02-23T10:22:47Z</time>
      </trkpt>
      <trkpt lat="45.28519" lon="5.78228">
        <ele>1790.59</ele>
        <time>2022-02-23T10:22:51Z</time>
      </trkpt>
      <trkpt lat="45.28519" lon="5.7822">
        <ele>1789.15</ele>
        <time>2022-02-23T10:22:53Z</time>
      </trkpt>
      <trkpt lat="45.2852" lon="5.78216">
        <ele>1787.23</ele>
        <time>2022-02-23T10:22:54Z</time>
      </trkpt>
      <trkpt lat="45.28523" lon="5.78215">
        <ele>1786.75</ele>
        <time>2022-02-23T10:22:55Z</time>
      </trkpt>
      <trkpt lat="45.28526" lon="5.78216">
        <ele>1784.82</ele>
        <time>2022-02-23T10:22:56Z</time>
      </trkpt>
      <trkpt lat="45.28528" lon="5.78217">
        <ele>1784.34</ele>
        <time>2022-02-23T10:22:57Z</time>
      </trkpt>
      <trkpt lat="45.2853" lon="5.78219">
        <ele>1784.34</ele>
        <time>2022-02-23T10:22:58Z</time>
      </trkpt>
      <trkpt lat="45.28535" lon="5.78218">
        <ele>1783.38</ele>
        <time>2022-02-23T10:23:00Z</time>
      </trkpt>
      <trkpt lat="45.28538" lon="5.78214">
        <ele>1780.98</ele>
        <time>2022-02-23T10:23:01Z</time>
      </trkpt>
      <trkpt lat="45.28538" lon="5.78206">
        <ele>1779.54</ele>
        <time>2022-02-23T10:23:03Z</time>
      </trkpt>
      <trkpt lat="45.28539" lon="5.78203">
        <ele>1777.61</ele>
        <time>2022-02-23T10:23:04Z</time>
      </trkpt>
      <trkpt lat="45.2854" lon="5.78202">
        <ele>1776.17</ele>
        <time>2022-02-23T10:23:05Z</time>
      </trkpt>
      <trkpt lat="45.28541" lon="5.78201">
        <ele>1775.69</ele>
        <time>2022-02-23T10:23:06Z</time>
      </trkpt>
      <trkpt lat="45.28543" lon="5.78201">
        <ele>1775.69</ele>
        <time>2022-02-23T10:23:07Z</time>
      </trkpt>
      <trkpt lat="45.28544" lon="5.78204">
        <ele>1780.5</ele>
        <time>2022-02-23T10:23:15Z</time>
      </trkpt>
      <trkpt lat="45.28544" lon="5.78204">
        <ele>1776.17</ele>
        <time>2022-02-23T10:23:16Z</time>
      </trkpt>
      <trkpt lat="45.28545" lon="5.78206">
        <ele>1776.17</ele>
        <time>2022-02-23T10:23:32Z</time>
      </trkpt>
      <trkpt lat="45.28555" lon="5.78208">
        <ele>1772.33</ele>
        <time>2022-02-23T10:23:38Z</time>
      </trkpt>
      <trkpt lat="45.28557" lon="5.78209">
        <ele>1772.33</ele>
        <time>2022-02-23T10:23:39Z</time>
      </trkpt>
      <trkpt lat="45.2856" lon="5.78213">
        <ele>1772.33</ele>
        <time>2022-02-23T10:23:51Z</time>
      </trkpt>
      <trkpt lat="45.28564" lon="5.78213">
        <ele>1771.37</ele>
        <time>2022-02-23T10:24:02Z</time>
      </trkpt>
      <trkpt lat="45.28567" lon="5.78212">
        <ele>1770.89</ele>
        <time>2022-02-23T10:24:03Z</time>
      </trkpt>
      <trkpt lat="45.2857" lon="5.78213">
        <ele>1770.89</ele>
        <time>2022-02-23T10:24:04Z</time>
      </trkpt>
      <trkpt lat="45.28574" lon="5.78213">
        <ele>1771.37</ele>
        <time>2022-02-23T10:24:06Z</time>
      </trkpt>
      <trkpt lat="45.28576" lon="5.78211">
        <ele>1768.48</ele>
        <time>2022-02-23T10:24:07Z</time>
      </trkpt>
      <trkpt lat="45.28578" lon="5.78203">
        <ele>1767.52</ele>
        <time>2022-02-23T10:24:09Z</time>
      </trkpt>
      <trkpt lat="45.2858" lon="5.78203">
        <ele>1765.6</ele>
        <time>2022-02-23T10:24:10Z</time>
      </trkpt>
      <trkpt lat="45.28582" lon="5.78203">
        <ele>1765.12</ele>
        <time>2022-02-23T10:24:12Z</time>
      </trkpt>
      <trkpt lat="45.28583" lon="5.78206">
        <ele>1764.16</ele>
        <time>2022-02-23T10:24:33Z</time>
      </trkpt>
      <trkpt lat="45.28589" lon="5.78206">
        <ele>1763.2</ele>
        <time>2022-02-23T10:24:35Z</time>
      </trkpt>
      <trkpt lat="45.286" lon="5.78203">
        <ele>1760.31</ele>
        <time>2022-02-23T10:24:39Z</time>
      </trkpt>
      <trkpt lat="45.28602" lon="5.78202">
        <ele>1760.31</ele>
        <time>2022-02-23T10:24:40Z</time>
      </trkpt>
      <trkpt lat="45.28603" lon="5.782">
        <ele>1758.87</ele>
        <time>2022-02-23T10:24:41Z</time>
      </trkpt>
      <trkpt lat="45.28602" lon="5.78197">
        <ele>1758.39</ele>
        <time>2022-02-23T10:24:42Z</time>
      </trkpt>
      <trkpt lat="45.28602" lon="5.78193">
        <ele>1758.39</ele>
        <time>2022-02-23T10:24:43Z</time>
      </trkpt>
      <trkpt lat="45.28604" lon="5.7819">
        <ele>1756.47</ele>
        <time>2022-02-23T10:24:44Z</time>
      </trkpt>
      <trkpt lat="45.28606" lon="5.78188">
        <ele>1755.02</ele>
        <time>2022-02-23T10:24:45Z</time>
      </trkpt>
      <trkpt lat="45.28608" lon="5.78187">
        <ele>1753.58</ele>
        <time>2022-02-23T10:24:46Z</time>
      </trkpt>
      <trkpt lat="45.2861" lon="5.78187">
        <ele>1752.62</ele>
        <time>2022-02-23T10:24:47Z</time>
      </trkpt>
      <trkpt lat="45.28612" lon="5.78188">
        <ele>1752.14</ele>
        <time>2022-02-23T10:24:48Z</time>
      </trkpt>
      <trkpt lat="45.28614" lon="5.78189">
        <ele>1752.62</ele>
        <time>2022-02-23T10:24:49Z</time>
      </trkpt>
      <trkpt lat="45.28617" lon="5.78193">
        <ele>1752.14</ele>
        <time>2022-02-23T10:24:50Z</time>
      </trkpt>
      <trkpt lat="45.28619" lon="5.78195">
        <ele>1751.18</ele>
        <time>2022-02-23T10:24:51Z</time>
      </trkpt>
      <trkpt lat="45.28621" lon="5.78197">
        <ele>1750.7</ele>
        <time>2022-02-23T10:24:52Z</time>
      </trkpt>
      <trkpt lat="45.28638" lon="5.78211">
        <ele>1747.81</ele>
        <time>2022-02-23T10:24:59Z</time>
      </trkpt>
      <trkpt lat="45.28641" lon="5.78212">
        <ele>1747.33</ele>
        <time>2022-02-23T10:25:05Z</time>
      </trkpt>
      <trkpt lat="45.28643" lon="5.78211">
        <ele>1746.37</ele>
        <time>2022-02-23T10:25:06Z</time>
      </trkpt>
      <trkpt lat="45.28646" lon="5.78212">
        <ele>1744.93</ele>
        <time>2022-02-23T10:25:07Z</time>
      </trkpt>
      <trkpt lat="45.28649" lon="5.78215">
        <ele>1744.93</ele>
        <time>2022-02-23T10:25:08Z</time>
      </trkpt>
      <trkpt lat="45.28653" lon="5.78217">
        <ele>1744.93</ele>
        <time>2022-02-23T10:25:09Z</time>
      </trkpt>
      <trkpt lat="45.28655" lon="5.78217">
        <ele>1743.97</ele>
        <time>2022-02-23T10:25:10Z</time>
      </trkpt>
      <trkpt lat="45.28658" lon="5.78217">
        <ele>1743.49</ele>
        <time>2022-02-23T10:25:11Z</time>
      </trkpt>
      <trkpt lat="45.28659" lon="5.78209">
        <ele>1740.12</ele>
        <time>2022-02-23T10:25:14Z</time>
      </trkpt>
      <trkpt lat="45.28657" lon="5.78207">
        <ele>1739.16</ele>
        <time>2022-02-23T10:25:15Z</time>
      </trkpt>
      <trkpt lat="45.28655" lon="5.78205">
        <ele>1740.6</ele>
        <time>2022-02-23T10:25:16Z</time>
      </trkpt>
      <trkpt lat="45.28653" lon="5.78203">
        <ele>1737.72</ele>
        <time>2022-02-23T10:25:17Z</time>
      </trkpt>
      <trkpt lat="45.28657" lon="5.78199">
        <ele>1734.84</ele>
        <time>2022-02-23T10:25:19Z</time>
      </trkpt>
      <trkpt lat="45.28661" lon="5.78198">
        <ele>1734.36</ele>
        <time>2022-02-23T10:25:20Z</time>
      </trkpt>
      <trkpt lat="45.28668" lon="5.78196">
        <ele>1733.39</ele>
        <time>2022-02-23T10:25:22Z</time>
      </trkpt>
      <trkpt lat="45.28688" lon="5.78185">
        <ele>1729.55</ele>
        <time>2022-02-23T10:25:28Z</time>
      </trkpt>
      <trkpt lat="45.28696" lon="5.78181">
        <ele>1729.55</ele>
        <time>2022-02-23T10:25:40Z</time>
      </trkpt>
      <trkpt lat="45.28695" lon="5.78182">
        <ele>1729.07</ele>
        <time>2022-02-23T10:25:46Z</time>
      </trkpt>
      <trkpt lat="45.28697" lon="5.7818">
        <ele>1729.07</ele>
        <time>2022-02-23T10:25:47Z</time>
      </trkpt>
      <trkpt lat="45.287" lon="5.78175">
        <ele>1728.11</ele>
        <time>2022-02-23T10:25:49Z</time>
      </trkpt>
      <trkpt lat="45.28698" lon="5.78172">
        <ele>1726.67</ele>
        <time>2022-02-23T10:25:50Z</time>
      </trkpt>
      <trkpt lat="45.28691" lon="5.78172">
        <ele>1724.74</ele>
        <time>2022-02-23T10:25:52Z</time>
      </trkpt>
      <trkpt lat="45.28688" lon="5.78173">
        <ele>1724.74</ele>
        <time>2022-02-23T10:25:53Z</time>
      </trkpt>
      <trkpt lat="45.28679" lon="5.78165">
        <ele>1722.34</ele>
        <time>2022-02-23T10:25:56Z</time>
      </trkpt>
      <trkpt lat="45.28674" lon="5.78163">
        <ele>1718.97</ele>
        <time>2022-02-23T10:25:57Z</time>
      </trkpt>
      <trkpt lat="45.2867" lon="5.78161">
        <ele>1718.49</ele>
        <time>2022-02-23T10:25:58Z</time>
      </trkpt>
      <trkpt lat="45.28669" lon="5.78161">
        <ele>1718.49</ele>
        <time>2022-02-23T10:25:59Z</time>
      </trkpt>
      <trkpt lat="45.2866" lon="5.78159">
        <ele>1717.05</ele>
        <time>2022-02-23T10:26:04Z</time>
      </trkpt>
      <trkpt lat="45.28662" lon="5.78157">
        <ele>1713.69</ele>
        <time>2022-02-23T10:26:06Z</time>
      </trkpt>
      <trkpt lat="45.28664" lon="5.78156">
        <ele>1713.69</ele>
        <time>2022-02-23T10:26:07Z</time>
      </trkpt>
      <trkpt lat="45.28667" lon="5.78148">
        <ele>1710.8</ele>
        <time>2022-02-23T10:26:10Z</time>
      </trkpt>
      <trkpt lat="45.28664" lon="5.78146">
        <ele>1709.84</ele>
        <time>2022-02-23T10:26:11Z</time>
      </trkpt>
      <trkpt lat="45.28661" lon="5.78145">
        <ele>1709.36</ele>
        <time>2022-02-23T10:26:12Z</time>
      </trkpt>
      <trkpt lat="45.28659" lon="5.78144">
        <ele>1709.36</ele>
        <time>2022-02-23T10:26:13Z</time>
      </trkpt>
      <trkpt lat="45.28647" lon="5.78138">
        <ele>1706.48</ele>
        <time>2022-02-23T10:26:18Z</time>
      </trkpt>
      <trkpt lat="45.28645" lon="5.78136">
        <ele>1706</ele>
        <time>2022-02-23T10:26:19Z</time>
      </trkpt>
      <trkpt lat="45.28648" lon="5.78132">
        <ele>1703.11</ele>
        <time>2022-02-23T10:26:21Z</time>
      </trkpt>
      <trkpt lat="45.28656" lon="5.78131">
        <ele>1701.19</ele>
        <time>2022-02-23T10:26:24Z</time>
      </trkpt>
      <trkpt lat="45.28658" lon="5.78128">
        <ele>1700.23</ele>
        <time>2022-02-23T10:26:25Z</time>
      </trkpt>
      <trkpt lat="45.28657" lon="5.78125">
        <ele>1700.23</ele>
        <time>2022-02-23T10:26:26Z</time>
      </trkpt>
      <trkpt lat="45.28656" lon="5.78123">
        <ele>1698.31</ele>
        <time>2022-02-23T10:26:27Z</time>
      </trkpt>
      <trkpt lat="45.28655" lon="5.78119">
        <ele>1696.38</ele>
        <time>2022-02-23T10:26:28Z</time>
      </trkpt>
      <trkpt lat="45.28655" lon="5.78116">
        <ele>1695.42</ele>
        <time>2022-02-23T10:26:29Z</time>
      </trkpt>
      <trkpt lat="45.28656" lon="5.78114">
        <ele>1694.46</ele>
        <time>2022-02-23T10:26:30Z</time>
      </trkpt>
      <trkpt lat="45.28659" lon="5.78112">
        <ele>1694.46</ele>
        <time>2022-02-23T10:26:31Z</time>
      </trkpt>
      <trkpt lat="45.28661" lon="5.78111">
        <ele>1693.98</ele>
        <time>2022-02-23T10:26:32Z</time>
      </trkpt>
      <trkpt lat="45.28664" lon="5.78109">
        <ele>1693.02</ele>
        <time>2022-02-23T10:26:33Z</time>
      </trkpt>
      <trkpt lat="45.28667" lon="5.78108">
        <ele>1693.02</ele>
        <time>2022-02-23T10:26:34Z</time>
      </trkpt>
      <trkpt lat="45.28687" lon="5.78096">
        <ele>1688.69</ele>
        <time>2022-02-23T10:26:42Z</time>
      </trkpt>
      <trkpt lat="45.28696" lon="5.78086">
        <ele>1686.29</ele>
        <time>2022-02-23T10:26:45Z</time>
      </trkpt>
      <trkpt lat="45.28702" lon="5.7808">
        <ele>1686.77</ele>
        <time>2022-02-23T10:26:54Z</time>
      </trkpt>
      <trkpt lat="45.28702" lon="5.7808">
        <ele>1686.29</ele>
        <time>2022-02-23T10:27:20Z</time>
      </trkpt>
      <trkpt lat="45.28702" lon="5.7808">
        <ele>1685.81</ele>
        <time>2022-02-23T10:27:22Z</time>
      </trkpt>
      <trkpt lat="45.28696" lon="5.78076">
        <ele>1682.93</ele>
        <time>2022-02-23T10:27:26Z</time>
      </trkpt>
      <trkpt lat="45.28692" lon="5.78077">
        <ele>1682.93</ele>
        <time>2022-02-23T10:27:27Z</time>
      </trkpt>
      <trkpt lat="45.28688" lon="5.78079">
        <ele>1681.96</ele>
        <time>2022-02-23T10:27:28Z</time>
      </trkpt>
      <trkpt lat="45.28684" lon="5.78079">
        <ele>1681</ele>
        <time>2022-02-23T10:27:29Z</time>
      </trkpt>
      <trkpt lat="45.2868" lon="5.7808">
        <ele>1680.52</ele>
        <time>2022-02-23T10:27:30Z</time>
      </trkpt>
      <trkpt lat="45.28668" lon="5.78082">
        <ele>1680.04</ele>
        <time>2022-02-23T10:27:39Z</time>
      </trkpt>
      <trkpt lat="45.28669" lon="5.78081">
        <ele>1679.56</ele>
        <time>2022-02-23T10:27:46Z</time>
      </trkpt>
      <trkpt lat="45.28668" lon="5.78081">
        <ele>1679.56</ele>
        <time>2022-02-23T10:27:47Z</time>
      </trkpt>
      <trkpt lat="45.28652" lon="5.78082">
        <ele>1676.68</ele>
        <time>2022-02-23T10:27:54Z</time>
      </trkpt>
      <trkpt lat="45.28655" lon="5.78075">
        <ele>1674.75</ele>
        <time>2022-02-23T10:27:56Z</time>
      </trkpt>
      <trkpt lat="45.28657" lon="5.78072">
        <ele>1673.79</ele>
        <time>2022-02-23T10:27:57Z</time>
      </trkpt>
      <trkpt lat="45.2866" lon="5.7807">
        <ele>1673.79</ele>
        <time>2022-02-23T10:27:58Z</time>
      </trkpt>
      <trkpt lat="45.28662" lon="5.78068">
        <ele>1672.83</ele>
        <time>2022-02-23T10:27:59Z</time>
      </trkpt>
      <trkpt lat="45.28669" lon="5.78065">
        <ele>1671.87</ele>
        <time>2022-02-23T10:28:01Z</time>
      </trkpt>
      <trkpt lat="45.28676" lon="5.78059">
        <ele>1671.39</ele>
        <time>2022-02-23T10:28:04Z</time>
      </trkpt>
      <trkpt lat="45.28675" lon="5.78057">
        <ele>1668.99</ele>
        <time>2022-02-23T10:28:05Z</time>
      </trkpt>
      <trkpt lat="45.28672" lon="5.78056">
        <ele>1668.02</ele>
        <time>2022-02-23T10:28:06Z</time>
      </trkpt>
      <trkpt lat="45.28665" lon="5.78056">
        <ele>1666.58</ele>
        <time>2022-02-23T10:28:08Z</time>
      </trkpt>
      <trkpt lat="45.28631" lon="5.78055">
        <ele>1663.22</ele>
        <time>2022-02-23T10:28:21Z</time>
      </trkpt>
      <trkpt lat="45.28628" lon="5.78054">
        <ele>1662.74</ele>
        <time>2022-02-23T10:28:24Z</time>
      </trkpt>
      <trkpt lat="45.28631" lon="5.78049">
        <ele>1659.85</ele>
        <time>2022-02-23T10:28:28Z</time>
      </trkpt>
      <trkpt lat="45.28633" lon="5.78047">
        <ele>1657.93</ele>
        <time>2022-02-23T10:28:31Z</time>
      </trkpt>
      <trkpt lat="45.28636" lon="5.78043">
        <ele>1656.01</ele>
        <time>2022-02-23T10:28:36Z</time>
      </trkpt>
      <trkpt lat="45.28637" lon="5.78042">
        <ele>1655.53</ele>
        <time>2022-02-23T10:28:39Z</time>
      </trkpt>
      <trkpt lat="45.28641" lon="5.78036">
        <ele>1653.6</ele>
        <time>2022-02-23T10:28:42Z</time>
      </trkpt>
      <trkpt lat="45.28655" lon="5.78026">
        <ele>1650.72</ele>
        <time>2022-02-23T10:28:48Z</time>
      </trkpt>
      <trkpt lat="45.28673" lon="5.78013">
        <ele>1648.8</ele>
        <time>2022-02-23T10:28:57Z</time>
      </trkpt>
      <trkpt lat="45.28675" lon="5.78011">
        <ele>1647.84</ele>
        <time>2022-02-23T10:28:58Z</time>
      </trkpt>
      <trkpt lat="45.28676" lon="5.78009">
        <ele>1646.4</ele>
        <time>2022-02-23T10:28:59Z</time>
      </trkpt>
      <trkpt lat="45.28686" lon="5.77995">
        <ele>1643.03</ele>
        <time>2022-02-23T10:29:04Z</time>
      </trkpt>
      <trkpt lat="45.28686" lon="5.77993">
        <ele>1642.55</ele>
        <time>2022-02-23T10:29:06Z</time>
      </trkpt>
      <trkpt lat="45.28678" lon="5.77989">
        <ele>1638.7</ele>
        <time>2022-02-23T10:29:09Z</time>
      </trkpt>
      <trkpt lat="45.28674" lon="5.7799">
        <ele>1638.22</ele>
        <time>2022-02-23T10:29:11Z</time>
      </trkpt>
      <trkpt lat="45.28674" lon="5.77983">
        <ele>1634.86</ele>
        <time>2022-02-23T10:29:15Z</time>
      </trkpt>
      <trkpt lat="45.28676" lon="5.77981">
        <ele>1633.42</ele>
        <time>2022-02-23T10:29:16Z</time>
      </trkpt>
      <trkpt lat="45.28669" lon="5.77977">
        <ele>1629.57</ele>
        <time>2022-02-23T10:29:20Z</time>
      </trkpt>
      <trkpt lat="45.28666" lon="5.77977">
        <ele>1629.57</ele>
        <time>2022-02-23T10:29:21Z</time>
      </trkpt>
      <trkpt lat="45.28656" lon="5.77976">
        <ele>1628.61</ele>
        <time>2022-02-23T10:29:25Z</time>
      </trkpt>
      <trkpt lat="45.28647" lon="5.77972">
        <ele>1626.21</ele>
        <time>2022-02-23T10:29:28Z</time>
      </trkpt>
      <trkpt lat="45.28644" lon="5.77972">
        <ele>1626.21</ele>
        <time>2022-02-23T10:29:29Z</time>
      </trkpt>
      <trkpt lat="45.2863" lon="5.77973">
        <ele>1624.28</ele>
        <time>2022-02-23T10:29:38Z</time>
      </trkpt>
      <trkpt lat="45.2863" lon="5.77963">
        <ele>1620.44</ele>
        <time>2022-02-23T10:29:41Z</time>
      </trkpt>
      <trkpt lat="45.2863" lon="5.77958">
        <ele>1620.44</ele>
        <time>2022-02-23T10:29:42Z</time>
      </trkpt>
      <trkpt lat="45.28635" lon="5.77946">
        <ele>1618.04</ele>
        <time>2022-02-23T10:29:46Z</time>
      </trkpt>
      <trkpt lat="45.28639" lon="5.77951">
        <ele>1618.04</ele>
        <time>2022-02-23T10:29:52Z</time>
      </trkpt>
      <trkpt lat="45.28646" lon="5.77945">
        <ele>1615.63</ele>
        <time>2022-02-23T10:29:56Z</time>
      </trkpt>
      <trkpt lat="45.28651" lon="5.77943">
        <ele>1614.19</ele>
        <time>2022-02-23T10:29:58Z</time>
      </trkpt>
      <trkpt lat="45.28648" lon="5.77932">
        <ele>1609.38</ele>
        <time>2022-02-23T10:30:04Z</time>
      </trkpt>
      <trkpt lat="45.2865" lon="5.77931">
        <ele>1609.86</ele>
        <time>2022-02-23T10:30:11Z</time>
      </trkpt>
      <trkpt lat="45.28647" lon="5.7793">
        <ele>1608.9</ele>
        <time>2022-02-23T10:30:15Z</time>
      </trkpt>
      <trkpt lat="45.28643" lon="5.77922">
        <ele>1605.06</ele>
        <time>2022-02-23T10:30:19Z</time>
      </trkpt>
      <trkpt lat="45.28641" lon="5.77922">
        <ele>1605.06</ele>
        <time>2022-02-23T10:30:20Z</time>
      </trkpt>
      <trkpt lat="45.28641" lon="5.77922">
        <ele>1605.06</ele>
        <time>2022-02-23T10:30:21Z</time>
      </trkpt>
      <trkpt lat="45.28637" lon="5.77919">
        <ele>1603.62</ele>
        <time>2022-02-23T10:30:24Z</time>
      </trkpt>
      <trkpt lat="45.28636" lon="5.77919">
        <ele>1603.62</ele>
        <time>2022-02-23T10:30:25Z</time>
      </trkpt>
      <trkpt lat="45.28632" lon="5.77914">
        <ele>1601.69</ele>
        <time>2022-02-23T10:30:28Z</time>
      </trkpt>
      <trkpt lat="45.28633" lon="5.77912">
        <ele>1599.29</ele>
        <time>2022-02-23T10:30:40Z</time>
      </trkpt>
      <trkpt lat="45.28635" lon="5.77913">
        <ele>1599.29</ele>
        <time>2022-02-23T10:30:59Z</time>
      </trkpt>
      <trkpt lat="45.28638" lon="5.77911">
        <ele>1599.77</ele>
        <time>2022-02-23T10:31:16Z</time>
      </trkpt>
      <trkpt lat="45.28637" lon="5.77911">
        <ele>1598.81</ele>
        <time>2022-02-23T10:31:26Z</time>
      </trkpt>
      <trkpt lat="45.28637" lon="5.77911">
        <ele>1598.81</ele>
        <time>2022-02-23T10:31:27Z</time>
      </trkpt>
      <trkpt lat="45.2864" lon="5.77908">
        <ele>1597.85</ele>
        <time>2022-02-23T10:31:29Z</time>
      </trkpt>
      <trkpt lat="45.28643" lon="5.77906">
        <ele>1596.41</ele>
        <time>2022-02-23T10:31:30Z</time>
      </trkpt>
      <trkpt lat="45.28644" lon="5.77906">
        <ele>1596.41</ele>
        <time>2022-02-23T10:31:31Z</time>
      </trkpt>
      <trkpt lat="45.28644" lon="5.77904">
        <ele>1595.45</ele>
        <time>2022-02-23T10:31:33Z</time>
      </trkpt>
      <trkpt lat="45.28644" lon="5.77901">
        <ele>1594</ele>
        <time>2022-02-23T10:31:34Z</time>
      </trkpt>
      <trkpt lat="45.28644" lon="5.77899">
        <ele>1594</ele>
        <time>2022-02-23T10:31:35Z</time>
      </trkpt>
      <trkpt lat="45.2864" lon="5.77895">
        <ele>1591.12</ele>
        <time>2022-02-23T10:31:46Z</time>
      </trkpt>
      <trkpt lat="45.28638" lon="5.77894">
        <ele>1590.16</ele>
        <time>2022-02-23T10:31:49Z</time>
      </trkpt>
      <trkpt lat="45.28636" lon="5.77892">
        <ele>1589.68</ele>
        <time>2022-02-23T10:31:50Z</time>
      </trkpt>
      <trkpt lat="45.28634" lon="5.77892">
        <ele>1588.24</ele>
        <time>2022-02-23T10:31:51Z</time>
      </trkpt>
      <trkpt lat="45.28633" lon="5.77892">
        <ele>1588.24</ele>
        <time>2022-02-23T10:31:52Z</time>
      </trkpt>
      <trkpt lat="45.28634" lon="5.77888">
        <ele>1587.75</ele>
        <time>2022-02-23T10:32:01Z</time>
      </trkpt>
      <trkpt lat="45.28632" lon="5.77887">
        <ele>1586.79</ele>
        <time>2022-02-23T10:32:11Z</time>
      </trkpt>
      <trkpt lat="45.28635" lon="5.77887">
        <ele>1586.79</ele>
        <time>2022-02-23T10:32:17Z</time>
      </trkpt>
      <trkpt lat="45.28635" lon="5.77881">
        <ele>1584.87</ele>
        <time>2022-02-23T10:32:28Z</time>
      </trkpt>
      <trkpt lat="45.28635" lon="5.77878">
        <ele>1583.43</ele>
        <time>2022-02-23T10:32:29Z</time>
      </trkpt>
      <trkpt lat="45.28634" lon="5.77876">
        <ele>1582.47</ele>
        <time>2022-02-23T10:32:30Z</time>
      </trkpt>
      <trkpt lat="45.28634" lon="5.77875">
        <ele>1582.47</ele>
        <time>2022-02-23T10:32:31Z</time>
      </trkpt>
      <trkpt lat="45.28635" lon="5.77874">
        <ele>1581.99</ele>
        <time>2022-02-23T10:32:33Z</time>
      </trkpt>
      <trkpt lat="45.28635" lon="5.77873">
        <ele>1580.54</ele>
        <time>2022-02-23T10:32:34Z</time>
      </trkpt>
      <trkpt lat="45.28637" lon="5.77872">
        <ele>1580.06</ele>
        <time>2022-02-23T10:32:47Z</time>
      </trkpt>
      <trkpt lat="45.28636" lon="5.77872">
        <ele>1579.1</ele>
        <time>2022-02-23T10:33:09Z</time>
      </trkpt>
      <trkpt lat="45.28636" lon="5.77871">
        <ele>1579.1</ele>
        <time>2022-02-23T10:33:11Z</time>
      </trkpt>
      <trkpt lat="45.28635" lon="5.77868">
        <ele>1578.14</ele>
        <time>2022-02-23T10:33:12Z</time>
      </trkpt>
      <trkpt lat="45.28634" lon="5.77867">
        <ele>1577.18</ele>
        <time>2022-02-23T10:33:13Z</time>
      </trkpt>
      <trkpt lat="45.28633" lon="5.77867">
        <ele>1577.18</ele>
        <time>2022-02-23T10:33:14Z</time>
      </trkpt>
      <trkpt lat="45.2863" lon="5.77862">
        <ele>1575.74</ele>
        <time>2022-02-23T10:33:25Z</time>
      </trkpt>
      <trkpt lat="45.28628" lon="5.77862">
        <ele>1575.26</ele>
        <time>2022-02-23T10:33:26Z</time>
      </trkpt>
      <trkpt lat="45.28626" lon="5.77861">
        <ele>1575.26</ele>
        <time>2022-02-23T10:33:27Z</time>
      </trkpt>
      <trkpt lat="45.28617" lon="5.7786">
        <ele>1572.85</ele>
        <time>2022-02-23T10:33:34Z</time>
      </trkpt>
      <trkpt lat="45.28618" lon="5.77857">
        <ele>1571.41</ele>
        <time>2022-02-23T10:33:38Z</time>
      </trkpt>
      <trkpt lat="45.28618" lon="5.77855">
        <ele>1570.45</ele>
        <time>2022-02-23T10:33:40Z</time>
      </trkpt>
      <trkpt lat="45.28619" lon="5.77852">
        <ele>1569.01</ele>
        <time>2022-02-23T10:33:42Z</time>
      </trkpt>
      <trkpt lat="45.28623" lon="5.77851">
        <ele>1567.57</ele>
        <time>2022-02-23T10:33:44Z</time>
      </trkpt>
      <trkpt lat="45.28623" lon="5.7785">
        <ele>1567.57</ele>
        <time>2022-02-23T10:33:45Z</time>
      </trkpt>
      <trkpt lat="45.28625" lon="5.77844">
        <ele>1565.16</ele>
        <time>2022-02-23T10:33:47Z</time>
      </trkpt>
      <trkpt lat="45.28623" lon="5.7784">
        <ele>1564.2</ele>
        <time>2022-02-23T10:33:48Z</time>
      </trkpt>
      <trkpt lat="45.28621" lon="5.77838">
        <ele>1564.2</ele>
        <time>2022-02-23T10:33:49Z</time>
      </trkpt>
      <trkpt lat="45.28619" lon="5.77835">
        <ele>1562.28</ele>
        <time>2022-02-23T10:33:50Z</time>
      </trkpt>
      <trkpt lat="45.28619" lon="5.77831">
        <ele>1561.8</ele>
        <time>2022-02-23T10:33:51Z</time>
      </trkpt>
      <trkpt lat="45.28617" lon="5.77825">
        <ele>1560.36</ele>
        <time>2022-02-23T10:33:54Z</time>
      </trkpt>
      <trkpt lat="45.28615" lon="5.77821">
        <ele>1558.92</ele>
        <time>2022-02-23T10:33:55Z</time>
      </trkpt>
      <trkpt lat="45.28611" lon="5.77819">
        <ele>1556.51</ele>
        <time>2022-02-23T10:33:56Z</time>
      </trkpt>
      <trkpt lat="45.2861" lon="5.77811">
        <ele>1554.11</ele>
        <time>2022-02-23T10:34:01Z</time>
      </trkpt>
      <trkpt lat="45.28611" lon="5.7781">
        <ele>1554.11</ele>
        <time>2022-02-23T10:34:02Z</time>
      </trkpt>
      <trkpt lat="45.28614" lon="5.77809">
        <ele>1553.15</ele>
        <time>2022-02-23T10:34:05Z</time>
      </trkpt>
      <trkpt lat="45.28618" lon="5.77808">
        <ele>1552.19</ele>
        <time>2022-02-23T10:34:07Z</time>
      </trkpt>
      <trkpt lat="45.28627" lon="5.77812">
        <ele>1551.22</ele>
        <time>2022-02-23T10:34:20Z</time>
      </trkpt>
      <trkpt lat="45.2863" lon="5.77809">
        <ele>1549.3</ele>
        <time>2022-02-23T10:34:35Z</time>
      </trkpt>
      <trkpt lat="45.28628" lon="5.77799">
        <ele>1547.38</ele>
        <time>2022-02-23T10:34:42Z</time>
      </trkpt>
      <trkpt lat="45.28628" lon="5.77798">
        <ele>1547.38</ele>
        <time>2022-02-23T10:34:45Z</time>
      </trkpt>
      <trkpt lat="45.28621" lon="5.77789">
        <ele>1544.01</ele>
        <time>2022-02-23T10:34:49Z</time>
      </trkpt>
      <trkpt lat="45.28619" lon="5.77789">
        <ele>1543.05</ele>
        <time>2022-02-23T10:34:51Z</time>
      </trkpt>
      <trkpt lat="45.28613" lon="5.77779">
        <ele>1541.13</ele>
        <time>2022-02-23T10:34:56Z</time>
      </trkpt>
      <trkpt lat="45.28612" lon="5.77772">
        <ele>1537.77</ele>
        <time>2022-02-23T10:34:59Z</time>
      </trkpt>
      <trkpt lat="45.28608" lon="5.77763">
        <ele>1535.84</ele>
        <time>2022-02-23T10:35:02Z</time>
      </trkpt>
      <trkpt lat="45.28608" lon="5.77751">
        <ele>1529.59</ele>
        <time>2022-02-23T10:35:06Z</time>
      </trkpt>
      <trkpt lat="45.28606" lon="5.77746">
        <ele>1527.19</ele>
        <time>2022-02-23T10:35:14Z</time>
      </trkpt>
      <trkpt lat="45.28606" lon="5.77748">
        <ele>1526.71</ele>
        <time>2022-02-23T10:35:18Z</time>
      </trkpt>
      <trkpt lat="45.28608" lon="5.77741">
        <ele>1524.31</ele>
        <time>2022-02-23T10:35:22Z</time>
      </trkpt>
      <trkpt lat="45.28613" lon="5.77736">
        <ele>1520.94</ele>
        <time>2022-02-23T10:35:26Z</time>
      </trkpt>
      <trkpt lat="45.28614" lon="5.77737">
        <ele>1520.94</ele>
        <time>2022-02-23T10:35:27Z</time>
      </trkpt>
      <trkpt lat="45.28616" lon="5.77736">
        <ele>1521.42</ele>
        <time>2022-02-23T10:35:28Z</time>
      </trkpt>
      <trkpt lat="45.28618" lon="5.77736">
        <ele>1519.98</ele>
        <time>2022-02-23T10:35:29Z</time>
      </trkpt>
      <trkpt lat="45.2862" lon="5.77735">
        <ele>1519.98</ele>
        <time>2022-02-23T10:35:30Z</time>
      </trkpt>
      <trkpt lat="45.28622" lon="5.77733">
        <ele>1519.02</ele>
        <time>2022-02-23T10:35:32Z</time>
      </trkpt>
      <trkpt lat="45.28623" lon="5.7773">
        <ele>1518.06</ele>
        <time>2022-02-23T10:35:33Z</time>
      </trkpt>
      <trkpt lat="45.28623" lon="5.77725">
        <ele>1518.06</ele>
        <time>2022-02-23T10:35:45Z</time>
      </trkpt>
      <trkpt lat="45.28622" lon="5.77721">
        <ele>1518.06</ele>
        <time>2022-02-23T10:36:00Z</time>
      </trkpt>
      <trkpt lat="45.28621" lon="5.77719">
        <ele>1515.66</ele>
        <time>2022-02-23T10:36:01Z</time>
      </trkpt>
      <trkpt lat="45.2862" lon="5.77717">
        <ele>1515.66</ele>
        <time>2022-02-23T10:36:02Z</time>
      </trkpt>
      <trkpt lat="45.28619" lon="5.77715">
        <ele>1515.66</ele>
        <time>2022-02-23T10:36:03Z</time>
      </trkpt>
      <trkpt lat="45.2862" lon="5.77712">
        <ele>1514.21</ele>
        <time>2022-02-23T10:36:04Z</time>
      </trkpt>
      <trkpt lat="45.28622" lon="5.7771">
        <ele>1514.21</ele>
        <time>2022-02-23T10:36:05Z</time>
      </trkpt>
      <trkpt lat="45.28626" lon="5.77709">
        <ele>1512.77</ele>
        <time>2022-02-23T10:36:06Z</time>
      </trkpt>
      <trkpt lat="45.28629" lon="5.77708">
        <ele>1511.33</ele>
        <time>2022-02-23T10:36:07Z</time>
      </trkpt>
      <trkpt lat="45.28632" lon="5.77707">
        <ele>1511.33</ele>
        <time>2022-02-23T10:36:08Z</time>
      </trkpt>
      <trkpt lat="45.28634" lon="5.77704">
        <ele>1510.85</ele>
        <time>2022-02-23T10:36:09Z</time>
      </trkpt>
      <trkpt lat="45.28633" lon="5.777">
        <ele>1508.45</ele>
        <time>2022-02-23T10:36:10Z</time>
      </trkpt>
      <trkpt lat="45.28631" lon="5.77696">
        <ele>1508.45</ele>
        <time>2022-02-23T10:36:11Z</time>
      </trkpt>
      <trkpt lat="45.28628" lon="5.77694">
        <ele>1508.45</ele>
        <time>2022-02-23T10:36:12Z</time>
      </trkpt>
      <trkpt lat="45.28625" lon="5.77694">
        <ele>1507.97</ele>
        <time>2022-02-23T10:36:13Z</time>
      </trkpt>
      <trkpt lat="45.28623" lon="5.77693">
        <ele>1507.97</ele>
        <time>2022-02-23T10:36:14Z</time>
      </trkpt>
      <trkpt lat="45.28622" lon="5.7769">
        <ele>1507.97</ele>
        <time>2022-02-23T10:36:15Z</time>
      </trkpt>
      <trkpt lat="45.28623" lon="5.77684">
        <ele>1505.08</ele>
        <time>2022-02-23T10:36:17Z</time>
      </trkpt>
      <trkpt lat="45.28624" lon="5.77683">
        <ele>1505.08</ele>
        <time>2022-02-23T10:36:18Z</time>
      </trkpt>
      <trkpt lat="45.28626" lon="5.77682">
        <ele>1504.12</ele>
        <time>2022-02-23T10:36:19Z</time>
      </trkpt>
      <trkpt lat="45.28631" lon="5.77685">
        <ele>1503.16</ele>
        <time>2022-02-23T10:36:21Z</time>
      </trkpt>
      <trkpt lat="45.28637" lon="5.77685">
        <ele>1502.2</ele>
        <time>2022-02-23T10:36:23Z</time>
      </trkpt>
      <trkpt lat="45.2864" lon="5.77681">
        <ele>1502.68</ele>
        <time>2022-02-23T10:36:24Z</time>
      </trkpt>
      <trkpt lat="45.2864" lon="5.77676">
        <ele>1500.27</ele>
        <time>2022-02-23T10:36:25Z</time>
      </trkpt>
      <trkpt lat="45.28637" lon="5.77673">
        <ele>1499.79</ele>
        <time>2022-02-23T10:36:26Z</time>
      </trkpt>
      <trkpt lat="45.28633" lon="5.77671">
        <ele>1498.83</ele>
        <time>2022-02-23T10:36:27Z</time>
      </trkpt>
      <trkpt lat="45.2863" lon="5.7767">
        <ele>1498.83</ele>
        <time>2022-02-23T10:36:28Z</time>
      </trkpt>
      <trkpt lat="45.28624" lon="5.77665">
        <ele>1498.83</ele>
        <time>2022-02-23T10:36:31Z</time>
      </trkpt>
      <trkpt lat="45.28624" lon="5.77662">
        <ele>1495.47</ele>
        <time>2022-02-23T10:36:33Z</time>
      </trkpt>
      <trkpt lat="45.28626" lon="5.77662">
        <ele>1495.47</ele>
        <time>2022-02-23T10:36:34Z</time>
      </trkpt>
      <trkpt lat="45.28629" lon="5.77663">
        <ele>1494.51</ele>
        <time>2022-02-23T10:36:35Z</time>
      </trkpt>
      <trkpt lat="45.28642" lon="5.77659">
        <ele>1491.14</ele>
        <time>2022-02-23T10:36:40Z</time>
      </trkpt>
      <trkpt lat="45.28643" lon="5.77647">
        <ele>1487.78</ele>
        <time>2022-02-23T10:36:43Z</time>
      </trkpt>
      <trkpt lat="45.28641" lon="5.77644">
        <ele>1486.82</ele>
        <time>2022-02-23T10:36:44Z</time>
      </trkpt>
      <trkpt lat="45.28637" lon="5.7764">
        <ele>1487.3</ele>
        <time>2022-02-23T10:36:46Z</time>
      </trkpt>
      <trkpt lat="45.28636" lon="5.77637">
        <ele>1486.82</ele>
        <time>2022-02-23T10:36:47Z</time>
      </trkpt>
      <trkpt lat="45.28636" lon="5.77633">
        <ele>1483.93</ele>
        <time>2022-02-23T10:36:49Z</time>
      </trkpt>
      <trkpt lat="45.28638" lon="5.77634">
        <ele>1482.49</ele>
        <time>2022-02-23T10:36:50Z</time>
      </trkpt>
      <trkpt lat="45.28641" lon="5.77634">
        <ele>1481.53</ele>
        <time>2022-02-23T10:36:51Z</time>
      </trkpt>
      <trkpt lat="45.28643" lon="5.77634">
        <ele>1481.05</ele>
        <time>2022-02-23T10:36:52Z</time>
      </trkpt>
      <trkpt lat="45.28645" lon="5.77634">
        <ele>1480.57</ele>
        <time>2022-02-23T10:36:53Z</time>
      </trkpt>
      <trkpt lat="45.28648" lon="5.77632">
        <ele>1481.05</ele>
        <time>2022-02-23T10:36:54Z</time>
      </trkpt>
      <trkpt lat="45.28649" lon="5.77627">
        <ele>1479.13</ele>
        <time>2022-02-23T10:36:55Z</time>
      </trkpt>
      <trkpt lat="45.2865" lon="5.77621">
        <ele>1477.68</ele>
        <time>2022-02-23T10:36:56Z</time>
      </trkpt>
      <trkpt lat="45.28648" lon="5.77616">
        <ele>1476.72</ele>
        <time>2022-02-23T10:36:57Z</time>
      </trkpt>
      <trkpt lat="45.28644" lon="5.77611">
        <ele>1475.76</ele>
        <time>2022-02-23T10:36:58Z</time>
      </trkpt>
      <trkpt lat="45.28639" lon="5.77606">
        <ele>1475.28</ele>
        <time>2022-02-23T10:36:59Z</time>
      </trkpt>
      <trkpt lat="45.28626" lon="5.77594">
        <ele>1473.36</ele>
        <time>2022-02-23T10:37:02Z</time>
      </trkpt>
      <trkpt lat="45.28612" lon="5.7757">
        <ele>1471.44</ele>
        <time>2022-02-23T10:37:09Z</time>
      </trkpt>
      <trkpt lat="45.28595" lon="5.77542">
        <ele>1467.11</ele>
        <time>2022-02-23T10:37:18Z</time>
      </trkpt>
      <trkpt lat="45.28594" lon="5.77539">
        <ele>1467.59</ele>
        <time>2022-02-23T10:37:19Z</time>
      </trkpt>
      <trkpt lat="45.28595" lon="5.77537">
        <ele>1466.15</ele>
        <time>2022-02-23T10:37:20Z</time>
      </trkpt>
      <trkpt lat="45.28598" lon="5.77537">
        <ele>1464.71</ele>
        <time>2022-02-23T10:37:21Z</time>
      </trkpt>
      <trkpt lat="45.28601" lon="5.77539">
        <ele>1464.23</ele>
        <time>2022-02-23T10:37:22Z</time>
      </trkpt>
      <trkpt lat="45.28605" lon="5.77539">
        <ele>1464.23</ele>
        <time>2022-02-23T10:37:23Z</time>
      </trkpt>
      <trkpt lat="45.28608" lon="5.77536">
        <ele>1462.3</ele>
        <time>2022-02-23T10:37:24Z</time>
      </trkpt>
      <trkpt lat="45.2861" lon="5.77531">
        <ele>1460.38</ele>
        <time>2022-02-23T10:37:25Z</time>
      </trkpt>
      <trkpt lat="45.28609" lon="5.77527">
        <ele>1460.38</ele>
        <time>2022-02-23T10:37:26Z</time>
      </trkpt>
      <trkpt lat="45.28608" lon="5.77522">
        <ele>1459.9</ele>
        <time>2022-02-23T10:37:27Z</time>
      </trkpt>
      <trkpt lat="45.28608" lon="5.77519">
        <ele>1458.46</ele>
        <time>2022-02-23T10:37:28Z</time>
      </trkpt>
      <trkpt lat="45.28609" lon="5.77519">
        <ele>1456.53</ele>
        <time>2022-02-23T10:37:29Z</time>
      </trkpt>
      <trkpt lat="45.28615" lon="5.77522">
        <ele>1455.57</ele>
        <time>2022-02-23T10:37:31Z</time>
      </trkpt>
      <trkpt lat="45.2862" lon="5.77522">
        <ele>1454.13</ele>
        <time>2022-02-23T10:37:33Z</time>
      </trkpt>
      <trkpt lat="45.28622" lon="5.77518">
        <ele>1451.73</ele>
        <time>2022-02-23T10:37:34Z</time>
      </trkpt>
      <trkpt lat="45.28621" lon="5.77511">
        <ele>1452.21</ele>
        <time>2022-02-23T10:37:35Z</time>
      </trkpt>
      <trkpt lat="45.28619" lon="5.77506">
        <ele>1450.77</ele>
        <time>2022-02-23T10:37:36Z</time>
      </trkpt>
      <trkpt lat="45.28616" lon="5.77501">
        <ele>1450.77</ele>
        <time>2022-02-23T10:37:37Z</time>
      </trkpt>
      <trkpt lat="45.28614" lon="5.77497">
        <ele>1448.84</ele>
        <time>2022-02-23T10:37:38Z</time>
      </trkpt>
      <trkpt lat="45.28614" lon="5.77493">
        <ele>1448.36</ele>
        <time>2022-02-23T10:37:39Z</time>
      </trkpt>
      <trkpt lat="45.28616" lon="5.77491">
        <ele>1446.92</ele>
        <time>2022-02-23T10:37:40Z</time>
      </trkpt>
      <trkpt lat="45.28619" lon="5.77492">
        <ele>1445.48</ele>
        <time>2022-02-23T10:37:41Z</time>
      </trkpt>
      <trkpt lat="45.28621" lon="5.7749">
        <ele>1445.48</ele>
        <time>2022-02-23T10:37:42Z</time>
      </trkpt>
      <trkpt lat="45.28623" lon="5.77484">
        <ele>1443.56</ele>
        <time>2022-02-23T10:37:43Z</time>
      </trkpt>
      <trkpt lat="45.28623" lon="5.77479">
        <ele>1443.56</ele>
        <time>2022-02-23T10:37:44Z</time>
      </trkpt>
      <trkpt lat="45.28623" lon="5.77474">
        <ele>1442.11</ele>
        <time>2022-02-23T10:37:45Z</time>
      </trkpt>
      <trkpt lat="45.28625" lon="5.77473">
        <ele>1439.23</ele>
        <time>2022-02-23T10:37:46Z</time>
      </trkpt>
      <trkpt lat="45.28627" lon="5.77475">
        <ele>1438.75</ele>
        <time>2022-02-23T10:37:47Z</time>
      </trkpt>
      <trkpt lat="45.28629" lon="5.77477">
        <ele>1438.75</ele>
        <time>2022-02-23T10:37:48Z</time>
      </trkpt>
      <trkpt lat="45.28634" lon="5.7748">
        <ele>1438.27</ele>
        <time>2022-02-23T10:37:51Z</time>
      </trkpt>
      <trkpt lat="45.28637" lon="5.77481">
        <ele>1437.79</ele>
        <time>2022-02-23T10:37:52Z</time>
      </trkpt>
      <trkpt lat="45.28639" lon="5.77482">
        <ele>1436.83</ele>
        <time>2022-02-23T10:37:53Z</time>
      </trkpt>
      <trkpt lat="45.28642" lon="5.77485">
        <ele>1436.83</ele>
        <time>2022-02-23T10:37:54Z</time>
      </trkpt>
      <trkpt lat="45.28644" lon="5.77487">
        <ele>1436.83</ele>
        <time>2022-02-23T10:37:55Z</time>
      </trkpt>
      <trkpt lat="45.28646" lon="5.77486">
        <ele>1436.35</ele>
        <time>2022-02-23T10:37:56Z</time>
      </trkpt>
      <trkpt lat="45.28648" lon="5.77482">
        <ele>1435.87</ele>
        <time>2022-02-23T10:37:57Z</time>
      </trkpt>
      <trkpt lat="45.28648" lon="5.77476">
        <ele>1433.46</ele>
        <time>2022-02-23T10:37:58Z</time>
      </trkpt>
      <trkpt lat="45.28647" lon="5.77471">
        <ele>1433.46</ele>
        <time>2022-02-23T10:37:59Z</time>
      </trkpt>
      <trkpt lat="45.28642" lon="5.77463">
        <ele>1431.54</ele>
        <time>2022-02-23T10:38:01Z</time>
      </trkpt>
      <trkpt lat="45.28638" lon="5.77457">
        <ele>1431.06</ele>
        <time>2022-02-23T10:38:03Z</time>
      </trkpt>
      <trkpt lat="45.28629" lon="5.77441">
        <ele>1430.1</ele>
        <time>2022-02-23T10:38:08Z</time>
      </trkpt>
      <trkpt lat="45.28633" lon="5.77437">
        <ele>1426.25</ele>
        <time>2022-02-23T10:38:12Z</time>
      </trkpt>
      <trkpt lat="45.28645" lon="5.77443">
        <ele>1424.81</ele>
        <time>2022-02-23T10:38:16Z</time>
      </trkpt>
      <trkpt lat="45.28651" lon="5.77446">
        <ele>1423.37</ele>
        <time>2022-02-23T10:38:18Z</time>
      </trkpt>
      <trkpt lat="45.28654" lon="5.77446">
        <ele>1423.37</ele>
        <time>2022-02-23T10:38:19Z</time>
      </trkpt>
      <trkpt lat="45.28656" lon="5.77444">
        <ele>1422.89</ele>
        <time>2022-02-23T10:38:20Z</time>
      </trkpt>
      <trkpt lat="45.28655" lon="5.7744">
        <ele>1421.93</ele>
        <time>2022-02-23T10:38:21Z</time>
      </trkpt>
      <trkpt lat="45.28653" lon="5.77436">
        <ele>1420.49</ele>
        <time>2022-02-23T10:38:22Z</time>
      </trkpt>
      <trkpt lat="45.28651" lon="5.77432">
        <ele>1420.49</ele>
        <time>2022-02-23T10:38:23Z</time>
      </trkpt>
      <trkpt lat="45.28652" lon="5.77428">
        <ele>1420.49</ele>
        <time>2022-02-23T10:38:24Z</time>
      </trkpt>
      <trkpt lat="45.28654" lon="5.77427">
        <ele>1419.52</ele>
        <time>2022-02-23T10:38:25Z</time>
      </trkpt>
      <trkpt lat="45.28656" lon="5.77427">
        <ele>1418.56</ele>
        <time>2022-02-23T10:38:26Z</time>
      </trkpt>
      <trkpt lat="45.28658" lon="5.77429">
        <ele>1418.56</ele>
        <time>2022-02-23T10:38:27Z</time>
      </trkpt>
      <trkpt lat="45.2866" lon="5.7743">
        <ele>1417.6</ele>
        <time>2022-02-23T10:38:28Z</time>
      </trkpt>
      <trkpt lat="45.28664" lon="5.77433">
        <ele>1417.6</ele>
        <time>2022-02-23T10:38:38Z</time>
      </trkpt>
      <trkpt lat="45.28664" lon="5.77434">
        <ele>1417.12</ele>
        <time>2022-02-23T10:38:57Z</time>
      </trkpt>
      <trkpt lat="45.28666" lon="5.77433">
        <ele>1417.12</ele>
        <time>2022-02-23T10:39:17Z</time>
      </trkpt>
      <trkpt lat="45.28668" lon="5.77434">
        <ele>1417.12</ele>
        <time>2022-02-23T10:39:34Z</time>
      </trkpt>
      <trkpt lat="45.2867" lon="5.77435">
        <ele>1416.64</ele>
        <time>2022-02-23T10:39:55Z</time>
      </trkpt>
      <trkpt lat="45.28667" lon="5.77433">
        <ele>1419.52</ele>
        <time>2022-02-23T10:45:40Z</time>
      </trkpt>
      <trkpt lat="45.28662" lon="5.77433">
        <ele>1420.49</ele>
        <time>2022-02-23T10:45:57Z</time>
      </trkpt>
      <trkpt lat="45.2866" lon="5.7744">
        <ele>1422.41</ele>
        <time>2022-02-23T10:46:13Z</time>
      </trkpt>
      <trkpt lat="45.28651" lon="5.77439">
        <ele>1424.33</ele>
        <time>2022-02-23T10:46:27Z</time>
      </trkpt>
      <trkpt lat="45.28642" lon="5.77441">
        <ele>1427.21</ele>
        <time>2022-02-23T10:46:47Z</time>
      </trkpt>
      <trkpt lat="45.28636" lon="5.77441">
        <ele>1430.1</ele>
        <time>2022-02-23T10:47:04Z</time>
      </trkpt>
      <trkpt lat="45.28629" lon="5.77442">
        <ele>1432.02</ele>
        <time>2022-02-23T10:47:20Z</time>
      </trkpt>
      <trkpt lat="45.28625" lon="5.77441">
        <ele>1433.94</ele>
        <time>2022-02-23T10:47:35Z</time>
      </trkpt>
      <trkpt lat="45.28623" lon="5.7745">
        <ele>1436.35</ele>
        <time>2022-02-23T10:47:52Z</time>
      </trkpt>
      <trkpt lat="45.28627" lon="5.77464">
        <ele>1438.75</ele>
        <time>2022-02-23T10:48:11Z</time>
      </trkpt>
      <trkpt lat="45.2863" lon="5.77478">
        <ele>1441.15</ele>
        <time>2022-02-23T10:48:33Z</time>
      </trkpt>
      <trkpt lat="45.28633" lon="5.77491">
        <ele>1443.56</ele>
        <time>2022-02-23T10:48:52Z</time>
      </trkpt>
      <trkpt lat="45.28632" lon="5.77498">
        <ele>1446.44</ele>
        <time>2022-02-23T10:49:10Z</time>
      </trkpt>
      <trkpt lat="45.28625" lon="5.77498">
        <ele>1448.36</ele>
        <time>2022-02-23T10:49:27Z</time>
      </trkpt>
      <trkpt lat="45.2862" lon="5.77495">
        <ele>1450.29</ele>
        <time>2022-02-23T10:49:43Z</time>
      </trkpt>
      <trkpt lat="45.28612" lon="5.77493">
        <ele>1452.69</ele>
        <time>2022-02-23T10:50:01Z</time>
      </trkpt>
      <trkpt lat="45.28612" lon="5.77502">
        <ele>1455.09</ele>
        <time>2022-02-23T10:50:16Z</time>
      </trkpt>
      <trkpt lat="45.28611" lon="5.77515">
        <ele>1457.02</ele>
        <time>2022-02-23T10:50:34Z</time>
      </trkpt>
      <trkpt lat="45.28614" lon="5.77528">
        <ele>1459.42</ele>
        <time>2022-02-23T10:50:52Z</time>
      </trkpt>
      <trkpt lat="45.28616" lon="5.7754">
        <ele>1462.78</ele>
        <time>2022-02-23T10:51:09Z</time>
      </trkpt>
      <trkpt lat="45.28617" lon="5.77551">
        <ele>1465.19</ele>
        <time>2022-02-23T10:51:27Z</time>
      </trkpt>
      <trkpt lat="45.28617" lon="5.77558">
        <ele>1467.59</ele>
        <time>2022-02-23T10:51:44Z</time>
      </trkpt>
      <trkpt lat="45.28612" lon="5.77556">
        <ele>1470.47</ele>
        <time>2022-02-23T10:52:02Z</time>
      </trkpt>
      <trkpt lat="45.28605" lon="5.77557">
        <ele>1472.4</ele>
        <time>2022-02-23T10:52:19Z</time>
      </trkpt>
      <trkpt lat="45.28597" lon="5.77557">
        <ele>1474.8</ele>
        <time>2022-02-23T10:52:36Z</time>
      </trkpt>
      <trkpt lat="45.28589" lon="5.77555">
        <ele>1476.24</ele>
        <time>2022-02-23T10:52:54Z</time>
      </trkpt>
      <trkpt lat="45.28587" lon="5.77559">
        <ele>1477.68</ele>
        <time>2022-02-23T10:53:09Z</time>
      </trkpt>
      <trkpt lat="45.28587" lon="5.77568">
        <ele>1479.61</ele>
        <time>2022-02-23T10:53:27Z</time>
      </trkpt>
      <trkpt lat="45.28581" lon="5.77567">
        <ele>1482.49</ele>
        <time>2022-02-23T10:53:44Z</time>
      </trkpt>
      <trkpt lat="45.2858" lon="5.77577">
        <ele>1484.41</ele>
        <time>2022-02-23T10:54:00Z</time>
      </trkpt>
      <trkpt lat="45.28582" lon="5.77588">
        <ele>1486.82</ele>
        <time>2022-02-23T10:54:20Z</time>
      </trkpt>
      <trkpt lat="45.28586" lon="5.77596">
        <ele>1489.22</ele>
        <time>2022-02-23T10:54:38Z</time>
      </trkpt>
      <trkpt lat="45.28591" lon="5.77611">
        <ele>1492.1</ele>
        <time>2022-02-23T10:55:00Z</time>
      </trkpt>
      <trkpt lat="45.28591" lon="5.77617">
        <ele>1494.99</ele>
        <time>2022-02-23T10:55:19Z</time>
      </trkpt>
      <trkpt lat="45.28584" lon="5.77617">
        <ele>1496.91</ele>
        <time>2022-02-23T10:55:37Z</time>
      </trkpt>
      <trkpt lat="45.28576" lon="5.77615">
        <ele>1499.31</ele>
        <time>2022-02-23T10:55:56Z</time>
      </trkpt>
      <trkpt lat="45.2857" lon="5.77617">
        <ele>1501.72</ele>
        <time>2022-02-23T10:56:14Z</time>
      </trkpt>
      <trkpt lat="45.28566" lon="5.77621">
        <ele>1504.12</ele>
        <time>2022-02-23T10:56:28Z</time>
      </trkpt>
      <trkpt lat="45.2856" lon="5.77621">
        <ele>1506.52</ele>
        <time>2022-02-23T10:56:44Z</time>
      </trkpt>
      <trkpt lat="45.28551" lon="5.77625">
        <ele>1508.93</ele>
        <time>2022-02-23T10:57:03Z</time>
      </trkpt>
      <trkpt lat="45.28545" lon="5.77627">
        <ele>1511.33</ele>
        <time>2022-02-23T10:57:21Z</time>
      </trkpt>
      <trkpt lat="45.28535" lon="5.77636">
        <ele>1513.73</ele>
        <time>2022-02-23T10:57:41Z</time>
      </trkpt>
      <trkpt lat="45.28529" lon="5.77643">
        <ele>1516.62</ele>
        <time>2022-02-23T10:58:00Z</time>
      </trkpt>
      <trkpt lat="45.28523" lon="5.77645">
        <ele>1518.54</ele>
        <time>2022-02-23T10:58:16Z</time>
      </trkpt>
      <trkpt lat="45.28523" lon="5.77656">
        <ele>1520.46</ele>
        <time>2022-02-23T10:58:33Z</time>
      </trkpt>
      <trkpt lat="45.28532" lon="5.77666">
        <ele>1523.83</ele>
        <time>2022-02-23T10:58:58Z</time>
      </trkpt>
      <trkpt lat="45.28542" lon="5.7768">
        <ele>1525.75</ele>
        <time>2022-02-23T10:59:18Z</time>
      </trkpt>
      <trkpt lat="45.28551" lon="5.77687">
        <ele>1528.15</ele>
        <time>2022-02-23T10:59:38Z</time>
      </trkpt>
      <trkpt lat="45.28556" lon="5.77695">
        <ele>1531.52</ele>
        <time>2022-02-23T10:59:57Z</time>
      </trkpt>
      <trkpt lat="45.2855" lon="5.777">
        <ele>1533.44</ele>
        <time>2022-02-23T11:00:16Z</time>
      </trkpt>
      <trkpt lat="45.28548" lon="5.77708">
        <ele>1535.36</ele>
        <time>2022-02-23T11:00:31Z</time>
      </trkpt>
      <trkpt lat="45.28554" lon="5.77715">
        <ele>1537.29</ele>
        <time>2022-02-23T11:00:47Z</time>
      </trkpt>
      <trkpt lat="45.28562" lon="5.77718">
        <ele>1538.73</ele>
        <time>2022-02-23T11:01:05Z</time>
      </trkpt>
      <trkpt lat="45.28566" lon="5.77725">
        <ele>1542.09</ele>
        <time>2022-02-23T11:01:22Z</time>
      </trkpt>
      <trkpt lat="45.28567" lon="5.77729">
        <ele>1544.5</ele>
        <time>2022-02-23T11:01:41Z</time>
      </trkpt>
      <trkpt lat="45.28569" lon="5.77732">
        <ele>1545.46</ele>
        <time>2022-02-23T11:01:51Z</time>
      </trkpt>
      <trkpt lat="45.28573" lon="5.77741">
        <ele>1548.82</ele>
        <time>2022-02-23T11:02:09Z</time>
      </trkpt>
      <trkpt lat="45.28579" lon="5.77749">
        <ele>1551.71</ele>
        <time>2022-02-23T11:02:30Z</time>
      </trkpt>
      <trkpt lat="45.28579" lon="5.77763">
        <ele>1554.11</ele>
        <time>2022-02-23T11:02:49Z</time>
      </trkpt>
      <trkpt lat="45.28579" lon="5.77766">
        <ele>1555.07</ele>
        <time>2022-02-23T11:02:55Z</time>
      </trkpt>
      <trkpt lat="45.28582" lon="5.7778">
        <ele>1557.47</ele>
        <time>2022-02-23T11:03:16Z</time>
      </trkpt>
      <trkpt lat="45.28586" lon="5.7779">
        <ele>1560.36</ele>
        <time>2022-02-23T11:03:37Z</time>
      </trkpt>
      <trkpt lat="45.28589" lon="5.77801">
        <ele>1563.72</ele>
        <time>2022-02-23T11:03:57Z</time>
      </trkpt>
      <trkpt lat="45.28593" lon="5.77814">
        <ele>1566.61</ele>
        <time>2022-02-23T11:04:18Z</time>
      </trkpt>
      <trkpt lat="45.28598" lon="5.7782">
        <ele>1569.49</ele>
        <time>2022-02-23T11:04:37Z</time>
      </trkpt>
      <trkpt lat="45.28602" lon="5.77829">
        <ele>1571.89</ele>
        <time>2022-02-23T11:04:57Z</time>
      </trkpt>
      <trkpt lat="45.28606" lon="5.77838">
        <ele>1575.26</ele>
        <time>2022-02-23T11:05:17Z</time>
      </trkpt>
      <trkpt lat="45.28606" lon="5.77839">
        <ele>1576.22</ele>
        <time>2022-02-23T11:05:19Z</time>
      </trkpt>
      <trkpt lat="45.28613" lon="5.77854">
        <ele>1579.1</ele>
        <time>2022-02-23T11:05:39Z</time>
      </trkpt>
      <trkpt lat="45.28617" lon="5.77859">
        <ele>1581.99</ele>
        <time>2022-02-23T11:05:55Z</time>
      </trkpt>
      <trkpt lat="45.28611" lon="5.77861">
        <ele>1584.39</ele>
        <time>2022-02-23T11:06:14Z</time>
      </trkpt>
      <trkpt lat="45.28609" lon="5.77873">
        <ele>1585.35</ele>
        <time>2022-02-23T11:06:35Z</time>
      </trkpt>
      <trkpt lat="45.28617" lon="5.77882">
        <ele>1585.83</ele>
        <time>2022-02-23T11:06:55Z</time>
      </trkpt>
      <trkpt lat="45.28629" lon="5.77882">
        <ele>1587.75</ele>
        <time>2022-02-23T11:07:10Z</time>
      </trkpt>
      <trkpt lat="45.28633" lon="5.77891">
        <ele>1590.64</ele>
        <time>2022-02-23T11:07:27Z</time>
      </trkpt>
      <trkpt lat="45.28638" lon="5.77895">
        <ele>1592.56</ele>
        <time>2022-02-23T11:07:45Z</time>
      </trkpt>
      <trkpt lat="45.28642" lon="5.77901">
        <ele>1595.93</ele>
        <time>2022-02-23T11:08:02Z</time>
      </trkpt>
      <trkpt lat="45.28639" lon="5.77904">
        <ele>1597.85</ele>
        <time>2022-02-23T11:08:16Z</time>
      </trkpt>
      <trkpt lat="45.28634" lon="5.77908">
        <ele>1601.21</ele>
        <time>2022-02-23T11:08:34Z</time>
      </trkpt>
      <trkpt lat="45.28631" lon="5.77916">
        <ele>1604.1</ele>
        <time>2022-02-23T11:08:52Z</time>
      </trkpt>
      <trkpt lat="45.28625" lon="5.77924">
        <ele>1606.5</ele>
        <time>2022-02-23T11:09:10Z</time>
      </trkpt>
      <trkpt lat="45.28622" lon="5.7793">
        <ele>1608.9</ele>
        <time>2022-02-23T11:09:25Z</time>
      </trkpt>
      <trkpt lat="45.28617" lon="5.77937">
        <ele>1612.27</ele>
        <time>2022-02-23T11:09:40Z</time>
      </trkpt>
      <trkpt lat="45.28611" lon="5.77945">
        <ele>1615.63</ele>
        <time>2022-02-23T11:09:55Z</time>
      </trkpt>
      <trkpt lat="45.28606" lon="5.77947">
        <ele>1618.52</ele>
        <time>2022-02-23T11:10:10Z</time>
      </trkpt>
      <trkpt lat="45.28601" lon="5.77951">
        <ele>1621.4</ele>
        <time>2022-02-23T11:10:29Z</time>
      </trkpt>
      <trkpt lat="45.28595" lon="5.77952">
        <ele>1624.77</ele>
        <time>2022-02-23T11:10:43Z</time>
      </trkpt>
      <trkpt lat="45.28587" lon="5.77952">
        <ele>1627.17</ele>
        <time>2022-02-23T11:11:01Z</time>
      </trkpt>
      <trkpt lat="45.28583" lon="5.7795">
        <ele>1627.65</ele>
        <time>2022-02-23T11:11:20Z</time>
      </trkpt>
      <trkpt lat="45.28583" lon="5.77952">
        <ele>1626.69</ele>
        <time>2022-02-23T11:11:23Z</time>
      </trkpt>
      <trkpt lat="45.28574" lon="5.7796">
        <ele>1626.21</ele>
        <time>2022-02-23T11:11:58Z</time>
      </trkpt>
      <trkpt lat="45.28581" lon="5.77955">
        <ele>1627.65</ele>
        <time>2022-02-23T11:12:18Z</time>
      </trkpt>
      <trkpt lat="45.28579" lon="5.77957">
        <ele>1623.32</ele>
        <time>2022-02-23T11:12:38Z</time>
      </trkpt>
      <trkpt lat="45.2858" lon="5.77957">
        <ele>1630.05</ele>
        <time>2022-02-23T11:12:39Z</time>
      </trkpt>
      <trkpt lat="45.2858" lon="5.77957">
        <ele>1627.17</ele>
        <time>2022-02-23T11:12:40Z</time>
      </trkpt>
      <trkpt lat="45.2858" lon="5.77956">
        <ele>1628.61</ele>
        <time>2022-02-23T11:12:43Z</time>
      </trkpt>
      <trkpt lat="45.2858" lon="5.77956">
        <ele>1626.69</ele>
        <time>2022-02-23T11:12:46Z</time>
      </trkpt>
      <trkpt lat="45.28585" lon="5.77961">
        <ele>1628.61</ele>
        <time>2022-02-23T11:13:02Z</time>
      </trkpt>
      <trkpt lat="45.28586" lon="5.7797">
        <ele>1631.49</ele>
        <time>2022-02-23T11:13:18Z</time>
      </trkpt>
      <trkpt lat="45.28587" lon="5.77979">
        <ele>1634.86</ele>
        <time>2022-02-23T11:13:33Z</time>
      </trkpt>
      <trkpt lat="45.2859" lon="5.77994">
        <ele>1637.74</ele>
        <time>2022-02-23T11:13:53Z</time>
      </trkpt>
      <trkpt lat="45.2859" lon="5.77996">
        <ele>1639.19</ele>
        <time>2022-02-23T11:13:58Z</time>
      </trkpt>
      <trkpt lat="45.2859" lon="5.77997">
        <ele>1637.74</ele>
        <time>2022-02-23T11:14:00Z</time>
      </trkpt>
      <trkpt lat="45.28591" lon="5.77998">
        <ele>1639.19</ele>
        <time>2022-02-23T11:14:03Z</time>
      </trkpt>
      <trkpt lat="45.28598" lon="5.78004">
        <ele>1640.63</ele>
        <time>2022-02-23T11:14:21Z</time>
      </trkpt>
      <trkpt lat="45.28604" lon="5.78008">
        <ele>1643.51</ele>
        <time>2022-02-23T11:14:35Z</time>
      </trkpt>
      <trkpt lat="45.28617" lon="5.78016">
        <ele>1645.91</ele>
        <time>2022-02-23T11:14:55Z</time>
      </trkpt>
      <trkpt lat="45.28626" lon="5.78019">
        <ele>1648.32</ele>
        <time>2022-02-23T11:15:14Z</time>
      </trkpt>
      <trkpt lat="45.28639" lon="5.78024">
        <ele>1650.72</ele>
        <time>2022-02-23T11:15:37Z</time>
      </trkpt>
      <trkpt lat="45.28648" lon="5.78025">
        <ele>1652.16</ele>
        <time>2022-02-23T11:15:54Z</time>
      </trkpt>
      <trkpt lat="45.2865" lon="5.78026">
        <ele>1654.09</ele>
        <time>2022-02-23T11:15:58Z</time>
      </trkpt>
      <trkpt lat="45.28661" lon="5.78031">
        <ele>1656.01</ele>
        <time>2022-02-23T11:16:16Z</time>
      </trkpt>
      <trkpt lat="45.28671" lon="5.7803">
        <ele>1657.93</ele>
        <time>2022-02-23T11:16:33Z</time>
      </trkpt>
      <trkpt lat="45.28682" lon="5.78027">
        <ele>1660.33</ele>
        <time>2022-02-23T11:16:53Z</time>
      </trkpt>
      <trkpt lat="45.2869" lon="5.78024">
        <ele>1662.74</ele>
        <time>2022-02-23T11:17:13Z</time>
      </trkpt>
      <trkpt lat="45.28698" lon="5.78027">
        <ele>1665.62</ele>
        <time>2022-02-23T11:17:30Z</time>
      </trkpt>
      <trkpt lat="45.28703" lon="5.7803">
        <ele>1666.58</ele>
        <time>2022-02-23T11:17:41Z</time>
      </trkpt>
      <trkpt lat="45.2871" lon="5.78036">
        <ele>1669.95</ele>
        <time>2022-02-23T11:17:59Z</time>
      </trkpt>
      <trkpt lat="45.28714" lon="5.78038">
        <ele>1671.39</ele>
        <time>2022-02-23T11:18:07Z</time>
      </trkpt>
      <trkpt lat="45.28721" lon="5.78045">
        <ele>1673.79</ele>
        <time>2022-02-23T11:18:25Z</time>
      </trkpt>
      <trkpt lat="45.28724" lon="5.78049">
        <ele>1674.75</ele>
        <time>2022-02-23T11:18:34Z</time>
      </trkpt>
      <trkpt lat="45.28727" lon="5.78053">
        <ele>1676.2</ele>
        <time>2022-02-23T11:18:47Z</time>
      </trkpt>
      <trkpt lat="45.2873" lon="5.78056">
        <ele>1678.12</ele>
        <time>2022-02-23T11:18:56Z</time>
      </trkpt>
      <trkpt lat="45.28734" lon="5.78062">
        <ele>1679.08</ele>
        <time>2022-02-23T11:19:12Z</time>
      </trkpt>
      <trkpt lat="45.28734" lon="5.78063">
        <ele>1680.04</ele>
        <time>2022-02-23T11:19:17Z</time>
      </trkpt>
      <trkpt lat="45.28736" lon="5.78066">
        <ele>1682.44</ele>
        <time>2022-02-23T11:19:33Z</time>
      </trkpt>
      <trkpt lat="45.28735" lon="5.78067">
        <ele>1680.04</ele>
        <time>2022-02-23T11:19:41Z</time>
      </trkpt>
      <trkpt lat="45.28731" lon="5.78068">
        <ele>1683.41</ele>
        <time>2022-02-23T11:19:55Z</time>
      </trkpt>
      <trkpt lat="45.28723" lon="5.78072">
        <ele>1686.29</ele>
        <time>2022-02-23T11:20:14Z</time>
      </trkpt>
      <trkpt lat="45.28723" lon="5.78072">
        <ele>1686.29</ele>
        <time>2022-02-23T11:20:15Z</time>
      </trkpt>
      <trkpt lat="45.28716" lon="5.78078">
        <ele>1687.73</ele>
        <time>2022-02-23T11:20:32Z</time>
      </trkpt>
      <trkpt lat="45.28708" lon="5.7808">
        <ele>1688.21</ele>
        <time>2022-02-23T11:20:44Z</time>
      </trkpt>
      <trkpt lat="45.28699" lon="5.7809">
        <ele>1692.06</ele>
        <time>2022-02-23T11:21:02Z</time>
      </trkpt>
      <trkpt lat="45.28695" lon="5.78102">
        <ele>1694.94</ele>
        <time>2022-02-23T11:21:22Z</time>
      </trkpt>
      <trkpt lat="45.2869" lon="5.78108">
        <ele>1696.38</ele>
        <time>2022-02-23T11:21:40Z</time>
      </trkpt>
      <trkpt lat="45.28687" lon="5.78117">
        <ele>1698.79</ele>
        <time>2022-02-23T11:21:55Z</time>
      </trkpt>
      <trkpt lat="45.28684" lon="5.7812">
        <ele>1700.23</ele>
        <time>2022-02-23T11:22:02Z</time>
      </trkpt>
      <trkpt lat="45.28683" lon="5.78121">
        <ele>1698.79</ele>
        <time>2022-02-23T11:22:04Z</time>
      </trkpt>
      <trkpt lat="45.28682" lon="5.78121">
        <ele>1700.71</ele>
        <time>2022-02-23T11:22:07Z</time>
      </trkpt>
      <trkpt lat="45.28677" lon="5.7813">
        <ele>1703.11</ele>
        <time>2022-02-23T11:22:24Z</time>
      </trkpt>
      <trkpt lat="45.28672" lon="5.78136">
        <ele>1704.55</ele>
        <time>2022-02-23T11:22:42Z</time>
      </trkpt>
      <trkpt lat="45.28671" lon="5.78139">
        <ele>1704.07</ele>
        <time>2022-02-23T11:22:47Z</time>
      </trkpt>
      <trkpt lat="45.2867" lon="5.7814">
        <ele>1706</ele>
        <time>2022-02-23T11:22:50Z</time>
      </trkpt>
      <trkpt lat="45.28665" lon="5.78147">
        <ele>1707.92</ele>
        <time>2022-02-23T11:23:07Z</time>
      </trkpt>
      <trkpt lat="45.28662" lon="5.78147">
        <ele>1709.36</ele>
        <time>2022-02-23T11:23:13Z</time>
      </trkpt>
      <trkpt lat="45.28654" lon="5.78152">
        <ele>1709.84</ele>
        <time>2022-02-23T11:23:30Z</time>
      </trkpt>
      <trkpt lat="45.2865" lon="5.78153">
        <ele>1712.73</ele>
        <time>2022-02-23T11:23:42Z</time>
      </trkpt>
      <trkpt lat="45.28646" lon="5.78153">
        <ele>1714.65</ele>
        <time>2022-02-23T11:23:55Z</time>
      </trkpt>
      <trkpt lat="45.28638" lon="5.78161">
        <ele>1717.05</ele>
        <time>2022-02-23T11:24:13Z</time>
      </trkpt>
      <trkpt lat="45.28634" lon="5.78162">
        <ele>1718.49</ele>
        <time>2022-02-23T11:24:26Z</time>
      </trkpt>
      <trkpt lat="45.28636" lon="5.78172">
        <ele>1720.9</ele>
        <time>2022-02-23T11:24:45Z</time>
      </trkpt>
      <trkpt lat="45.28641" lon="5.78176">
        <ele>1722.34</ele>
        <time>2022-02-23T11:25:04Z</time>
      </trkpt>
      <trkpt lat="45.28648" lon="5.78182">
        <ele>1725.7</ele>
        <time>2022-02-23T11:25:23Z</time>
      </trkpt>
      <trkpt lat="45.28648" lon="5.78182">
        <ele>1725.7</ele>
        <time>2022-02-23T11:25:24Z</time>
      </trkpt>
      <trkpt lat="45.28649" lon="5.78184">
        <ele>1725.7</ele>
        <time>2022-02-23T11:25:29Z</time>
      </trkpt>
      <trkpt lat="45.28652" lon="5.78185">
        <ele>1726.67</ele>
        <time>2022-02-23T11:25:34Z</time>
      </trkpt>
      <trkpt lat="45.28655" lon="5.78188">
        <ele>1727.15</ele>
        <time>2022-02-23T11:25:42Z</time>
      </trkpt>
      <trkpt lat="45.28672" lon="5.78189">
        <ele>1729.07</ele>
        <time>2022-02-23T11:26:02Z</time>
      </trkpt>
      <trkpt lat="45.28679" lon="5.78193">
        <ele>1731.47</ele>
        <time>2022-02-23T11:26:18Z</time>
      </trkpt>
      <trkpt lat="45.28678" lon="5.78195">
        <ele>1732.43</ele>
        <time>2022-02-23T11:26:35Z</time>
      </trkpt>
      <trkpt lat="45.28679" lon="5.78198">
        <ele>1732.43</ele>
        <time>2022-02-23T11:27:18Z</time>
      </trkpt>
      <trkpt lat="45.2867" lon="5.78199">
        <ele>1733.39</ele>
        <time>2022-02-23T11:27:39Z</time>
      </trkpt>
      <trkpt lat="45.2866" lon="5.78203">
        <ele>1735.32</ele>
        <time>2022-02-23T11:27:59Z</time>
      </trkpt>
      <trkpt lat="45.28658" lon="5.78204">
        <ele>1736.76</ele>
        <time>2022-02-23T11:28:03Z</time>
      </trkpt>
      <trkpt lat="45.28651" lon="5.78208">
        <ele>1737.24</ele>
        <time>2022-02-23T11:28:20Z</time>
      </trkpt>
      <trkpt lat="45.28646" lon="5.78208">
        <ele>1740.6</ele>
        <time>2022-02-23T11:28:31Z</time>
      </trkpt>
      <trkpt lat="45.28649" lon="5.78216">
        <ele>1742.05</ele>
        <time>2022-02-23T11:28:47Z</time>
      </trkpt>
      <trkpt lat="45.28648" lon="5.78216">
        <ele>1743.49</ele>
        <time>2022-02-23T11:29:04Z</time>
      </trkpt>
      <trkpt lat="45.28643" lon="5.78213">
        <ele>1743.49</ele>
        <time>2022-02-23T11:29:13Z</time>
      </trkpt>
      <trkpt lat="45.28641" lon="5.78213">
        <ele>1745.41</ele>
        <time>2022-02-23T11:29:16Z</time>
      </trkpt>
      <trkpt lat="45.28633" lon="5.78203">
        <ele>1745.89</ele>
        <time>2022-02-23T11:29:36Z</time>
      </trkpt>
      <trkpt lat="45.28633" lon="5.78203">
        <ele>1745.89</ele>
        <time>2022-02-23T11:29:37Z</time>
      </trkpt>
      <trkpt lat="45.2863" lon="5.78202">
        <ele>1747.33</ele>
        <time>2022-02-23T11:29:40Z</time>
      </trkpt>
      <trkpt lat="45.28622" lon="5.782">
        <ele>1750.22</ele>
        <time>2022-02-23T11:29:57Z</time>
      </trkpt>
      <trkpt lat="45.28612" lon="5.782">
        <ele>1752.62</ele>
        <time>2022-02-23T11:30:16Z</time>
      </trkpt>
      <trkpt lat="45.2861" lon="5.78199">
        <ele>1754.06</ele>
        <time>2022-02-23T11:30:21Z</time>
      </trkpt>
      <trkpt lat="45.28607" lon="5.78198">
        <ele>1755.02</ele>
        <time>2022-02-23T11:30:29Z</time>
      </trkpt>
      <trkpt lat="45.28601" lon="5.78198">
        <ele>1757.43</ele>
        <time>2022-02-23T11:30:44Z</time>
      </trkpt>
      <trkpt lat="45.286" lon="5.78199">
        <ele>1755.99</ele>
        <time>2022-02-23T11:30:46Z</time>
      </trkpt>
      <trkpt lat="45.28599" lon="5.782">
        <ele>1757.91</ele>
        <time>2022-02-23T11:30:49Z</time>
      </trkpt>
      <trkpt lat="45.28594" lon="5.78199">
        <ele>1759.35</ele>
        <time>2022-02-23T11:31:02Z</time>
      </trkpt>
      <trkpt lat="45.28591" lon="5.78199">
        <ele>1760.31</ele>
        <time>2022-02-23T11:31:09Z</time>
      </trkpt>
      <trkpt lat="45.28585" lon="5.78201">
        <ele>1761.75</ele>
        <time>2022-02-23T11:31:26Z</time>
      </trkpt>
      <trkpt lat="45.28579" lon="5.78205">
        <ele>1764.64</ele>
        <time>2022-02-23T11:31:44Z</time>
      </trkpt>
      <trkpt lat="45.28571" lon="5.78209">
        <ele>1767.52</ele>
        <time>2022-02-23T11:31:59Z</time>
      </trkpt>
      <trkpt lat="45.28571" lon="5.78209">
        <ele>1767.52</ele>
        <time>2022-02-23T11:32:00Z</time>
      </trkpt>
      <trkpt lat="45.28565" lon="5.7821">
        <ele>1768.96</ele>
        <time>2022-02-23T11:32:16Z</time>
      </trkpt>
      <trkpt lat="45.2856" lon="5.78209">
        <ele>1771.85</ele>
        <time>2022-02-23T11:32:31Z</time>
      </trkpt>
      <trkpt lat="45.2856" lon="5.78208">
        <ele>1770.89</ele>
        <time>2022-02-23T11:32:33Z</time>
      </trkpt>
      <trkpt lat="45.28556" lon="5.78208">
        <ele>1773.29</ele>
        <time>2022-02-23T11:32:42Z</time>
      </trkpt>
      <trkpt lat="45.28552" lon="5.78207">
        <ele>1774.25</ele>
        <time>2022-02-23T11:32:52Z</time>
      </trkpt>
      <trkpt lat="45.28549" lon="5.78208">
        <ele>1775.69</ele>
        <time>2022-02-23T11:32:59Z</time>
      </trkpt>
      <trkpt lat="45.28538" lon="5.78211">
        <ele>1775.69</ele>
        <time>2022-02-23T11:33:19Z</time>
      </trkpt>
      <trkpt lat="45.28532" lon="5.78211">
        <ele>1779.54</ele>
        <time>2022-02-23T11:33:32Z</time>
      </trkpt>
      <trkpt lat="45.2853" lon="5.78211">
        <ele>1779.54</ele>
        <time>2022-02-23T11:33:36Z</time>
      </trkpt>
      <trkpt lat="45.2852" lon="5.78209">
        <ele>1780.02</ele>
        <time>2022-02-23T11:33:54Z</time>
      </trkpt>
      <trkpt lat="45.28514" lon="5.78208">
        <ele>1783.38</ele>
        <time>2022-02-23T11:34:05Z</time>
      </trkpt>
      <trkpt lat="45.28506" lon="5.78207">
        <ele>1785.31</ele>
        <time>2022-02-23T11:34:23Z</time>
      </trkpt>
      <trkpt lat="45.28498" lon="5.78204">
        <ele>1786.75</ele>
        <time>2022-02-23T11:34:42Z</time>
      </trkpt>
      <trkpt lat="45.2849" lon="5.78203">
        <ele>1790.11</ele>
        <time>2022-02-23T11:34:58Z</time>
      </trkpt>
      <trkpt lat="45.28482" lon="5.78202">
        <ele>1792.52</ele>
        <time>2022-02-23T11:35:15Z</time>
      </trkpt>
      <trkpt lat="45.28475" lon="5.78199">
        <ele>1795.88</ele>
        <time>2022-02-23T11:35:33Z</time>
      </trkpt>
      <trkpt lat="45.28467" lon="5.78202">
        <ele>1796.84</ele>
        <time>2022-02-23T11:35:52Z</time>
      </trkpt>
      <trkpt lat="45.28458" lon="5.78199">
        <ele>1800.21</ele>
        <time>2022-02-23T11:36:08Z</time>
      </trkpt>
      <trkpt lat="45.28457" lon="5.78199">
        <ele>1798.76</ele>
        <time>2022-02-23T11:36:11Z</time>
      </trkpt>
      <trkpt lat="45.28448" lon="5.78196">
        <ele>1802.61</ele>
        <time>2022-02-23T11:36:30Z</time>
      </trkpt>
      <trkpt lat="45.28441" lon="5.782">
        <ele>1803.09</ele>
        <time>2022-02-23T11:36:48Z</time>
      </trkpt>
      <trkpt lat="45.28439" lon="5.78201">
        <ele>1805.01</ele>
        <time>2022-02-23T11:36:51Z</time>
      </trkpt>
      <trkpt lat="45.28428" lon="5.78203">
        <ele>1805.97</ele>
        <time>2022-02-23T11:37:10Z</time>
      </trkpt>
      <trkpt lat="45.2842" lon="5.78205">
        <ele>1808.86</ele>
        <time>2022-02-23T11:37:29Z</time>
      </trkpt>
      <trkpt lat="45.28418" lon="5.78214">
        <ele>1811.74</ele>
        <time>2022-02-23T11:37:47Z</time>
      </trkpt>
      <trkpt lat="45.28418" lon="5.78214">
        <ele>1810.3</ele>
        <time>2022-02-23T11:37:58Z</time>
      </trkpt>
      <trkpt lat="45.28422" lon="5.78222">
        <ele>1813.66</ele>
        <time>2022-02-23T11:38:11Z</time>
      </trkpt>
      <trkpt lat="45.28426" lon="5.78231">
        <ele>1815.59</ele>
        <time>2022-02-23T11:38:27Z</time>
      </trkpt>
      <trkpt lat="45.28429" lon="5.78239">
        <ele>1817.99</ele>
        <time>2022-02-23T11:38:40Z</time>
      </trkpt>
      <trkpt lat="45.28434" lon="5.78252">
        <ele>1820.39</ele>
        <time>2022-02-23T11:39:02Z</time>
      </trkpt>
      <trkpt lat="45.28438" lon="5.7826">
        <ele>1820.87</ele>
        <time>2022-02-23T11:39:17Z</time>
      </trkpt>
      <trkpt lat="45.28438" lon="5.78262">
        <ele>1822.8</ele>
        <time>2022-02-23T11:39:20Z</time>
      </trkpt>
      <trkpt lat="45.28436" lon="5.7827">
        <ele>1826.16</ele>
        <time>2022-02-23T11:39:40Z</time>
      </trkpt>
      <trkpt lat="45.28434" lon="5.78278">
        <ele>1828.56</ele>
        <time>2022-02-23T11:39:57Z</time>
      </trkpt>
      <trkpt lat="45.28431" lon="5.78287">
        <ele>1830.49</ele>
        <time>2022-02-23T11:40:16Z</time>
      </trkpt>
      <trkpt lat="45.28429" lon="5.78296">
        <ele>1833.85</ele>
        <time>2022-02-23T11:40:34Z</time>
      </trkpt>
      <trkpt lat="45.28418" lon="5.78301">
        <ele>1835.29</ele>
        <time>2022-02-23T11:40:56Z</time>
      </trkpt>
      <trkpt lat="45.28415" lon="5.78303">
        <ele>1836.26</ele>
        <time>2022-02-23T11:41:05Z</time>
      </trkpt>
      <trkpt lat="45.28413" lon="5.78304">
        <ele>1837.22</ele>
        <time>2022-02-23T11:41:09Z</time>
      </trkpt>
      <trkpt lat="45.28409" lon="5.78312">
        <ele>1839.14</ele>
        <time>2022-02-23T11:41:26Z</time>
      </trkpt>
      <trkpt lat="45.28412" lon="5.78322">
        <ele>1841.54</ele>
        <time>2022-02-23T11:41:45Z</time>
      </trkpt>
      <trkpt lat="45.28416" lon="5.78332">
        <ele>1843.47</ele>
        <time>2022-02-23T11:42:05Z</time>
      </trkpt>
      <trkpt lat="45.2842" lon="5.78343">
        <ele>1845.87</ele>
        <time>2022-02-23T11:42:27Z</time>
      </trkpt>
      <trkpt lat="45.28424" lon="5.78352">
        <ele>1847.79</ele>
        <time>2022-02-23T11:42:45Z</time>
      </trkpt>
      <trkpt lat="45.28428" lon="5.78362">
        <ele>1850.19</ele>
        <time>2022-02-23T11:43:05Z</time>
      </trkpt>
      <trkpt lat="45.28429" lon="5.78364">
        <ele>1851.16</ele>
        <time>2022-02-23T11:43:09Z</time>
      </trkpt>
      <trkpt lat="45.28426" lon="5.78369">
        <ele>1853.56</ele>
        <time>2022-02-23T11:43:26Z</time>
      </trkpt>
      <trkpt lat="45.28417" lon="5.78375">
        <ele>1856.44</ele>
        <time>2022-02-23T11:43:47Z</time>
      </trkpt>
      <trkpt lat="45.28412" lon="5.78378">
        <ele>1855.96</ele>
        <time>2022-02-23T11:43:56Z</time>
      </trkpt>
      <trkpt lat="45.28411" lon="5.78378">
        <ele>1857.89</ele>
        <time>2022-02-23T11:43:59Z</time>
      </trkpt>
      <trkpt lat="45.28407" lon="5.78381">
        <ele>1858.85</ele>
        <time>2022-02-23T11:44:08Z</time>
      </trkpt>
      <trkpt lat="45.28405" lon="5.78382">
        <ele>1859.33</ele>
        <time>2022-02-23T11:44:13Z</time>
      </trkpt>
      <trkpt lat="45.28397" lon="5.78385">
        <ele>1862.21</ele>
        <time>2022-02-23T11:44:32Z</time>
      </trkpt>
      <trkpt lat="45.28395" lon="5.78386">
        <ele>1862.69</ele>
        <time>2022-02-23T11:44:38Z</time>
      </trkpt>
      <trkpt lat="45.28391" lon="5.78386">
        <ele>1863.65</ele>
        <time>2022-02-23T11:44:46Z</time>
      </trkpt>
      <trkpt lat="45.2839" lon="5.78387">
        <ele>1862.21</ele>
        <time>2022-02-23T11:44:48Z</time>
      </trkpt>
      <trkpt lat="45.28387" lon="5.78388">
        <ele>1864.61</ele>
        <time>2022-02-23T11:44:54Z</time>
      </trkpt>
      <trkpt lat="45.2838" lon="5.78389">
        <ele>1864.61</ele>
        <time>2022-02-23T11:45:10Z</time>
      </trkpt>
      <trkpt lat="45.28379" lon="5.78389">
        <ele>1866.54</ele>
        <time>2022-02-23T11:45:12Z</time>
      </trkpt>
      <trkpt lat="45.28373" lon="5.7839">
        <ele>1868.94</ele>
        <time>2022-02-23T11:45:27Z</time>
      </trkpt>
      <trkpt lat="45.28367" lon="5.7839">
        <ele>1870.38</ele>
        <time>2022-02-23T11:45:40Z</time>
      </trkpt>
      <trkpt lat="45.28364" lon="5.7839">
        <ele>1868.94</ele>
        <time>2022-02-23T11:45:46Z</time>
      </trkpt>
      <trkpt lat="45.28362" lon="5.7839">
        <ele>1869.9</ele>
        <time>2022-02-23T11:45:52Z</time>
      </trkpt>
      <trkpt lat="45.28362" lon="5.78391">
        <ele>1871.82</ele>
        <time>2022-02-23T11:45:55Z</time>
      </trkpt>
      <trkpt lat="45.28363" lon="5.78397">
        <ele>1871.34</ele>
        <time>2022-02-23T11:46:04Z</time>
      </trkpt>
      <trkpt lat="45.28364" lon="5.78399">
        <ele>1872.79</ele>
        <time>2022-02-23T11:46:07Z</time>
      </trkpt>
      <trkpt lat="45.28367" lon="5.78409">
        <ele>1874.71</ele>
        <time>2022-02-23T11:46:24Z</time>
      </trkpt>
      <trkpt lat="45.28369" lon="5.78421">
        <ele>1876.15</ele>
        <time>2022-02-23T11:46:45Z</time>
      </trkpt>
      <trkpt lat="45.2837" lon="5.78426">
        <ele>1879.03</ele>
        <time>2022-02-23T11:46:55Z</time>
      </trkpt>
      <trkpt lat="45.28371" lon="5.78427">
        <ele>1879.03</ele>
        <time>2022-02-23T11:46:56Z</time>
      </trkpt>
      <trkpt lat="45.28374" lon="5.78435">
        <ele>1880.48</ele>
        <time>2022-02-23T11:47:12Z</time>
      </trkpt>
      <trkpt lat="45.28375" lon="5.78438">
        <ele>1882.4</ele>
        <time>2022-02-23T11:47:18Z</time>
      </trkpt>
      <trkpt lat="45.28375" lon="5.78439">
        <ele>1880.96</ele>
        <time>2022-02-23T11:47:20Z</time>
      </trkpt>
      <trkpt lat="45.28376" lon="5.78439">
        <ele>1882.4</ele>
        <time>2022-02-23T11:47:22Z</time>
      </trkpt>
      <trkpt lat="45.28378" lon="5.78447">
        <ele>1884.32</ele>
        <time>2022-02-23T11:47:40Z</time>
      </trkpt>
      <trkpt lat="45.28381" lon="5.78456">
        <ele>1887.21</ele>
        <time>2022-02-23T11:47:58Z</time>
      </trkpt>
      <trkpt lat="45.28384" lon="5.78463">
        <ele>1889.13</ele>
        <time>2022-02-23T11:48:13Z</time>
      </trkpt>
      <trkpt lat="45.28387" lon="5.7847">
        <ele>1891.05</ele>
        <time>2022-02-23T11:48:31Z</time>
      </trkpt>
      <trkpt lat="45.28389" lon="5.78479">
        <ele>1892.01</ele>
        <time>2022-02-23T11:48:49Z</time>
      </trkpt>
      <trkpt lat="45.28389" lon="5.78482">
        <ele>1893.45</ele>
        <time>2022-02-23T11:48:52Z</time>
      </trkpt>
      <trkpt lat="45.28394" lon="5.78489">
        <ele>1896.82</ele>
        <time>2022-02-23T11:49:07Z</time>
      </trkpt>
      <trkpt lat="45.28395" lon="5.78489">
        <ele>1896.82</ele>
        <time>2022-02-23T11:49:08Z</time>
      </trkpt>
      <trkpt lat="45.28395" lon="5.7849">
        <ele>1894.9</ele>
        <time>2022-02-23T11:49:10Z</time>
      </trkpt>
      <trkpt lat="45.28398" lon="5.78494">
        <ele>1897.78</ele>
        <time>2022-02-23T11:49:21Z</time>
      </trkpt>
      <trkpt lat="45.28401" lon="5.78499">
        <ele>1899.22</ele>
        <time>2022-02-23T11:49:35Z</time>
      </trkpt>
      <trkpt lat="45.28403" lon="5.785">
        <ele>1900.18</ele>
        <time>2022-02-23T11:49:42Z</time>
      </trkpt>
      <trkpt lat="45.28396" lon="5.78503">
        <ele>1902.59</ele>
        <time>2022-02-23T11:49:58Z</time>
      </trkpt>
      <trkpt lat="45.28395" lon="5.78504">
        <ele>1901.14</ele>
        <time>2022-02-23T11:50:00Z</time>
      </trkpt>
      <trkpt lat="45.28394" lon="5.78504">
        <ele>1903.07</ele>
        <time>2022-02-23T11:50:03Z</time>
      </trkpt>
      <trkpt lat="45.28392" lon="5.78505">
        <ele>1904.03</ele>
        <time>2022-02-23T11:50:09Z</time>
      </trkpt>
      <trkpt lat="45.28386" lon="5.78509">
        <ele>1904.99</ele>
        <time>2022-02-23T11:50:28Z</time>
      </trkpt>
      <trkpt lat="45.28385" lon="5.78509">
        <ele>1906.43</ele>
        <time>2022-02-23T11:50:30Z</time>
      </trkpt>
      <trkpt lat="45.28381" lon="5.78511">
        <ele>1907.87</ele>
        <time>2022-02-23T11:50:39Z</time>
      </trkpt>
      <trkpt lat="45.28379" lon="5.78512">
        <ele>1908.83</ele>
        <time>2022-02-23T11:50:46Z</time>
      </trkpt>
      <trkpt lat="45.28375" lon="5.78513">
        <ele>1909.32</ele>
        <time>2022-02-23T11:50:54Z</time>
      </trkpt>
      <trkpt lat="45.28375" lon="5.78519">
        <ele>1909.8</ele>
        <time>2022-02-23T11:51:03Z</time>
      </trkpt>
      <trkpt lat="45.28376" lon="5.78521">
        <ele>1911.72</ele>
        <time>2022-02-23T11:51:06Z</time>
      </trkpt>
      <trkpt lat="45.28376" lon="5.78522">
        <ele>1910.76</ele>
        <time>2022-02-23T11:51:08Z</time>
      </trkpt>
      <trkpt lat="45.28377" lon="5.78524">
        <ele>1912.68</ele>
        <time>2022-02-23T11:51:11Z</time>
      </trkpt>
      <trkpt lat="45.28381" lon="5.78531">
        <ele>1914.12</ele>
        <time>2022-02-23T11:51:26Z</time>
      </trkpt>
      <trkpt lat="45.28386" lon="5.78538">
        <ele>1916.53</ele>
        <time>2022-02-23T11:51:45Z</time>
      </trkpt>
      <trkpt lat="45.2839" lon="5.78547">
        <ele>1918.45</ele>
        <time>2022-02-23T11:52:06Z</time>
      </trkpt>
      <trkpt lat="45.28392" lon="5.78553">
        <ele>1918.45</ele>
        <time>2022-02-23T11:52:17Z</time>
      </trkpt>
      <trkpt lat="45.28392" lon="5.78553">
        <ele>1920.37</ele>
        <time>2022-02-23T11:52:19Z</time>
      </trkpt>
      <trkpt lat="45.28398" lon="5.78561">
        <ele>1922.77</ele>
        <time>2022-02-23T11:52:38Z</time>
      </trkpt>
      <trkpt lat="45.28403" lon="5.78567">
        <ele>1922.77</ele>
        <time>2022-02-23T11:52:55Z</time>
      </trkpt>
      <trkpt lat="45.28404" lon="5.78568">
        <ele>1925.18</ele>
        <time>2022-02-23T11:52:58Z</time>
      </trkpt>
      <trkpt lat="45.28404" lon="5.78569">
        <ele>1923.74</ele>
        <time>2022-02-23T11:53:00Z</time>
      </trkpt>
      <trkpt lat="45.28405" lon="5.7857">
        <ele>1925.18</ele>
        <time>2022-02-23T11:53:03Z</time>
      </trkpt>
      <trkpt lat="45.28412" lon="5.78576">
        <ele>1925.66</ele>
        <time>2022-02-23T11:53:20Z</time>
      </trkpt>
      <trkpt lat="45.28418" lon="5.78581">
        <ele>1929.5</ele>
        <time>2022-02-23T11:53:39Z</time>
      </trkpt>
      <trkpt lat="45.28421" lon="5.78583">
        <ele>1930.46</ele>
        <time>2022-02-23T11:53:48Z</time>
      </trkpt>
      <trkpt lat="45.28424" lon="5.78587">
        <ele>1930.95</ele>
        <time>2022-02-23T11:53:57Z</time>
      </trkpt>
      <trkpt lat="45.28428" lon="5.78591">
        <ele>1933.35</ele>
        <time>2022-02-23T11:54:11Z</time>
      </trkpt>
      <trkpt lat="45.28422" lon="5.78593">
        <ele>1935.27</ele>
        <time>2022-02-23T11:54:29Z</time>
      </trkpt>
      <trkpt lat="45.2842" lon="5.78594">
        <ele>1936.23</ele>
        <time>2022-02-23T11:54:36Z</time>
      </trkpt>
      <trkpt lat="45.28412" lon="5.78599">
        <ele>1937.19</ele>
        <time>2022-02-23T11:54:56Z</time>
      </trkpt>
      <trkpt lat="45.2841" lon="5.78602">
        <ele>1938.64</ele>
        <time>2022-02-23T11:55:00Z</time>
      </trkpt>
      <trkpt lat="45.28405" lon="5.78605">
        <ele>1939.6</ele>
        <time>2022-02-23T11:55:17Z</time>
      </trkpt>
      <trkpt lat="45.28407" lon="5.78608">
        <ele>1941.04</ele>
        <time>2022-02-23T11:55:23Z</time>
      </trkpt>
      <trkpt lat="45.28409" lon="5.78614">
        <ele>1940.56</ele>
        <time>2022-02-23T11:55:34Z</time>
      </trkpt>
      <trkpt lat="45.2841" lon="5.78614">
        <ele>1942.48</ele>
        <time>2022-02-23T11:55:36Z</time>
      </trkpt>
      <trkpt lat="45.28418" lon="5.78617">
        <ele>1943.92</ele>
        <time>2022-02-23T11:55:53Z</time>
      </trkpt>
      <trkpt lat="45.28421" lon="5.78617">
        <ele>1944.88</ele>
        <time>2022-02-23T11:56:12Z</time>
      </trkpt>
      <trkpt lat="45.28421" lon="5.78618">
        <ele>1944.88</ele>
        <time>2022-02-23T11:56:23Z</time>
      </trkpt>
      <trkpt lat="45.28421" lon="5.78618">
        <ele>1944.88</ele>
        <time>2022-02-23T11:56:30Z</time>
      </trkpt>
      <trkpt lat="45.28421" lon="5.78618">
        <ele>1942.96</ele>
        <time>2022-02-23T11:56:32Z</time>
      </trkpt>
      <trkpt lat="45.28421" lon="5.78618">
        <ele>1944.88</ele>
        <time>2022-02-23T11:56:34Z</time>
      </trkpt>
      <trkpt lat="45.2843" lon="5.78625">
        <ele>1945.85</ele>
        <time>2022-02-23T11:56:53Z</time>
      </trkpt>
      <trkpt lat="45.28432" lon="5.78627">
        <ele>1948.73</ele>
        <time>2022-02-23T11:57:01Z</time>
      </trkpt>
      <trkpt lat="45.2844" lon="5.78632">
        <ele>1950.17</ele>
        <time>2022-02-23T11:57:20Z</time>
      </trkpt>
      <trkpt lat="45.28446" lon="5.78635">
        <ele>1952.57</ele>
        <time>2022-02-23T11:57:37Z</time>
      </trkpt>
      <trkpt lat="45.28455" lon="5.78636">
        <ele>1954.5</ele>
        <time>2022-02-23T11:57:54Z</time>
      </trkpt>
      <trkpt lat="45.28462" lon="5.78644">
        <ele>1957.38</ele>
        <time>2022-02-23T11:58:16Z</time>
      </trkpt>
      <trkpt lat="45.28467" lon="5.78649">
        <ele>1959.78</ele>
        <time>2022-02-23T11:58:32Z</time>
      </trkpt>
      <trkpt lat="45.28467" lon="5.78649">
        <ele>1958.34</ele>
        <time>2022-02-23T11:58:34Z</time>
      </trkpt>
      <trkpt lat="45.28473" lon="5.78653">
        <ele>1961.71</ele>
        <time>2022-02-23T11:58:51Z</time>
      </trkpt>
      <trkpt lat="45.28479" lon="5.78658">
        <ele>1962.19</ele>
        <time>2022-02-23T11:59:08Z</time>
      </trkpt>
      <trkpt lat="45.28484" lon="5.7866">
        <ele>1965.55</ele>
        <time>2022-02-23T11:59:22Z</time>
      </trkpt>
      <trkpt lat="45.28491" lon="5.78662">
        <ele>1967.96</ele>
        <time>2022-02-23T11:59:40Z</time>
      </trkpt>
      <trkpt lat="45.28498" lon="5.78665">
        <ele>1971.32</ele>
        <time>2022-02-23T11:59:55Z</time>
      </trkpt>
      <trkpt lat="45.28504" lon="5.78668">
        <ele>1972.28</ele>
        <time>2022-02-23T12:00:12Z</time>
      </trkpt>
      <trkpt lat="45.28511" lon="5.78671">
        <ele>1974.69</ele>
        <time>2022-02-23T12:00:31Z</time>
      </trkpt>
      <trkpt lat="45.28507" lon="5.78677">
        <ele>1975.65</ele>
        <time>2022-02-23T12:00:47Z</time>
      </trkpt>
      <trkpt lat="45.285" lon="5.78684">
        <ele>1978.05</ele>
        <time>2022-02-23T12:01:05Z</time>
      </trkpt>
      <trkpt lat="45.28494" lon="5.78688">
        <ele>1979.97</ele>
        <time>2022-02-23T12:01:19Z</time>
      </trkpt>
      <trkpt lat="45.28489" lon="5.78696">
        <ele>1980.93</ele>
        <time>2022-02-23T12:01:35Z</time>
      </trkpt>
      <trkpt lat="45.28488" lon="5.78697">
        <ele>1982.38</ele>
        <time>2022-02-23T12:01:38Z</time>
      </trkpt>
      <trkpt lat="45.28485" lon="5.78701">
        <ele>1983.82</ele>
        <time>2022-02-23T12:01:48Z</time>
      </trkpt>
      <trkpt lat="45.28484" lon="5.78701">
        <ele>1982.38</ele>
        <time>2022-02-23T12:01:50Z</time>
      </trkpt>
      <trkpt lat="45.28483" lon="5.78702">
        <ele>1985.26</ele>
        <time>2022-02-23T12:01:53Z</time>
      </trkpt>
      <trkpt lat="45.28483" lon="5.78705">
        <ele>1986.7</ele>
        <time>2022-02-23T12:02:08Z</time>
      </trkpt>
      <trkpt lat="45.28488" lon="5.78706">
        <ele>1986.22</ele>
        <time>2022-02-23T12:02:19Z</time>
      </trkpt>
      <trkpt lat="45.28489" lon="5.78706">
        <ele>1988.14</ele>
        <time>2022-02-23T12:02:22Z</time>
      </trkpt>
      <trkpt lat="45.28494" lon="5.78708">
        <ele>1990.55</ele>
        <time>2022-02-23T12:02:37Z</time>
      </trkpt>
      <trkpt lat="45.28499" lon="5.78712">
        <ele>1991.51</ele>
        <time>2022-02-23T12:02:53Z</time>
      </trkpt>
      <trkpt lat="45.28499" lon="5.78718">
        <ele>1993.43</ele>
        <time>2022-02-23T12:03:11Z</time>
      </trkpt>
      <trkpt lat="45.28498" lon="5.78717">
        <ele>1991.99</ele>
        <time>2022-02-23T12:03:15Z</time>
      </trkpt>
      <trkpt lat="45.28501" lon="5.78715">
        <ele>1991.03</ele>
        <time>2022-02-23T12:03:29Z</time>
      </trkpt>
      <trkpt lat="45.28504" lon="5.78711">
        <ele>1992.47</ele>
        <time>2022-02-23T12:03:36Z</time>
      </trkpt>
      <trkpt lat="45.28505" lon="5.78709">
        <ele>1991.03</ele>
        <time>2022-02-23T12:03:38Z</time>
      </trkpt>
      <trkpt lat="45.28513" lon="5.7871">
        <ele>1991.51</ele>
        <time>2022-02-23T12:03:56Z</time>
      </trkpt>
      <trkpt lat="45.28517" lon="5.78709">
        <ele>1992.47</ele>
        <time>2022-02-23T12:04:17Z</time>
      </trkpt>
      <trkpt lat="45.28519" lon="5.7871">
        <ele>1993.91</ele>
        <time>2022-02-23T12:04:23Z</time>
      </trkpt>
      <trkpt lat="45.2852" lon="5.78712">
        <ele>1994.39</ele>
        <time>2022-02-23T12:04:37Z</time>
      </trkpt>
      <trkpt lat="45.28519" lon="5.78713">
        <ele>1994.87</ele>
        <time>2022-02-23T12:04:51Z</time>
      </trkpt>
      <trkpt lat="45.2852" lon="5.78714">
        <ele>1996.32</ele>
        <time>2022-02-23T12:04:57Z</time>
      </trkpt>
      <trkpt lat="45.28524" lon="5.78717">
        <ele>1998.24</ele>
        <time>2022-02-23T12:05:17Z</time>
      </trkpt>
      <trkpt lat="45.28524" lon="5.78717">
        <ele>1998.24</ele>
        <time>2022-02-23T12:05:18Z</time>
      </trkpt>
      <trkpt lat="45.28529" lon="5.78719">
        <ele>1999.2</ele>
        <time>2022-02-23T12:05:33Z</time>
      </trkpt>
      <trkpt lat="45.28538" lon="5.78717">
        <ele>2000.64</ele>
        <time>2022-02-23T12:05:52Z</time>
      </trkpt>
      <trkpt lat="45.28542" lon="5.78719">
        <ele>2003.04</ele>
        <time>2022-02-23T12:06:10Z</time>
      </trkpt>
      <trkpt lat="45.28539" lon="5.78725">
        <ele>2005.45</ele>
        <time>2022-02-23T12:06:27Z</time>
      </trkpt>
      <trkpt lat="45.28538" lon="5.78731">
        <ele>2006.41</ele>
        <time>2022-02-23T12:06:49Z</time>
      </trkpt>
      <trkpt lat="45.28537" lon="5.78731">
        <ele>2006.89</ele>
        <time>2022-02-23T12:07:14Z</time>
      </trkpt>
      <trkpt lat="45.28538" lon="5.78733">
        <ele>2007.37</ele>
        <time>2022-02-23T12:07:25Z</time>
      </trkpt>
      <trkpt lat="45.28544" lon="5.78732">
        <ele>2007.37</ele>
        <time>2022-02-23T12:07:41Z</time>
      </trkpt>
      <trkpt lat="45.2855" lon="5.78733">
        <ele>2009.77</ele>
        <time>2022-02-23T12:08:01Z</time>
      </trkpt>
      <trkpt lat="45.28553" lon="5.78734">
        <ele>2011.22</ele>
        <time>2022-02-23T12:08:09Z</time>
      </trkpt>
      <trkpt lat="45.28559" lon="5.78736">
        <ele>2013.62</ele>
        <time>2022-02-23T12:08:27Z</time>
      </trkpt>
      <trkpt lat="45.28562" lon="5.78734">
        <ele>2013.14</ele>
        <time>2022-02-23T12:08:34Z</time>
      </trkpt>
      <trkpt lat="45.28562" lon="5.78734">
        <ele>2014.58</ele>
        <time>2022-02-23T12:08:36Z</time>
      </trkpt>
      <trkpt lat="45.2856" lon="5.78737">
        <ele>2016.98</ele>
        <time>2022-02-23T12:08:54Z</time>
      </trkpt>
      <trkpt lat="45.2856" lon="5.78737">
        <ele>2016.98</ele>
        <time>2022-02-23T12:08:55Z</time>
      </trkpt>
      <trkpt lat="45.28559" lon="5.78743">
        <ele>2018.43</ele>
        <time>2022-02-23T12:09:11Z</time>
      </trkpt>
      <trkpt lat="45.2856" lon="5.78743">
        <ele>2018.43</ele>
        <time>2022-02-23T12:09:30Z</time>
      </trkpt>
      <trkpt lat="45.28562" lon="5.78741">
        <ele>2018.91</ele>
        <time>2022-02-23T12:36:18Z</time>
      </trkpt>
      <trkpt lat="45.28566" lon="5.78731">
        <ele>2015.54</ele>
        <time>2022-02-23T12:36:22Z</time>
      </trkpt>
      <trkpt lat="45.28568" lon="5.78728">
        <ele>2015.06</ele>
        <time>2022-02-23T12:36:24Z</time>
      </trkpt>
      <trkpt lat="45.28577" lon="5.78722">
        <ele>2012.18</ele>
        <time>2022-02-23T12:36:38Z</time>
      </trkpt>
      <trkpt lat="45.28588" lon="5.78714">
        <ele>2009.77</ele>
        <time>2022-02-23T12:36:44Z</time>
      </trkpt>
      <trkpt lat="45.28594" lon="5.78711">
        <ele>2006.89</ele>
        <time>2022-02-23T12:36:49Z</time>
      </trkpt>
      <trkpt lat="45.28597" lon="5.78706">
        <ele>2006.41</ele>
        <time>2022-02-23T12:36:52Z</time>
      </trkpt>
      <trkpt lat="45.28599" lon="5.78704">
        <ele>2005.93</ele>
        <time>2022-02-23T12:36:54Z</time>
      </trkpt>
      <trkpt lat="45.28596" lon="5.78697">
        <ele>2003.04</ele>
        <time>2022-02-23T12:36:58Z</time>
      </trkpt>
      <trkpt lat="45.28598" lon="5.78697">
        <ele>2002.08</ele>
        <time>2022-02-23T12:37:12Z</time>
      </trkpt>
      <trkpt lat="45.28599" lon="5.78692">
        <ele>2000.16</ele>
        <time>2022-02-23T12:37:15Z</time>
      </trkpt>
      <trkpt lat="45.28597" lon="5.78688">
        <ele>1998.72</ele>
        <time>2022-02-23T12:37:17Z</time>
      </trkpt>
      <trkpt lat="45.28594" lon="5.78687">
        <ele>1996.32</ele>
        <time>2022-02-23T12:37:18Z</time>
      </trkpt>
      <trkpt lat="45.28593" lon="5.78686">
        <ele>2000.16</ele>
        <time>2022-02-23T12:37:19Z</time>
      </trkpt>
      <trkpt lat="45.28592" lon="5.78684">
        <ele>1994.87</ele>
        <time>2022-02-23T12:37:20Z</time>
      </trkpt>
      <trkpt lat="45.28593" lon="5.78683">
        <ele>1994.87</ele>
        <time>2022-02-23T12:37:21Z</time>
      </trkpt>
      <trkpt lat="45.28595" lon="5.78681">
        <ele>1994.39</ele>
        <time>2022-02-23T12:37:23Z</time>
      </trkpt>
      <trkpt lat="45.28587" lon="5.78681">
        <ele>1992.95</ele>
        <time>2022-02-23T12:37:27Z</time>
      </trkpt>
      <trkpt lat="45.28584" lon="5.7868">
        <ele>1991.51</ele>
        <time>2022-02-23T12:37:28Z</time>
      </trkpt>
      <trkpt lat="45.28581" lon="5.7868">
        <ele>1991.51</ele>
        <time>2022-02-23T12:37:29Z</time>
      </trkpt>
      <trkpt lat="45.28573" lon="5.7868">
        <ele>1989.59</ele>
        <time>2022-02-23T12:37:31Z</time>
      </trkpt>
      <trkpt lat="45.2856" lon="5.7868">
        <ele>1987.66</ele>
        <time>2022-02-23T12:37:35Z</time>
      </trkpt>
      <trkpt lat="45.28549" lon="5.7868">
        <ele>1989.1</ele>
        <time>2022-02-23T12:37:39Z</time>
      </trkpt>
      <trkpt lat="45.28548" lon="5.78677">
        <ele>1985.26</ele>
        <time>2022-02-23T12:37:40Z</time>
      </trkpt>
      <trkpt lat="45.28549" lon="5.78673">
        <ele>1983.34</ele>
        <time>2022-02-23T12:37:41Z</time>
      </trkpt>
      <trkpt lat="45.28552" lon="5.78667">
        <ele>1980.93</ele>
        <time>2022-02-23T12:37:43Z</time>
      </trkpt>
      <trkpt lat="45.28552" lon="5.78662">
        <ele>1977.57</ele>
        <time>2022-02-23T12:37:45Z</time>
      </trkpt>
      <trkpt lat="45.2855" lon="5.78659">
        <ele>1980.93</ele>
        <time>2022-02-23T12:37:46Z</time>
      </trkpt>
      <trkpt lat="45.28548" lon="5.78656">
        <ele>1976.61</ele>
        <time>2022-02-23T12:37:47Z</time>
      </trkpt>
      <trkpt lat="45.28549" lon="5.78652">
        <ele>1974.2</ele>
        <time>2022-02-23T12:37:48Z</time>
      </trkpt>
      <trkpt lat="45.28552" lon="5.78649">
        <ele>1972.76</ele>
        <time>2022-02-23T12:37:49Z</time>
      </trkpt>
      <trkpt lat="45.28554" lon="5.78647">
        <ele>1971.8</ele>
        <time>2022-02-23T12:37:50Z</time>
      </trkpt>
      <trkpt lat="45.28556" lon="5.78645">
        <ele>1971.8</ele>
        <time>2022-02-23T12:37:51Z</time>
      </trkpt>
      <trkpt lat="45.28555" lon="5.78643">
        <ele>1969.88</ele>
        <time>2022-02-23T12:37:53Z</time>
      </trkpt>
      <trkpt lat="45.28546" lon="5.78641">
        <ele>1966.99</ele>
        <time>2022-02-23T12:37:54Z</time>
      </trkpt>
      <trkpt lat="45.2854" lon="5.78642">
        <ele>1966.03</ele>
        <time>2022-02-23T12:37:55Z</time>
      </trkpt>
      <trkpt lat="45.28536" lon="5.78642">
        <ele>1965.07</ele>
        <time>2022-02-23T12:37:56Z</time>
      </trkpt>
      <trkpt lat="45.28534" lon="5.78639">
        <ele>1966.51</ele>
        <time>2022-02-23T12:37:57Z</time>
      </trkpt>
      <trkpt lat="45.28533" lon="5.78634">
        <ele>1963.63</ele>
        <time>2022-02-23T12:37:58Z</time>
      </trkpt>
      <trkpt lat="45.28537" lon="5.78628">
        <ele>1962.19</ele>
        <time>2022-02-23T12:38:00Z</time>
      </trkpt>
      <trkpt lat="45.28541" lon="5.78624">
        <ele>1960.75</ele>
        <time>2022-02-23T12:38:02Z</time>
      </trkpt>
      <trkpt lat="45.28537" lon="5.78619">
        <ele>1954.98</ele>
        <time>2022-02-23T12:38:05Z</time>
      </trkpt>
      <trkpt lat="45.28532" lon="5.78617">
        <ele>1959.78</ele>
        <time>2022-02-23T12:38:06Z</time>
      </trkpt>
      <trkpt lat="45.28529" lon="5.78612">
        <ele>1954.98</ele>
        <time>2022-02-23T12:38:07Z</time>
      </trkpt>
      <trkpt lat="45.28531" lon="5.78602">
        <ele>1950.17</ele>
        <time>2022-02-23T12:38:09Z</time>
      </trkpt>
      <trkpt lat="45.28532" lon="5.78599">
        <ele>1950.65</ele>
        <time>2022-02-23T12:38:10Z</time>
      </trkpt>
      <trkpt lat="45.28531" lon="5.78595">
        <ele>1947.29</ele>
        <time>2022-02-23T12:38:12Z</time>
      </trkpt>
      <trkpt lat="45.28529" lon="5.78595">
        <ele>1947.29</ele>
        <time>2022-02-23T12:38:13Z</time>
      </trkpt>
      <trkpt lat="45.28519" lon="5.78597">
        <ele>1948.73</ele>
        <time>2022-02-23T12:38:27Z</time>
      </trkpt>
      <trkpt lat="45.2852" lon="5.7859">
        <ele>1943.92</ele>
        <time>2022-02-23T12:38:30Z</time>
      </trkpt>
      <trkpt lat="45.28519" lon="5.78579">
        <ele>1940.08</ele>
        <time>2022-02-23T12:38:33Z</time>
      </trkpt>
      <trkpt lat="45.28513" lon="5.78576">
        <ele>1936.71</ele>
        <time>2022-02-23T12:38:34Z</time>
      </trkpt>
      <trkpt lat="45.28512" lon="5.78574">
        <ele>1941.04</ele>
        <time>2022-02-23T12:38:35Z</time>
      </trkpt>
      <trkpt lat="45.28511" lon="5.7857">
        <ele>1936.71</ele>
        <time>2022-02-23T12:38:36Z</time>
      </trkpt>
      <trkpt lat="45.28513" lon="5.78565">
        <ele>1933.35</ele>
        <time>2022-02-23T12:38:37Z</time>
      </trkpt>
      <trkpt lat="45.28512" lon="5.78553">
        <ele>1924.7</ele>
        <time>2022-02-23T12:38:41Z</time>
      </trkpt>
      <trkpt lat="45.28504" lon="5.78544">
        <ele>1921.33</ele>
        <time>2022-02-23T12:38:44Z</time>
      </trkpt>
      <trkpt lat="45.28506" lon="5.78535">
        <ele>1917.49</ele>
        <time>2022-02-23T12:38:46Z</time>
      </trkpt>
      <trkpt lat="45.28504" lon="5.78533">
        <ele>1917.01</ele>
        <time>2022-02-23T12:38:47Z</time>
      </trkpt>
      <trkpt lat="45.285" lon="5.7853">
        <ele>1915.08</ele>
        <time>2022-02-23T12:38:49Z</time>
      </trkpt>
      <trkpt lat="45.28493" lon="5.7853">
        <ele>1912.2</ele>
        <time>2022-02-23T12:38:51Z</time>
      </trkpt>
      <trkpt lat="45.28484" lon="5.78524">
        <ele>1912.2</ele>
        <time>2022-02-23T12:38:53Z</time>
      </trkpt>
      <trkpt lat="45.28485" lon="5.78519">
        <ele>1910.28</ele>
        <time>2022-02-23T12:38:55Z</time>
      </trkpt>
      <trkpt lat="45.28487" lon="5.78514">
        <ele>1908.35</ele>
        <time>2022-02-23T12:38:56Z</time>
      </trkpt>
      <trkpt lat="45.28488" lon="5.78502">
        <ele>1903.55</ele>
        <time>2022-02-23T12:39:00Z</time>
      </trkpt>
      <trkpt lat="45.28493" lon="5.78492">
        <ele>1898.74</ele>
        <time>2022-02-23T12:39:03Z</time>
      </trkpt>
      <trkpt lat="45.28501" lon="5.78483">
        <ele>1892.49</ele>
        <time>2022-02-23T12:39:07Z</time>
      </trkpt>
      <trkpt lat="45.28503" lon="5.78479">
        <ele>1891.05</ele>
        <time>2022-02-23T12:39:08Z</time>
      </trkpt>
      <trkpt lat="45.28505" lon="5.78474">
        <ele>1888.17</ele>
        <time>2022-02-23T12:39:10Z</time>
      </trkpt>
      <trkpt lat="45.28505" lon="5.78475">
        <ele>1888.65</ele>
        <time>2022-02-23T12:39:11Z</time>
      </trkpt>
      <trkpt lat="45.28487" lon="5.7847">
        <ele>1888.65</ele>
        <time>2022-02-23T12:39:30Z</time>
      </trkpt>
      <trkpt lat="45.28482" lon="5.78467">
        <ele>1888.65</ele>
        <time>2022-02-23T12:39:34Z</time>
      </trkpt>
      <trkpt lat="45.28484" lon="5.7846">
        <ele>1885.28</ele>
        <time>2022-02-23T12:39:36Z</time>
      </trkpt>
      <trkpt lat="45.28485" lon="5.78456">
        <ele>1883.84</ele>
        <time>2022-02-23T12:39:37Z</time>
      </trkpt>
      <trkpt lat="45.28484" lon="5.78452">
        <ele>1883.84</ele>
        <time>2022-02-23T12:39:38Z</time>
      </trkpt>
      <trkpt lat="45.28483" lon="5.78449">
        <ele>1883.84</ele>
        <time>2022-02-23T12:39:39Z</time>
      </trkpt>
      <trkpt lat="45.28483" lon="5.78445">
        <ele>1880.48</ele>
        <time>2022-02-23T12:39:40Z</time>
      </trkpt>
      <trkpt lat="45.28485" lon="5.78441">
        <ele>1879.03</ele>
        <time>2022-02-23T12:39:41Z</time>
      </trkpt>
      <trkpt lat="45.28487" lon="5.78431">
        <ele>1876.15</ele>
        <time>2022-02-23T12:39:43Z</time>
      </trkpt>
      <trkpt lat="45.28487" lon="5.78428">
        <ele>1875.19</ele>
        <time>2022-02-23T12:39:44Z</time>
      </trkpt>
      <trkpt lat="45.28487" lon="5.78426">
        <ele>1872.3</ele>
        <time>2022-02-23T12:39:45Z</time>
      </trkpt>
      <trkpt lat="45.28482" lon="5.78422">
        <ele>1875.67</ele>
        <time>2022-02-23T12:39:47Z</time>
      </trkpt>
      <trkpt lat="45.28481" lon="5.7842">
        <ele>1871.34</ele>
        <time>2022-02-23T12:39:48Z</time>
      </trkpt>
      <trkpt lat="45.28482" lon="5.78411">
        <ele>1867.5</ele>
        <time>2022-02-23T12:39:50Z</time>
      </trkpt>
      <trkpt lat="45.28483" lon="5.78409">
        <ele>1865.09</ele>
        <time>2022-02-23T12:39:51Z</time>
      </trkpt>
      <trkpt lat="45.28485" lon="5.78401">
        <ele>1862.69</ele>
        <time>2022-02-23T12:39:54Z</time>
      </trkpt>
      <trkpt lat="45.28491" lon="5.78397">
        <ele>1858.85</ele>
        <time>2022-02-23T12:39:56Z</time>
      </trkpt>
      <trkpt lat="45.28497" lon="5.78392">
        <ele>1857.89</ele>
        <time>2022-02-23T12:39:58Z</time>
      </trkpt>
      <trkpt lat="45.28496" lon="5.7839">
        <ele>1857.4</ele>
        <time>2022-02-23T12:39:59Z</time>
      </trkpt>
      <trkpt lat="45.28491" lon="5.78386">
        <ele>1855</ele>
        <time>2022-02-23T12:40:01Z</time>
      </trkpt>
      <trkpt lat="45.28478" lon="5.78383">
        <ele>1856.44</ele>
        <time>2022-02-23T12:40:05Z</time>
      </trkpt>
      <trkpt lat="45.28479" lon="5.78376">
        <ele>1851.64</ele>
        <time>2022-02-23T12:40:08Z</time>
      </trkpt>
      <trkpt lat="45.28484" lon="5.78368">
        <ele>1848.27</ele>
        <time>2022-02-23T12:40:10Z</time>
      </trkpt>
      <trkpt lat="45.28485" lon="5.78367">
        <ele>1850.19</ele>
        <time>2022-02-23T12:40:11Z</time>
      </trkpt>
      <trkpt lat="45.28484" lon="5.78359">
        <ele>1846.35</ele>
        <time>2022-02-23T12:40:12Z</time>
      </trkpt>
      <trkpt lat="45.28486" lon="5.78352">
        <ele>1843.47</ele>
        <time>2022-02-23T12:40:14Z</time>
      </trkpt>
      <trkpt lat="45.2849" lon="5.78349">
        <ele>1842.02</ele>
        <time>2022-02-23T12:40:18Z</time>
      </trkpt>
      <trkpt lat="45.28483" lon="5.78343">
        <ele>1839.62</ele>
        <time>2022-02-23T12:40:22Z</time>
      </trkpt>
      <trkpt lat="45.28473" lon="5.78326">
        <ele>1836.26</ele>
        <time>2022-02-23T12:40:27Z</time>
      </trkpt>
      <trkpt lat="45.28472" lon="5.78319">
        <ele>1834.81</ele>
        <time>2022-02-23T12:40:29Z</time>
      </trkpt>
      <trkpt lat="45.28476" lon="5.78311">
        <ele>1832.41</ele>
        <time>2022-02-23T12:40:31Z</time>
      </trkpt>
      <trkpt lat="45.28477" lon="5.78309">
        <ele>1831.93</ele>
        <time>2022-02-23T12:40:32Z</time>
      </trkpt>
      <trkpt lat="45.28478" lon="5.78308">
        <ele>1830.49</ele>
        <time>2022-02-23T12:40:33Z</time>
      </trkpt>
      <trkpt lat="45.28477" lon="5.78307">
        <ele>1830.49</ele>
        <time>2022-02-23T12:40:34Z</time>
      </trkpt>
      <trkpt lat="45.2847" lon="5.783">
        <ele>1828.56</ele>
        <time>2022-02-23T12:40:37Z</time>
      </trkpt>
      <trkpt lat="45.28467" lon="5.78296">
        <ele>1828.56</ele>
        <time>2022-02-23T12:40:38Z</time>
      </trkpt>
      <trkpt lat="45.28458" lon="5.78287">
        <ele>1831.93</ele>
        <time>2022-02-23T12:40:41Z</time>
      </trkpt>
      <trkpt lat="45.28458" lon="5.78283">
        <ele>1828.56</ele>
        <time>2022-02-23T12:40:42Z</time>
      </trkpt>
      <trkpt lat="45.28459" lon="5.78277">
        <ele>1826.64</ele>
        <time>2022-02-23T12:40:43Z</time>
      </trkpt>
      <trkpt lat="45.28459" lon="5.78268">
        <ele>1823.76</ele>
        <time>2022-02-23T12:40:45Z</time>
      </trkpt>
      <trkpt lat="45.28459" lon="5.78267">
        <ele>1823.76</ele>
        <time>2022-02-23T12:40:46Z</time>
      </trkpt>
      <trkpt lat="45.2846" lon="5.78267">
        <ele>1823.28</ele>
        <time>2022-02-23T12:40:47Z</time>
      </trkpt>
      <trkpt lat="45.28461" lon="5.78267">
        <ele>1823.28</ele>
        <time>2022-02-23T12:40:48Z</time>
      </trkpt>
      <trkpt lat="45.28464" lon="5.78266">
        <ele>1822.8</ele>
        <time>2022-02-23T12:40:49Z</time>
      </trkpt>
      <trkpt lat="45.28466" lon="5.78258">
        <ele>1820.39</ele>
        <time>2022-02-23T12:40:52Z</time>
      </trkpt>
      <trkpt lat="45.28464" lon="5.78255">
        <ele>1820.39</ele>
        <time>2022-02-23T12:40:53Z</time>
      </trkpt>
      <trkpt lat="45.28463" lon="5.78253">
        <ele>1820.39</ele>
        <time>2022-02-23T12:40:54Z</time>
      </trkpt>
      <trkpt lat="45.28443" lon="5.78243">
        <ele>1821.35</ele>
        <time>2022-02-23T12:41:03Z</time>
      </trkpt>
      <trkpt lat="45.28443" lon="5.78243">
        <ele>1819.43</ele>
        <time>2022-02-23T12:41:04Z</time>
      </trkpt>
      <trkpt lat="45.2846" lon="5.78246">
        <ele>1817.03</ele>
        <time>2022-02-23T12:41:10Z</time>
      </trkpt>
      <trkpt lat="45.28469" lon="5.78246">
        <ele>1815.59</ele>
        <time>2022-02-23T12:41:16Z</time>
      </trkpt>
      <trkpt lat="45.28473" lon="5.78244">
        <ele>1813.18</ele>
        <time>2022-02-23T12:41:20Z</time>
      </trkpt>
      <trkpt lat="45.28474" lon="5.78239">
        <ele>1812.7</ele>
        <time>2022-02-23T12:41:35Z</time>
      </trkpt>
      <trkpt lat="45.2849" lon="5.78241">
        <ele>1808.86</ele>
        <time>2022-02-23T12:41:42Z</time>
      </trkpt>
      <trkpt lat="45.28492" lon="5.78239">
        <ele>1808.86</ele>
        <time>2022-02-23T12:41:43Z</time>
      </trkpt>
      <trkpt lat="45.28494" lon="5.78238">
        <ele>1808.38</ele>
        <time>2022-02-23T12:41:44Z</time>
      </trkpt>
      <trkpt lat="45.28499" lon="5.78236">
        <ele>1806.94</ele>
        <time>2022-02-23T12:41:49Z</time>
      </trkpt>
      <trkpt lat="45.285" lon="5.78233">
        <ele>1805.01</ele>
        <time>2022-02-23T12:41:50Z</time>
      </trkpt>
      <trkpt lat="45.28502" lon="5.78231">
        <ele>1803.57</ele>
        <time>2022-02-23T12:41:51Z</time>
      </trkpt>
      <trkpt lat="45.28508" lon="5.7823">
        <ele>1802.13</ele>
        <time>2022-02-23T12:41:53Z</time>
      </trkpt>
      <trkpt lat="45.28515" lon="5.78232">
        <ele>1801.17</ele>
        <time>2022-02-23T12:42:02Z</time>
      </trkpt>
      <trkpt lat="45.28517" lon="5.78235">
        <ele>1800.21</ele>
        <time>2022-02-23T12:42:09Z</time>
      </trkpt>
      <trkpt lat="45.28519" lon="5.78235">
        <ele>1800.21</ele>
        <time>2022-02-23T12:42:10Z</time>
      </trkpt>
      <trkpt lat="45.28521" lon="5.78233">
        <ele>1798.76</ele>
        <time>2022-02-23T12:42:11Z</time>
      </trkpt>
      <trkpt lat="45.2852" lon="5.78229">
        <ele>1799.73</ele>
        <time>2022-02-23T12:42:13Z</time>
      </trkpt>
      <trkpt lat="45.28526" lon="5.78228">
        <ele>1795.88</ele>
        <time>2022-02-23T12:42:16Z</time>
      </trkpt>
      <trkpt lat="45.28531" lon="5.78226">
        <ele>1793.96</ele>
        <time>2022-02-23T12:42:18Z</time>
      </trkpt>
      <trkpt lat="45.28532" lon="5.78223">
        <ele>1792.52</ele>
        <time>2022-02-23T12:42:19Z</time>
      </trkpt>
      <trkpt lat="45.28533" lon="5.78222">
        <ele>1791.55</ele>
        <time>2022-02-23T12:42:20Z</time>
      </trkpt>
      <trkpt lat="45.28531" lon="5.78208">
        <ele>1788.19</ele>
        <time>2022-02-23T12:42:24Z</time>
      </trkpt>
      <trkpt lat="45.28531" lon="5.78199">
        <ele>1784.82</ele>
        <time>2022-02-23T12:42:34Z</time>
      </trkpt>
      <trkpt lat="45.28529" lon="5.7819">
        <ele>1781.46</ele>
        <time>2022-02-23T12:42:39Z</time>
      </trkpt>
      <trkpt lat="45.28531" lon="5.78191">
        <ele>1780.5</ele>
        <time>2022-02-23T12:42:40Z</time>
      </trkpt>
      <trkpt lat="45.28552" lon="5.78199">
        <ele>1777.61</ele>
        <time>2022-02-23T12:42:48Z</time>
      </trkpt>
      <trkpt lat="45.28554" lon="5.78196">
        <ele>1777.13</ele>
        <time>2022-02-23T12:42:54Z</time>
      </trkpt>
      <trkpt lat="45.28567" lon="5.7819">
        <ele>1773.77</ele>
        <time>2022-02-23T12:42:59Z</time>
      </trkpt>
      <trkpt lat="45.28576" lon="5.78192">
        <ele>1771.37</ele>
        <time>2022-02-23T12:43:03Z</time>
      </trkpt>
      <trkpt lat="45.28592" lon="5.78191">
        <ele>1768</ele>
        <time>2022-02-23T12:43:10Z</time>
      </trkpt>
      <trkpt lat="45.28594" lon="5.78191">
        <ele>1766.56</ele>
        <time>2022-02-23T12:43:11Z</time>
      </trkpt>
      <trkpt lat="45.28603" lon="5.7819">
        <ele>1763.2</ele>
        <time>2022-02-23T12:43:15Z</time>
      </trkpt>
      <trkpt lat="45.28599" lon="5.78187">
        <ele>1763.2</ele>
        <time>2022-02-23T12:43:16Z</time>
      </trkpt>
      <trkpt lat="45.28591" lon="5.78182">
        <ele>1763.68</ele>
        <time>2022-02-23T12:43:20Z</time>
      </trkpt>
      <trkpt lat="45.28594" lon="5.78181">
        <ele>1760.31</ele>
        <time>2022-02-23T12:43:22Z</time>
      </trkpt>
      <trkpt lat="45.28598" lon="5.78181">
        <ele>1759.35</ele>
        <time>2022-02-23T12:43:23Z</time>
      </trkpt>
      <trkpt lat="45.28602" lon="5.78181">
        <ele>1757.91</ele>
        <time>2022-02-23T12:43:24Z</time>
      </trkpt>
      <trkpt lat="45.28605" lon="5.78181">
        <ele>1756.95</ele>
        <time>2022-02-23T12:43:25Z</time>
      </trkpt>
      <trkpt lat="45.28609" lon="5.78182">
        <ele>1755.5</ele>
        <time>2022-02-23T12:43:26Z</time>
      </trkpt>
      <trkpt lat="45.28611" lon="5.78182">
        <ele>1755.5</ele>
        <time>2022-02-23T12:43:27Z</time>
      </trkpt>
      <trkpt lat="45.28619" lon="5.78187">
        <ele>1754.54</ele>
        <time>2022-02-23T12:43:29Z</time>
      </trkpt>
      <trkpt lat="45.28622" lon="5.78191">
        <ele>1754.54</ele>
        <time>2022-02-23T12:43:30Z</time>
      </trkpt>
      <trkpt lat="45.2863" lon="5.78199">
        <ele>1752.14</ele>
        <time>2022-02-23T12:43:32Z</time>
      </trkpt>
      <trkpt lat="45.28644" lon="5.78207">
        <ele>1751.66</ele>
        <time>2022-02-23T12:43:35Z</time>
      </trkpt>
      <trkpt lat="45.28658" lon="5.7821">
        <ele>1751.18</ele>
        <time>2022-02-23T12:43:38Z</time>
      </trkpt>
      <trkpt lat="45.2869" lon="5.78196">
        <ele>1748.78</ele>
        <time>2022-02-23T12:43:49Z</time>
      </trkpt>
      <trkpt lat="45.28699" lon="5.782">
        <ele>1748.78</ele>
        <time>2022-02-23T12:44:10Z</time>
      </trkpt>
      <trkpt lat="45.28699" lon="5.78198">
        <ele>1747.81</ele>
        <time>2022-02-23T12:44:18Z</time>
      </trkpt>
      <trkpt lat="45.28697" lon="5.78196">
        <ele>1747.33</ele>
        <time>2022-02-23T12:44:19Z</time>
      </trkpt>
      <trkpt lat="45.28694" lon="5.78192">
        <ele>1747.33</ele>
        <time>2022-02-23T12:44:21Z</time>
      </trkpt>
      <trkpt lat="45.28695" lon="5.78188">
        <ele>1743.97</ele>
        <time>2022-02-23T12:44:22Z</time>
      </trkpt>
      <trkpt lat="45.28697" lon="5.78186">
        <ele>1742.53</ele>
        <time>2022-02-23T12:44:23Z</time>
      </trkpt>
      <trkpt lat="45.28697" lon="5.78182">
        <ele>1741.08</ele>
        <time>2022-02-23T12:44:24Z</time>
      </trkpt>
      <trkpt lat="45.28692" lon="5.78178">
        <ele>1737.72</ele>
        <time>2022-02-23T12:44:26Z</time>
      </trkpt>
      <trkpt lat="45.28689" lon="5.78176">
        <ele>1738.2</ele>
        <time>2022-02-23T12:44:27Z</time>
      </trkpt>
      <trkpt lat="45.28689" lon="5.78172">
        <ele>1736.28</ele>
        <time>2022-02-23T12:44:28Z</time>
      </trkpt>
      <trkpt lat="45.28691" lon="5.78168">
        <ele>1734.36</ele>
        <time>2022-02-23T12:44:29Z</time>
      </trkpt>
      <trkpt lat="45.28692" lon="5.78167">
        <ele>1733.88</ele>
        <time>2022-02-23T12:44:30Z</time>
      </trkpt>
      <trkpt lat="45.28693" lon="5.78165">
        <ele>1733.88</ele>
        <time>2022-02-23T12:44:31Z</time>
      </trkpt>
      <trkpt lat="45.28693" lon="5.78163">
        <ele>1731.95</ele>
        <time>2022-02-23T12:44:32Z</time>
      </trkpt>
      <trkpt lat="45.28686" lon="5.78161">
        <ele>1730.99</ele>
        <time>2022-02-23T12:44:34Z</time>
      </trkpt>
      <trkpt lat="45.28682" lon="5.78154">
        <ele>1726.67</ele>
        <time>2022-02-23T12:44:37Z</time>
      </trkpt>
      <trkpt lat="45.28684" lon="5.78152">
        <ele>1726.67</ele>
        <time>2022-02-23T12:44:38Z</time>
      </trkpt>
      <trkpt lat="45.28687" lon="5.7815">
        <ele>1725.7</ele>
        <time>2022-02-23T12:44:39Z</time>
      </trkpt>
      <trkpt lat="45.2869" lon="5.78149">
        <ele>1725.22</ele>
        <time>2022-02-23T12:44:40Z</time>
      </trkpt>
      <trkpt lat="45.28692" lon="5.78147">
        <ele>1724.74</ele>
        <time>2022-02-23T12:44:41Z</time>
      </trkpt>
      <trkpt lat="45.28694" lon="5.78144">
        <ele>1723.78</ele>
        <time>2022-02-23T12:44:42Z</time>
      </trkpt>
      <trkpt lat="45.28694" lon="5.78141">
        <ele>1722.82</ele>
        <time>2022-02-23T12:44:43Z</time>
      </trkpt>
      <trkpt lat="45.28692" lon="5.7814">
        <ele>1719.46</ele>
        <time>2022-02-23T12:44:44Z</time>
      </trkpt>
      <trkpt lat="45.2869" lon="5.78137">
        <ele>1722.34</ele>
        <time>2022-02-23T12:44:45Z</time>
      </trkpt>
      <trkpt lat="45.28688" lon="5.78133">
        <ele>1718.01</ele>
        <time>2022-02-23T12:44:46Z</time>
      </trkpt>
      <trkpt lat="45.28689" lon="5.78126">
        <ele>1715.61</ele>
        <time>2022-02-23T12:44:47Z</time>
      </trkpt>
      <trkpt lat="45.28692" lon="5.78122">
        <ele>1713.69</ele>
        <time>2022-02-23T12:44:48Z</time>
      </trkpt>
      <trkpt lat="45.28695" lon="5.7812">
        <ele>1713.69</ele>
        <time>2022-02-23T12:44:49Z</time>
      </trkpt>
      <trkpt lat="45.28698" lon="5.78117">
        <ele>1712.73</ele>
        <time>2022-02-23T12:44:50Z</time>
      </trkpt>
      <trkpt lat="45.287" lon="5.78116">
        <ele>1712.73</ele>
        <time>2022-02-23T12:44:51Z</time>
      </trkpt>
      <trkpt lat="45.28691" lon="5.78118">
        <ele>1709.36</ele>
        <time>2022-02-23T12:44:55Z</time>
      </trkpt>
      <trkpt lat="45.28685" lon="5.78117">
        <ele>1710.32</ele>
        <time>2022-02-23T12:44:58Z</time>
      </trkpt>
      <trkpt lat="45.28686" lon="5.78113">
        <ele>1706.48</ele>
        <time>2022-02-23T12:44:59Z</time>
      </trkpt>
      <trkpt lat="45.28696" lon="5.78107">
        <ele>1702.63</ele>
        <time>2022-02-23T12:45:02Z</time>
      </trkpt>
      <trkpt lat="45.28697" lon="5.78105">
        <ele>1702.63</ele>
        <time>2022-02-23T12:45:03Z</time>
      </trkpt>
      <trkpt lat="45.2869" lon="5.78105">
        <ele>1699.27</ele>
        <time>2022-02-23T12:45:06Z</time>
      </trkpt>
      <trkpt lat="45.28679" lon="5.78107">
        <ele>1699.75</ele>
        <time>2022-02-23T12:45:17Z</time>
      </trkpt>
      <trkpt lat="45.28678" lon="5.78113">
        <ele>1697.34</ele>
        <time>2022-02-23T12:45:45Z</time>
      </trkpt>
      <trkpt lat="45.28678" lon="5.78107">
        <ele>1697.83</ele>
        <time>2022-02-23T12:45:47Z</time>
      </trkpt>
      <trkpt lat="45.28682" lon="5.78101">
        <ele>1695.9</ele>
        <time>2022-02-23T12:45:49Z</time>
      </trkpt>
      <trkpt lat="45.28684" lon="5.78098">
        <ele>1694.94</ele>
        <time>2022-02-23T12:45:50Z</time>
      </trkpt>
      <trkpt lat="45.28696" lon="5.78086">
        <ele>1691.58</ele>
        <time>2022-02-23T12:45:54Z</time>
      </trkpt>
      <trkpt lat="45.28698" lon="5.78084">
        <ele>1690.14</ele>
        <time>2022-02-23T12:45:56Z</time>
      </trkpt>
      <trkpt lat="45.28697" lon="5.78075">
        <ele>1685.81</ele>
        <time>2022-02-23T12:45:59Z</time>
      </trkpt>
      <trkpt lat="45.28694" lon="5.7807">
        <ele>1682.44</ele>
        <time>2022-02-23T12:46:01Z</time>
      </trkpt>
      <trkpt lat="45.2869" lon="5.78069">
        <ele>1682.44</ele>
        <time>2022-02-23T12:46:02Z</time>
      </trkpt>
      <trkpt lat="45.28688" lon="5.7806">
        <ele>1678.12</ele>
        <time>2022-02-23T12:46:04Z</time>
      </trkpt>
      <trkpt lat="45.2869" lon="5.78056">
        <ele>1676.68</ele>
        <time>2022-02-23T12:46:05Z</time>
      </trkpt>
      <trkpt lat="45.28692" lon="5.78052">
        <ele>1676.2</ele>
        <time>2022-02-23T12:46:06Z</time>
      </trkpt>
      <trkpt lat="45.28693" lon="5.78048">
        <ele>1675.23</ele>
        <time>2022-02-23T12:46:08Z</time>
      </trkpt>
      <trkpt lat="45.2869" lon="5.78046">
        <ele>1675.23</ele>
        <time>2022-02-23T12:46:09Z</time>
      </trkpt>
      <trkpt lat="45.28689" lon="5.78042">
        <ele>1672.35</ele>
        <time>2022-02-23T12:46:10Z</time>
      </trkpt>
      <trkpt lat="45.28689" lon="5.78037">
        <ele>1670.43</ele>
        <time>2022-02-23T12:46:11Z</time>
      </trkpt>
      <trkpt lat="45.2869" lon="5.78032">
        <ele>1669.95</ele>
        <time>2022-02-23T12:46:12Z</time>
      </trkpt>
      <trkpt lat="45.28687" lon="5.78027">
        <ele>1667.06</ele>
        <time>2022-02-23T12:46:14Z</time>
      </trkpt>
      <trkpt lat="45.28684" lon="5.78022">
        <ele>1665.14</ele>
        <time>2022-02-23T12:46:16Z</time>
      </trkpt>
      <trkpt lat="45.28685" lon="5.78017">
        <ele>1664.66</ele>
        <time>2022-02-23T12:46:17Z</time>
      </trkpt>
      <trkpt lat="45.28686" lon="5.78015">
        <ele>1664.18</ele>
        <time>2022-02-23T12:46:18Z</time>
      </trkpt>
      <trkpt lat="45.28687" lon="5.78013">
        <ele>1664.18</ele>
        <time>2022-02-23T12:46:19Z</time>
      </trkpt>
      <trkpt lat="45.28689" lon="5.78011">
        <ele>1663.7</ele>
        <time>2022-02-23T12:46:20Z</time>
      </trkpt>
      <trkpt lat="45.28691" lon="5.7801">
        <ele>1663.7</ele>
        <time>2022-02-23T12:46:21Z</time>
      </trkpt>
      <trkpt lat="45.28692" lon="5.78009">
        <ele>1663.7</ele>
        <time>2022-02-23T12:46:22Z</time>
      </trkpt>
      <trkpt lat="45.28696" lon="5.78009">
        <ele>1662.74</ele>
        <time>2022-02-23T12:46:37Z</time>
      </trkpt>
      <trkpt lat="45.28699" lon="5.78007">
        <ele>1662.74</ele>
        <time>2022-02-23T12:46:39Z</time>
      </trkpt>
      <trkpt lat="45.28699" lon="5.78004">
        <ele>1660.81</ele>
        <time>2022-02-23T12:46:40Z</time>
      </trkpt>
      <trkpt lat="45.28694" lon="5.78001">
        <ele>1660.81</ele>
        <time>2022-02-23T12:46:42Z</time>
      </trkpt>
      <trkpt lat="45.28694" lon="5.77988">
        <ele>1654.09</ele>
        <time>2022-02-23T12:46:45Z</time>
      </trkpt>
      <trkpt lat="45.28691" lon="5.7798">
        <ele>1650.72</ele>
        <time>2022-02-23T12:46:48Z</time>
      </trkpt>
      <trkpt lat="45.28686" lon="5.77972">
        <ele>1645.91</ele>
        <time>2022-02-23T12:46:53Z</time>
      </trkpt>
      <trkpt lat="45.2869" lon="5.77967">
        <ele>1644.47</ele>
        <time>2022-02-23T12:46:55Z</time>
      </trkpt>
      <trkpt lat="45.28685" lon="5.77968">
        <ele>1641.59</ele>
        <time>2022-02-23T12:46:58Z</time>
      </trkpt>
      <trkpt lat="45.28679" lon="5.77971">
        <ele>1640.15</ele>
        <time>2022-02-23T12:47:00Z</time>
      </trkpt>
      <trkpt lat="45.28656" lon="5.77978">
        <ele>1636.3</ele>
        <time>2022-02-23T12:47:07Z</time>
      </trkpt>
      <trkpt lat="45.28645" lon="5.77974">
        <ele>1635.82</ele>
        <time>2022-02-23T12:47:14Z</time>
      </trkpt>
      <trkpt lat="45.28644" lon="5.77968">
        <ele>1632.94</ele>
        <time>2022-02-23T12:47:21Z</time>
      </trkpt>
      <trkpt lat="45.28645" lon="5.77964">
        <ele>1628.61</ele>
        <time>2022-02-23T12:47:24Z</time>
      </trkpt>
      <trkpt lat="45.28644" lon="5.77962">
        <ele>1629.09</ele>
        <time>2022-02-23T12:47:27Z</time>
      </trkpt>
      <trkpt lat="45.28638" lon="5.7796">
        <ele>1627.17</ele>
        <time>2022-02-23T12:47:30Z</time>
      </trkpt>
      <trkpt lat="45.28632" lon="5.77959">
        <ele>1626.21</ele>
        <time>2022-02-23T12:47:36Z</time>
      </trkpt>
      <trkpt lat="45.28629" lon="5.77959">
        <ele>1625.73</ele>
        <time>2022-02-23T12:47:43Z</time>
      </trkpt>
      <trkpt lat="45.28632" lon="5.77955">
        <ele>1624.28</ele>
        <time>2022-02-23T12:47:48Z</time>
      </trkpt>
      <trkpt lat="45.28635" lon="5.77955">
        <ele>1622.84</ele>
        <time>2022-02-23T12:47:49Z</time>
      </trkpt>
      <trkpt lat="45.28641" lon="5.77954">
        <ele>1623.8</ele>
        <time>2022-02-23T12:47:53Z</time>
      </trkpt>
      <trkpt lat="45.28649" lon="5.77947">
        <ele>1620.92</ele>
        <time>2022-02-23T12:47:57Z</time>
      </trkpt>
      <trkpt lat="45.28652" lon="5.7794">
        <ele>1617.07</ele>
        <time>2022-02-23T12:48:01Z</time>
      </trkpt>
      <trkpt lat="45.2865" lon="5.77938">
        <ele>1617.07</ele>
        <time>2022-02-23T12:48:02Z</time>
      </trkpt>
      <trkpt lat="45.2865" lon="5.77935">
        <ele>1616.59</ele>
        <time>2022-02-23T12:48:10Z</time>
      </trkpt>
      <trkpt lat="45.28648" lon="5.77928">
        <ele>1613.23</ele>
        <time>2022-02-23T12:48:14Z</time>
      </trkpt>
      <trkpt lat="45.28638" lon="5.77926">
        <ele>1609.86</ele>
        <time>2022-02-23T12:48:20Z</time>
      </trkpt>
      <trkpt lat="45.28634" lon="5.77925">
        <ele>1607.94</ele>
        <time>2022-02-23T12:48:28Z</time>
      </trkpt>
      <trkpt lat="45.28638" lon="5.77919">
        <ele>1605.06</ele>
        <time>2022-02-23T12:48:33Z</time>
      </trkpt>
      <trkpt lat="45.28648" lon="5.7791">
        <ele>1602.66</ele>
        <time>2022-02-23T12:48:46Z</time>
      </trkpt>
      <trkpt lat="45.28648" lon="5.77907">
        <ele>1601.21</ele>
        <time>2022-02-23T12:48:48Z</time>
      </trkpt>
      <trkpt lat="45.28646" lon="5.77901">
        <ele>1601.21</ele>
        <time>2022-02-23T12:49:01Z</time>
      </trkpt>
      <trkpt lat="45.28645" lon="5.77904">
        <ele>1599.77</ele>
        <time>2022-02-23T12:49:21Z</time>
      </trkpt>
      <trkpt lat="45.28644" lon="5.77902">
        <ele>1601.69</ele>
        <time>2022-02-23T12:49:22Z</time>
      </trkpt>
      <trkpt lat="45.28641" lon="5.77899">
        <ele>1597.85</ele>
        <time>2022-02-23T12:49:23Z</time>
      </trkpt>
      <trkpt lat="45.2864" lon="5.77898">
        <ele>1597.85</ele>
        <time>2022-02-23T12:49:24Z</time>
      </trkpt>
      <trkpt lat="45.28634" lon="5.77891">
        <ele>1594.48</ele>
        <time>2022-02-23T12:49:29Z</time>
      </trkpt>
      <trkpt lat="45.28632" lon="5.77891">
        <ele>1594.48</ele>
        <time>2022-02-23T12:49:30Z</time>
      </trkpt>
      <trkpt lat="45.28634" lon="5.77889">
        <ele>1594</ele>
        <time>2022-02-23T12:49:43Z</time>
      </trkpt>
      <trkpt lat="45.28634" lon="5.77889">
        <ele>1593.52</ele>
        <time>2022-02-23T12:49:50Z</time>
      </trkpt>
      <trkpt lat="45.28633" lon="5.77887">
        <ele>1593.52</ele>
        <time>2022-02-23T12:49:51Z</time>
      </trkpt>
      <trkpt lat="45.28625" lon="5.77887">
        <ele>1591.6</ele>
        <time>2022-02-23T12:49:55Z</time>
      </trkpt>
      <trkpt lat="45.28623" lon="5.77883">
        <ele>1591.12</ele>
        <time>2022-02-23T12:50:12Z</time>
      </trkpt>
      <trkpt lat="45.2862" lon="5.77881">
        <ele>1593.04</ele>
        <time>2022-02-23T12:50:22Z</time>
      </trkpt>
      <trkpt lat="45.28622" lon="5.7788">
        <ele>1589.68</ele>
        <time>2022-02-23T12:50:24Z</time>
      </trkpt>
      <trkpt lat="45.28622" lon="5.77881">
        <ele>1589.68</ele>
        <time>2022-02-23T12:50:25Z</time>
      </trkpt>
      <trkpt lat="45.28623" lon="5.77881">
        <ele>1588.24</ele>
        <time>2022-02-23T12:50:28Z</time>
      </trkpt>
      <trkpt lat="45.28623" lon="5.77879">
        <ele>1588.24</ele>
        <time>2022-02-23T12:50:29Z</time>
      </trkpt>
      <trkpt lat="45.28623" lon="5.77875">
        <ele>1586.79</ele>
        <time>2022-02-23T12:50:30Z</time>
      </trkpt>
      <trkpt lat="45.28624" lon="5.77872">
        <ele>1586.79</ele>
        <time>2022-02-23T12:50:31Z</time>
      </trkpt>
      <trkpt lat="45.28625" lon="5.77869">
        <ele>1583.91</ele>
        <time>2022-02-23T12:50:32Z</time>
      </trkpt>
      <trkpt lat="45.28626" lon="5.77868">
        <ele>1584.39</ele>
        <time>2022-02-23T12:50:33Z</time>
      </trkpt>
      <trkpt lat="45.28628" lon="5.77864">
        <ele>1581.51</ele>
        <time>2022-02-23T12:50:35Z</time>
      </trkpt>
      <trkpt lat="45.28627" lon="5.77861">
        <ele>1580.54</ele>
        <time>2022-02-23T12:50:36Z</time>
      </trkpt>
      <trkpt lat="45.28626" lon="5.77859">
        <ele>1580.54</ele>
        <time>2022-02-23T12:50:37Z</time>
      </trkpt>
      <trkpt lat="45.28625" lon="5.77855">
        <ele>1580.06</ele>
        <time>2022-02-23T12:50:41Z</time>
      </trkpt>
      <trkpt lat="45.28629" lon="5.77851">
        <ele>1577.66</ele>
        <time>2022-02-23T12:50:44Z</time>
      </trkpt>
      <trkpt lat="45.28628" lon="5.77845">
        <ele>1572.85</ele>
        <time>2022-02-23T12:50:47Z</time>
      </trkpt>
      <trkpt lat="45.2863" lon="5.77838">
        <ele>1572.37</ele>
        <time>2022-02-23T12:50:50Z</time>
      </trkpt>
      <trkpt lat="45.28632" lon="5.77836">
        <ele>1571.89</ele>
        <time>2022-02-23T12:50:52Z</time>
      </trkpt>
      <trkpt lat="45.28621" lon="5.77828">
        <ele>1569.49</ele>
        <time>2022-02-23T12:50:57Z</time>
      </trkpt>
      <trkpt lat="45.28614" lon="5.77827">
        <ele>1565.16</ele>
        <time>2022-02-23T12:51:02Z</time>
      </trkpt>
      <trkpt lat="45.28613" lon="5.77822">
        <ele>1564.2</ele>
        <time>2022-02-23T12:51:05Z</time>
      </trkpt>
      <trkpt lat="45.28616" lon="5.77818">
        <ele>1563.24</ele>
        <time>2022-02-23T12:51:07Z</time>
      </trkpt>
      <trkpt lat="45.28624" lon="5.77814">
        <ele>1561.8</ele>
        <time>2022-02-23T12:51:10Z</time>
      </trkpt>
      <trkpt lat="45.28627" lon="5.77813">
        <ele>1560.84</ele>
        <time>2022-02-23T12:51:12Z</time>
      </trkpt>
      <trkpt lat="45.28631" lon="5.77812">
        <ele>1559.4</ele>
        <time>2022-02-23T12:51:14Z</time>
      </trkpt>
      <trkpt lat="45.28626" lon="5.77801">
        <ele>1555.07</ele>
        <time>2022-02-23T12:51:18Z</time>
      </trkpt>
      <trkpt lat="45.28618" lon="5.77799">
        <ele>1555.07</ele>
        <time>2022-02-23T12:51:21Z</time>
      </trkpt>
      <trkpt lat="45.28615" lon="5.77796">
        <ele>1555.07</ele>
        <time>2022-02-23T12:51:34Z</time>
      </trkpt>
      <trkpt lat="45.28611" lon="5.77789">
        <ele>1551.71</ele>
        <time>2022-02-23T12:51:37Z</time>
      </trkpt>
      <trkpt lat="45.2861" lon="5.77786">
        <ele>1553.15</ele>
        <time>2022-02-23T12:51:38Z</time>
      </trkpt>
      <trkpt lat="45.28608" lon="5.77784">
        <ele>1550.26</ele>
        <time>2022-02-23T12:51:39Z</time>
      </trkpt>
      <trkpt lat="45.28608" lon="5.77782">
        <ele>1553.63</ele>
        <time>2022-02-23T12:51:40Z</time>
      </trkpt>
      <trkpt lat="45.28608" lon="5.7778">
        <ele>1553.15</ele>
        <time>2022-02-23T12:51:41Z</time>
      </trkpt>
      <trkpt lat="45.28609" lon="5.77779">
        <ele>1549.78</ele>
        <time>2022-02-23T12:51:42Z</time>
      </trkpt>
      <trkpt lat="45.28611" lon="5.77776">
        <ele>1546.42</ele>
        <time>2022-02-23T12:51:43Z</time>
      </trkpt>
      <trkpt lat="45.28612" lon="5.77774">
        <ele>1547.86</ele>
        <time>2022-02-23T12:51:44Z</time>
      </trkpt>
      <trkpt lat="45.28613" lon="5.7777">
        <ele>1543.53</ele>
        <time>2022-02-23T12:51:46Z</time>
      </trkpt>
      <trkpt lat="45.28619" lon="5.7777">
        <ele>1541.61</ele>
        <time>2022-02-23T12:51:49Z</time>
      </trkpt>
      <trkpt lat="45.28621" lon="5.77768">
        <ele>1541.61</ele>
        <time>2022-02-23T12:51:50Z</time>
      </trkpt>
      <trkpt lat="45.28617" lon="5.77759">
        <ele>1539.69</ele>
        <time>2022-02-23T12:51:53Z</time>
      </trkpt>
      <trkpt lat="45.28616" lon="5.77753">
        <ele>1536.8</ele>
        <time>2022-02-23T12:51:56Z</time>
      </trkpt>
      <trkpt lat="45.28623" lon="5.7775">
        <ele>1534.4</ele>
        <time>2022-02-23T12:52:00Z</time>
      </trkpt>
      <trkpt lat="45.28625" lon="5.7774">
        <ele>1532</ele>
        <time>2022-02-23T12:52:04Z</time>
      </trkpt>
      <trkpt lat="45.28623" lon="5.77737">
        <ele>1531.04</ele>
        <time>2022-02-23T12:52:05Z</time>
      </trkpt>
      <trkpt lat="45.28622" lon="5.77734">
        <ele>1530.08</ele>
        <time>2022-02-23T12:52:06Z</time>
      </trkpt>
      <trkpt lat="45.28622" lon="5.77731">
        <ele>1533.44</ele>
        <time>2022-02-23T12:52:07Z</time>
      </trkpt>
      <trkpt lat="45.28622" lon="5.77729">
        <ele>1530.56</ele>
        <time>2022-02-23T12:52:08Z</time>
      </trkpt>
      <trkpt lat="45.28623" lon="5.77727">
        <ele>1528.15</ele>
        <time>2022-02-23T12:52:09Z</time>
      </trkpt>
      <trkpt lat="45.28625" lon="5.77727">
        <ele>1526.71</ele>
        <time>2022-02-23T12:52:11Z</time>
      </trkpt>
      <trkpt lat="45.28627" lon="5.77724">
        <ele>1526.23</ele>
        <time>2022-02-23T12:52:12Z</time>
      </trkpt>
      <trkpt lat="45.28621" lon="5.77716">
        <ele>1525.27</ele>
        <time>2022-02-23T12:52:22Z</time>
      </trkpt>
      <trkpt lat="45.28621" lon="5.77715">
        <ele>1525.27</ele>
        <time>2022-02-23T12:52:26Z</time>
      </trkpt>
      <trkpt lat="45.28619" lon="5.77712">
        <ele>1523.35</ele>
        <time>2022-02-23T12:52:27Z</time>
      </trkpt>
      <trkpt lat="45.28618" lon="5.7771">
        <ele>1522.87</ele>
        <time>2022-02-23T12:52:28Z</time>
      </trkpt>
      <trkpt lat="45.28619" lon="5.77707">
        <ele>1524.79</ele>
        <time>2022-02-23T12:52:29Z</time>
      </trkpt>
      <trkpt lat="45.28622" lon="5.77705">
        <ele>1521.42</ele>
        <time>2022-02-23T12:52:30Z</time>
      </trkpt>
      <trkpt lat="45.28626" lon="5.77704">
        <ele>1519.98</ele>
        <time>2022-02-23T12:52:31Z</time>
      </trkpt>
      <trkpt lat="45.2863" lon="5.77703">
        <ele>1519.5</ele>
        <time>2022-02-23T12:52:32Z</time>
      </trkpt>
      <trkpt lat="45.28634" lon="5.77701">
        <ele>1518.06</ele>
        <time>2022-02-23T12:52:33Z</time>
      </trkpt>
      <trkpt lat="45.28642" lon="5.77701">
        <ele>1516.62</ele>
        <time>2022-02-23T12:52:35Z</time>
      </trkpt>
      <trkpt lat="45.28647" lon="5.777">
        <ele>1515.66</ele>
        <time>2022-02-23T12:52:37Z</time>
      </trkpt>
      <trkpt lat="45.28646" lon="5.77696">
        <ele>1513.73</ele>
        <time>2022-02-23T12:52:38Z</time>
      </trkpt>
      <trkpt lat="45.28644" lon="5.77692">
        <ele>1513.25</ele>
        <time>2022-02-23T12:52:39Z</time>
      </trkpt>
      <trkpt lat="45.2864" lon="5.77687">
        <ele>1513.25</ele>
        <time>2022-02-23T12:52:40Z</time>
      </trkpt>
      <trkpt lat="45.28634" lon="5.77683">
        <ele>1511.33</ele>
        <time>2022-02-23T12:52:41Z</time>
      </trkpt>
      <trkpt lat="45.28629" lon="5.77681">
        <ele>1511.33</ele>
        <time>2022-02-23T12:52:42Z</time>
      </trkpt>
      <trkpt lat="45.28622" lon="5.77669">
        <ele>1507.48</ele>
        <time>2022-02-23T12:52:46Z</time>
      </trkpt>
      <trkpt lat="45.28623" lon="5.77665">
        <ele>1506.52</ele>
        <time>2022-02-23T12:52:47Z</time>
      </trkpt>
      <trkpt lat="45.28628" lon="5.77663">
        <ele>1505.56</ele>
        <time>2022-02-23T12:52:48Z</time>
      </trkpt>
      <trkpt lat="45.28633" lon="5.77664">
        <ele>1505.08</ele>
        <time>2022-02-23T12:52:49Z</time>
      </trkpt>
      <trkpt lat="45.28643" lon="5.77666">
        <ele>1503.64</ele>
        <time>2022-02-23T12:52:51Z</time>
      </trkpt>
      <trkpt lat="45.28644" lon="5.77664">
        <ele>1503.64</ele>
        <time>2022-02-23T12:52:52Z</time>
      </trkpt>
      <trkpt lat="45.28642" lon="5.7766">
        <ele>1502.68</ele>
        <time>2022-02-23T12:52:53Z</time>
      </trkpt>
      <trkpt lat="45.28639" lon="5.77657">
        <ele>1499.79</ele>
        <time>2022-02-23T12:52:54Z</time>
      </trkpt>
      <trkpt lat="45.28636" lon="5.77653">
        <ele>1501.72</ele>
        <time>2022-02-23T12:52:55Z</time>
      </trkpt>
      <trkpt lat="45.28631" lon="5.77649">
        <ele>1498.35</ele>
        <time>2022-02-23T12:52:56Z</time>
      </trkpt>
      <trkpt lat="45.28624" lon="5.7764">
        <ele>1499.31</ele>
        <time>2022-02-23T12:52:59Z</time>
      </trkpt>
      <trkpt lat="45.28625" lon="5.77636">
        <ele>1497.39</ele>
        <time>2022-02-23T12:53:00Z</time>
      </trkpt>
      <trkpt lat="45.28626" lon="5.77633">
        <ele>1495.95</ele>
        <time>2022-02-23T12:53:01Z</time>
      </trkpt>
      <trkpt lat="45.28631" lon="5.77632">
        <ele>1495.47</ele>
        <time>2022-02-23T12:53:02Z</time>
      </trkpt>
      <trkpt lat="45.28637" lon="5.77633">
        <ele>1494.03</ele>
        <time>2022-02-23T12:53:03Z</time>
      </trkpt>
      <trkpt lat="45.2864" lon="5.77634">
        <ele>1494.03</ele>
        <time>2022-02-23T12:53:04Z</time>
      </trkpt>
      <trkpt lat="45.28643" lon="5.77636">
        <ele>1494.03</ele>
        <time>2022-02-23T12:53:05Z</time>
      </trkpt>
      <trkpt lat="45.28647" lon="5.77635">
        <ele>1492.58</ele>
        <time>2022-02-23T12:53:07Z</time>
      </trkpt>
      <trkpt lat="45.28646" lon="5.77632">
        <ele>1492.58</ele>
        <time>2022-02-23T12:53:08Z</time>
      </trkpt>
      <trkpt lat="45.28645" lon="5.77631">
        <ele>1491.14</ele>
        <time>2022-02-23T12:53:09Z</time>
      </trkpt>
      <trkpt lat="45.28642" lon="5.77629">
        <ele>1491.14</ele>
        <time>2022-02-23T12:53:10Z</time>
      </trkpt>
      <trkpt lat="45.2864" lon="5.77627">
        <ele>1490.18</ele>
        <time>2022-02-23T12:53:11Z</time>
      </trkpt>
      <trkpt lat="45.28637" lon="5.77623">
        <ele>1490.18</ele>
        <time>2022-02-23T12:53:12Z</time>
      </trkpt>
      <trkpt lat="45.28622" lon="5.77601">
        <ele>1486.82</ele>
        <time>2022-02-23T12:53:19Z</time>
      </trkpt>
      <trkpt lat="45.28618" lon="5.77587">
        <ele>1486.34</ele>
        <time>2022-02-23T12:53:22Z</time>
      </trkpt>
      <trkpt lat="45.28616" lon="5.7758">
        <ele>1482.97</ele>
        <time>2022-02-23T12:53:23Z</time>
      </trkpt>
      <trkpt lat="45.28614" lon="5.77573">
        <ele>1482.01</ele>
        <time>2022-02-23T12:53:24Z</time>
      </trkpt>
      <trkpt lat="45.28612" lon="5.77565">
        <ele>1481.53</ele>
        <time>2022-02-23T12:53:25Z</time>
      </trkpt>
      <trkpt lat="45.28605" lon="5.77557">
        <ele>1480.09</ele>
        <time>2022-02-23T12:53:27Z</time>
      </trkpt>
      <trkpt lat="45.28602" lon="5.77554">
        <ele>1480.09</ele>
        <time>2022-02-23T12:53:28Z</time>
      </trkpt>
      <trkpt lat="45.28601" lon="5.77553">
        <ele>1480.09</ele>
        <time>2022-02-23T12:53:29Z</time>
      </trkpt>
      <trkpt lat="45.28595" lon="5.77546">
        <ele>1482.01</ele>
        <time>2022-02-23T12:53:35Z</time>
      </trkpt>
      <trkpt lat="45.28599" lon="5.77545">
        <ele>1477.68</ele>
        <time>2022-02-23T12:53:37Z</time>
      </trkpt>
      <trkpt lat="45.28602" lon="5.77546">
        <ele>1475.76</ele>
        <time>2022-02-23T12:53:38Z</time>
      </trkpt>
      <trkpt lat="45.28604" lon="5.77535">
        <ele>1473.84</ele>
        <time>2022-02-23T12:53:41Z</time>
      </trkpt>
      <trkpt lat="45.28603" lon="5.77524">
        <ele>1474.32</ele>
        <time>2022-02-23T12:53:43Z</time>
      </trkpt>
      <trkpt lat="45.28604" lon="5.77519">
        <ele>1471.44</ele>
        <time>2022-02-23T12:53:44Z</time>
      </trkpt>
      <trkpt lat="45.28606" lon="5.77516">
        <ele>1469.03</ele>
        <time>2022-02-23T12:53:45Z</time>
      </trkpt>
      <trkpt lat="45.28609" lon="5.77512">
        <ele>1466.15</ele>
        <time>2022-02-23T12:53:46Z</time>
      </trkpt>
      <trkpt lat="45.28613" lon="5.77508">
        <ele>1465.19</ele>
        <time>2022-02-23T12:53:47Z</time>
      </trkpt>
      <trkpt lat="45.28613" lon="5.77503">
        <ele>1463.74</ele>
        <time>2022-02-23T12:53:48Z</time>
      </trkpt>
      <trkpt lat="45.28612" lon="5.77499">
        <ele>1463.74</ele>
        <time>2022-02-23T12:53:49Z</time>
      </trkpt>
      <trkpt lat="45.28612" lon="5.77496">
        <ele>1463.74</ele>
        <time>2022-02-23T12:53:50Z</time>
      </trkpt>
      <trkpt lat="45.28613" lon="5.77494">
        <ele>1461.82</ele>
        <time>2022-02-23T12:53:51Z</time>
      </trkpt>
      <trkpt lat="45.28614" lon="5.77493">
        <ele>1460.38</ele>
        <time>2022-02-23T12:53:52Z</time>
      </trkpt>
      <trkpt lat="45.28616" lon="5.77492">
        <ele>1459.42</ele>
        <time>2022-02-23T12:53:53Z</time>
      </trkpt>
      <trkpt lat="45.28617" lon="5.7749">
        <ele>1458.94</ele>
        <time>2022-02-23T12:53:54Z</time>
      </trkpt>
      <trkpt lat="45.28617" lon="5.77486">
        <ele>1457.98</ele>
        <time>2022-02-23T12:53:55Z</time>
      </trkpt>
      <trkpt lat="45.28616" lon="5.7748">
        <ele>1457.02</ele>
        <time>2022-02-23T12:53:57Z</time>
      </trkpt>
      <trkpt lat="45.28617" lon="5.77477">
        <ele>1455.09</ele>
        <time>2022-02-23T12:53:58Z</time>
      </trkpt>
      <trkpt lat="45.2862" lon="5.77477">
        <ele>1453.17</ele>
        <time>2022-02-23T12:54:00Z</time>
      </trkpt>
      <trkpt lat="45.28623" lon="5.77478">
        <ele>1452.69</ele>
        <time>2022-02-23T12:54:01Z</time>
      </trkpt>
      <trkpt lat="45.28625" lon="5.77475">
        <ele>1452.21</ele>
        <time>2022-02-23T12:54:02Z</time>
      </trkpt>
      <trkpt lat="45.28626" lon="5.7747">
        <ele>1450.77</ele>
        <time>2022-02-23T12:54:03Z</time>
      </trkpt>
      <trkpt lat="45.28625" lon="5.77465">
        <ele>1448.84</ele>
        <time>2022-02-23T12:54:04Z</time>
      </trkpt>
      <trkpt lat="45.28624" lon="5.77462">
        <ele>1448.36</ele>
        <time>2022-02-23T12:54:05Z</time>
      </trkpt>
      <trkpt lat="45.28624" lon="5.77461">
        <ele>1448.36</ele>
        <time>2022-02-23T12:54:06Z</time>
      </trkpt>
      <trkpt lat="45.28625" lon="5.77459">
        <ele>1448.36</ele>
        <time>2022-02-23T12:54:07Z</time>
      </trkpt>
      <trkpt lat="45.28625" lon="5.77457">
        <ele>1446.92</ele>
        <time>2022-02-23T12:54:08Z</time>
      </trkpt>
      <trkpt lat="45.28627" lon="5.77455">
        <ele>1445.48</ele>
        <time>2022-02-23T12:54:10Z</time>
      </trkpt>
      <trkpt lat="45.28632" lon="5.77468">
        <ele>1445.96</ele>
        <time>2022-02-23T12:54:25Z</time>
      </trkpt>
      <trkpt lat="45.28636" lon="5.77466">
        <ele>1445</ele>
        <time>2022-02-23T12:54:28Z</time>
      </trkpt>
      <trkpt lat="45.28636" lon="5.7746">
        <ele>1444.04</ele>
        <time>2022-02-23T12:54:29Z</time>
      </trkpt>
      <trkpt lat="45.28635" lon="5.77457">
        <ele>1443.08</ele>
        <time>2022-02-23T12:54:30Z</time>
      </trkpt>
      <trkpt lat="45.28633" lon="5.77453">
        <ele>1440.67</ele>
        <time>2022-02-23T12:54:31Z</time>
      </trkpt>
      <trkpt lat="45.28633" lon="5.77448">
        <ele>1443.56</ele>
        <time>2022-02-23T12:54:32Z</time>
      </trkpt>
      <trkpt lat="45.28636" lon="5.77446">
        <ele>1440.19</ele>
        <time>2022-02-23T12:54:33Z</time>
      </trkpt>
      <trkpt lat="45.2864" lon="5.77443">
        <ele>1437.79</ele>
        <time>2022-02-23T12:54:34Z</time>
      </trkpt>
      <trkpt lat="45.28642" lon="5.77437">
        <ele>1435.87</ele>
        <time>2022-02-23T12:54:35Z</time>
      </trkpt>
      <trkpt lat="45.2864" lon="5.77432">
        <ele>1435.87</ele>
        <time>2022-02-23T12:54:36Z</time>
      </trkpt>
      <trkpt lat="45.28638" lon="5.77429">
        <ele>1433.94</ele>
        <time>2022-02-23T12:54:37Z</time>
      </trkpt>
      <trkpt lat="45.28639" lon="5.77424">
        <ele>1432.5</ele>
        <time>2022-02-23T12:54:38Z</time>
      </trkpt>
      <trkpt lat="45.28641" lon="5.77421">
        <ele>1431.54</ele>
        <time>2022-02-23T12:54:39Z</time>
      </trkpt>
      <trkpt lat="45.28647" lon="5.77418">
        <ele>1430.1</ele>
        <time>2022-02-23T12:54:41Z</time>
      </trkpt>
      <trkpt lat="45.28648" lon="5.77414">
        <ele>1429.14</ele>
        <time>2022-02-23T12:54:42Z</time>
      </trkpt>
      <trkpt lat="45.28646" lon="5.7741">
        <ele>1428.18</ele>
        <time>2022-02-23T12:54:43Z</time>
      </trkpt>
      <trkpt lat="45.28644" lon="5.77407">
        <ele>1426.73</ele>
        <time>2022-02-23T12:54:44Z</time>
      </trkpt>
      <trkpt lat="45.28641" lon="5.77395">
        <ele>1424.33</ele>
        <time>2022-02-23T12:54:48Z</time>
      </trkpt>
      <trkpt lat="45.28649" lon="5.77396">
        <ele>1422.89</ele>
        <time>2022-02-23T12:54:50Z</time>
      </trkpt>
      <trkpt lat="45.2866" lon="5.77393">
        <ele>1421.45</ele>
        <time>2022-02-23T12:54:53Z</time>
      </trkpt>
      <trkpt lat="45.28661" lon="5.77388">
        <ele>1419.52</ele>
        <time>2022-02-23T12:54:54Z</time>
      </trkpt>
      <trkpt lat="45.2866" lon="5.77384">
        <ele>1418.08</ele>
        <time>2022-02-23T12:54:55Z</time>
      </trkpt>
      <trkpt lat="45.28657" lon="5.77381">
        <ele>1418.08</ele>
        <time>2022-02-23T12:54:56Z</time>
      </trkpt>
      <trkpt lat="45.2865" lon="5.77375">
        <ele>1416.64</ele>
        <time>2022-02-23T12:54:58Z</time>
      </trkpt>
      <trkpt lat="45.28647" lon="5.77373">
        <ele>1417.12</ele>
        <time>2022-02-23T12:54:59Z</time>
      </trkpt>
      <trkpt lat="45.28646" lon="5.77366">
        <ele>1418.56</ele>
        <time>2022-02-23T12:55:01Z</time>
      </trkpt>
      <trkpt lat="45.28648" lon="5.77363">
        <ele>1414.72</ele>
        <time>2022-02-23T12:55:02Z</time>
      </trkpt>
      <trkpt lat="45.2865" lon="5.77361">
        <ele>1412.79</ele>
        <time>2022-02-23T12:55:03Z</time>
      </trkpt>
      <trkpt lat="45.28663" lon="5.77357">
        <ele>1410.87</ele>
        <time>2022-02-23T12:55:06Z</time>
      </trkpt>
      <trkpt lat="45.28666" lon="5.77351">
        <ele>1409.91</ele>
        <time>2022-02-23T12:55:07Z</time>
      </trkpt>
      <trkpt lat="45.28663" lon="5.77344">
        <ele>1408.95</ele>
        <time>2022-02-23T12:55:09Z</time>
      </trkpt>
      <trkpt lat="45.2866" lon="5.77324">
        <ele>1404.14</ele>
        <time>2022-02-23T12:55:14Z</time>
      </trkpt>
      <trkpt lat="45.28671" lon="5.77318">
        <ele>1402.7</ele>
        <time>2022-02-23T12:55:17Z</time>
      </trkpt>
      <trkpt lat="45.28675" lon="5.77315">
        <ele>1402.22</ele>
        <time>2022-02-23T12:55:18Z</time>
      </trkpt>
      <trkpt lat="45.28675" lon="5.77308">
        <ele>1400.78</ele>
        <time>2022-02-23T12:55:20Z</time>
      </trkpt>
      <trkpt lat="45.28672" lon="5.77303">
        <ele>1397.41</ele>
        <time>2022-02-23T12:55:21Z</time>
      </trkpt>
      <trkpt lat="45.2867" lon="5.77299">
        <ele>1396.45</ele>
        <time>2022-02-23T12:55:22Z</time>
      </trkpt>
      <trkpt lat="45.28668" lon="5.77294">
        <ele>1400.3</ele>
        <time>2022-02-23T12:55:23Z</time>
      </trkpt>
      <trkpt lat="45.2867" lon="5.77284">
        <ele>1394.53</ele>
        <time>2022-02-23T12:55:25Z</time>
      </trkpt>
      <trkpt lat="45.28679" lon="5.77264">
        <ele>1390.68</ele>
        <time>2022-02-23T12:55:30Z</time>
      </trkpt>
      <trkpt lat="45.28686" lon="5.77266">
        <ele>1389.72</ele>
        <time>2022-02-23T12:55:32Z</time>
      </trkpt>
      <trkpt lat="45.28691" lon="5.77272">
        <ele>1390.2</ele>
        <time>2022-02-23T12:55:46Z</time>
      </trkpt>
      <trkpt lat="45.28695" lon="5.77272">
        <ele>1388.76</ele>
        <time>2022-02-23T12:56:00Z</time>
      </trkpt>
      <trkpt lat="45.28696" lon="5.77272">
        <ele>1388.76</ele>
        <time>2022-02-23T12:56:01Z</time>
      </trkpt>
      <trkpt lat="45.28699" lon="5.77259">
        <ele>1385.4</ele>
        <time>2022-02-23T12:56:04Z</time>
      </trkpt>
      <trkpt lat="45.28699" lon="5.77252">
        <ele>1385.4</ele>
        <time>2022-02-23T12:56:05Z</time>
      </trkpt>
      <trkpt lat="45.28693" lon="5.77243">
        <ele>1383.47</ele>
        <time>2022-02-23T12:56:07Z</time>
      </trkpt>
      <trkpt lat="45.28686" lon="5.77237">
        <ele>1383.47</ele>
        <time>2022-02-23T12:56:09Z</time>
      </trkpt>
      <trkpt lat="45.28685" lon="5.77227">
        <ele>1381.07</ele>
        <time>2022-02-23T12:56:11Z</time>
      </trkpt>
      <trkpt lat="45.28686" lon="5.77226">
        <ele>1381.07</ele>
        <time>2022-02-23T12:56:12Z</time>
      </trkpt>
      <trkpt lat="45.28691" lon="5.77221">
        <ele>1379.63</ele>
        <time>2022-02-23T12:56:14Z</time>
      </trkpt>
      <trkpt lat="45.28695" lon="5.77206">
        <ele>1375.3</ele>
        <time>2022-02-23T12:56:18Z</time>
      </trkpt>
      <trkpt lat="45.28694" lon="5.77203">
        <ele>1379.15</ele>
        <time>2022-02-23T12:56:19Z</time>
      </trkpt>
      <trkpt lat="45.28696" lon="5.77198">
        <ele>1375.3</ele>
        <time>2022-02-23T12:56:20Z</time>
      </trkpt>
      <trkpt lat="45.28696" lon="5.77173">
        <ele>1370.5</ele>
        <time>2022-02-23T12:56:26Z</time>
      </trkpt>
      <trkpt lat="45.2869" lon="5.77166">
        <ele>1371.94</ele>
        <time>2022-02-23T12:56:28Z</time>
      </trkpt>
      <trkpt lat="45.28685" lon="5.7715">
        <ele>1366.17</ele>
        <time>2022-02-23T12:56:32Z</time>
      </trkpt>
      <trkpt lat="45.28686" lon="5.77145">
        <ele>1366.17</ele>
        <time>2022-02-23T12:56:33Z</time>
      </trkpt>
      <trkpt lat="45.28685" lon="5.7713">
        <ele>1363.29</ele>
        <time>2022-02-23T12:56:37Z</time>
      </trkpt>
      <trkpt lat="45.28676" lon="5.77112">
        <ele>1360.88</ele>
        <time>2022-02-23T12:56:43Z</time>
      </trkpt>
      <trkpt lat="45.28675" lon="5.77104">
        <ele>1358.48</ele>
        <time>2022-02-23T12:56:45Z</time>
      </trkpt>
      <trkpt lat="45.28672" lon="5.77095">
        <ele>1357.52</ele>
        <time>2022-02-23T12:56:47Z</time>
      </trkpt>
      <trkpt lat="45.28661" lon="5.77081">
        <ele>1354.15</ele>
        <time>2022-02-23T12:56:51Z</time>
      </trkpt>
      <trkpt lat="45.2865" lon="5.77059">
        <ele>1350.79</ele>
        <time>2022-02-23T12:56:57Z</time>
      </trkpt>
      <trkpt lat="45.28647" lon="5.77056">
        <ele>1350.31</ele>
        <time>2022-02-23T12:56:58Z</time>
      </trkpt>
      <trkpt lat="45.28642" lon="5.77044">
        <ele>1347.91</ele>
        <time>2022-02-23T12:57:01Z</time>
      </trkpt>
      <trkpt lat="45.28641" lon="5.77041">
        <ele>1347.91</ele>
        <time>2022-02-23T12:57:02Z</time>
      </trkpt>
      <trkpt lat="45.28639" lon="5.77018">
        <ele>1344.54</ele>
        <time>2022-02-23T12:57:07Z</time>
      </trkpt>
      <trkpt lat="45.28626" lon="5.76998">
        <ele>1340.22</ele>
        <time>2022-02-23T12:57:14Z</time>
      </trkpt>
      <trkpt lat="45.28622" lon="5.76981">
        <ele>1339.25</ele>
        <time>2022-02-23T12:57:18Z</time>
      </trkpt>
      <trkpt lat="45.28621" lon="5.76978">
        <ele>1337.33</ele>
        <time>2022-02-23T12:57:19Z</time>
      </trkpt>
      <trkpt lat="45.28627" lon="5.76959">
        <ele>1335.41</ele>
        <time>2022-02-23T12:57:25Z</time>
      </trkpt>
      <trkpt lat="45.28632" lon="5.76941">
        <ele>1332.52</ele>
        <time>2022-02-23T12:57:30Z</time>
      </trkpt>
      <trkpt lat="45.2863" lon="5.76938">
        <ele>1332.04</ele>
        <time>2022-02-23T12:57:31Z</time>
      </trkpt>
      <trkpt lat="45.28629" lon="5.76936">
        <ele>1331.56</ele>
        <time>2022-02-23T12:57:32Z</time>
      </trkpt>
      <trkpt lat="45.28627" lon="5.76932">
        <ele>1331.56</ele>
        <time>2022-02-23T12:57:33Z</time>
      </trkpt>
      <trkpt lat="45.28625" lon="5.76927">
        <ele>1330.12</ele>
        <time>2022-02-23T12:57:34Z</time>
      </trkpt>
      <trkpt lat="45.28622" lon="5.76922">
        <ele>1328.68</ele>
        <time>2022-02-23T12:57:35Z</time>
      </trkpt>
      <trkpt lat="45.28618" lon="5.76917">
        <ele>1327.72</ele>
        <time>2022-02-23T12:57:36Z</time>
      </trkpt>
      <trkpt lat="45.28614" lon="5.76915">
        <ele>1326.76</ele>
        <time>2022-02-23T12:57:37Z</time>
      </trkpt>
      <trkpt lat="45.28609" lon="5.76914">
        <ele>1326.76</ele>
        <time>2022-02-23T12:57:38Z</time>
      </trkpt>
      <trkpt lat="45.28605" lon="5.76913">
        <ele>1326.28</ele>
        <time>2022-02-23T12:57:39Z</time>
      </trkpt>
      <trkpt lat="45.28601" lon="5.76913">
        <ele>1324.83</ele>
        <time>2022-02-23T12:57:40Z</time>
      </trkpt>
      <trkpt lat="45.28597" lon="5.76913">
        <ele>1327.72</ele>
        <time>2022-02-23T12:57:41Z</time>
      </trkpt>
      <trkpt lat="45.28593" lon="5.76911">
        <ele>1324.83</ele>
        <time>2022-02-23T12:57:42Z</time>
      </trkpt>
      <trkpt lat="45.28588" lon="5.76908">
        <ele>1323.39</ele>
        <time>2022-02-23T12:57:43Z</time>
      </trkpt>
      <trkpt lat="45.28584" lon="5.76906">
        <ele>1322.91</ele>
        <time>2022-02-23T12:57:44Z</time>
      </trkpt>
      <trkpt lat="45.2858" lon="5.76906">
        <ele>1321.47</ele>
        <time>2022-02-23T12:57:45Z</time>
      </trkpt>
      <trkpt lat="45.28576" lon="5.76907">
        <ele>1322.91</ele>
        <time>2022-02-23T12:57:46Z</time>
      </trkpt>
      <trkpt lat="45.28573" lon="5.76908">
        <ele>1322.91</ele>
        <time>2022-02-23T12:57:47Z</time>
      </trkpt>
      <trkpt lat="45.2857" lon="5.76907">
        <ele>1320.51</ele>
        <time>2022-02-23T12:57:48Z</time>
      </trkpt>
      <trkpt lat="45.28567" lon="5.76906">
        <ele>1319.07</ele>
        <time>2022-02-23T12:57:49Z</time>
      </trkpt>
      <trkpt lat="45.28564" lon="5.76906">
        <ele>1318.1</ele>
        <time>2022-02-23T12:57:50Z</time>
      </trkpt>
      <trkpt lat="45.28561" lon="5.76905">
        <ele>1319.55</ele>
        <time>2022-02-23T12:57:51Z</time>
      </trkpt>
      <trkpt lat="45.28558" lon="5.76902">
        <ele>1317.14</ele>
        <time>2022-02-23T12:57:52Z</time>
      </trkpt>
      <trkpt lat="45.28556" lon="5.76898">
        <ele>1316.18</ele>
        <time>2022-02-23T12:57:53Z</time>
      </trkpt>
      <trkpt lat="45.28553" lon="5.76895">
        <ele>1315.7</ele>
        <time>2022-02-23T12:57:54Z</time>
      </trkpt>
      <trkpt lat="45.28549" lon="5.76893">
        <ele>1313.78</ele>
        <time>2022-02-23T12:57:55Z</time>
      </trkpt>
      <trkpt lat="45.28545" lon="5.76892">
        <ele>1313.78</ele>
        <time>2022-02-23T12:57:56Z</time>
      </trkpt>
      <trkpt lat="45.28542" lon="5.76891">
        <ele>1315.7</ele>
        <time>2022-02-23T12:57:57Z</time>
      </trkpt>
      <trkpt lat="45.2854" lon="5.76891">
        <ele>1313.3</ele>
        <time>2022-02-23T12:57:58Z</time>
      </trkpt>
      <trkpt lat="45.28538" lon="5.76891">
        <ele>1313.3</ele>
        <time>2022-02-23T12:57:59Z</time>
      </trkpt>
      <trkpt lat="45.28537" lon="5.76893">
        <ele>1313.3</ele>
        <time>2022-02-23T12:58:00Z</time>
      </trkpt>
      <trkpt lat="45.28536" lon="5.76894">
        <ele>1313.3</ele>
        <time>2022-02-23T12:58:01Z</time>
      </trkpt>
      <trkpt lat="45.28535" lon="5.76896">
        <ele>1313.3</ele>
        <time>2022-02-23T12:58:02Z</time>
      </trkpt>
      <trkpt lat="45.28544" lon="5.76909">
        <ele>1313.3</ele>
        <time>2022-02-23T12:58:20Z</time>
      </trkpt>
      <trkpt lat="45.28543" lon="5.76906">
        <ele>1311.38</ele>
        <time>2022-02-23T12:58:27Z</time>
      </trkpt>
      <trkpt lat="45.28541" lon="5.76903">
        <ele>1311.38</ele>
        <time>2022-02-23T12:58:28Z</time>
      </trkpt>
      <trkpt lat="45.28537" lon="5.76901">
        <ele>1310.9</ele>
        <time>2022-02-23T12:58:29Z</time>
      </trkpt>
      <trkpt lat="45.28534" lon="5.769">
        <ele>1309.93</ele>
        <time>2022-02-23T12:58:30Z</time>
      </trkpt>
      <trkpt lat="45.28531" lon="5.76899">
        <ele>1308.01</ele>
        <time>2022-02-23T12:58:31Z</time>
      </trkpt>
      <trkpt lat="45.28527" lon="5.76899">
        <ele>1311.38</ele>
        <time>2022-02-23T12:58:32Z</time>
      </trkpt>
      <trkpt lat="45.28523" lon="5.76898">
        <ele>1308.01</ele>
        <time>2022-02-23T12:58:33Z</time>
      </trkpt>
      <trkpt lat="45.28519" lon="5.76897">
        <ele>1308.01</ele>
        <time>2022-02-23T12:58:34Z</time>
      </trkpt>
      <trkpt lat="45.28515" lon="5.76895">
        <ele>1308.01</ele>
        <time>2022-02-23T12:58:35Z</time>
      </trkpt>
      <trkpt lat="45.2851" lon="5.76892">
        <ele>1306.09</ele>
        <time>2022-02-23T12:58:36Z</time>
      </trkpt>
      <trkpt lat="45.28506" lon="5.76888">
        <ele>1305.13</ele>
        <time>2022-02-23T12:58:37Z</time>
      </trkpt>
      <trkpt lat="45.28502" lon="5.76885">
        <ele>1303.69</ele>
        <time>2022-02-23T12:58:38Z</time>
      </trkpt>
      <trkpt lat="45.28496" lon="5.76883">
        <ele>1303.69</ele>
        <time>2022-02-23T12:58:39Z</time>
      </trkpt>
      <trkpt lat="45.2848" lon="5.76872">
        <ele>1301.76</ele>
        <time>2022-02-23T12:58:43Z</time>
      </trkpt>
      <trkpt lat="45.28476" lon="5.76869">
        <ele>1299.84</ele>
        <time>2022-02-23T12:58:44Z</time>
      </trkpt>
      <trkpt lat="45.28473" lon="5.76867">
        <ele>1299.84</ele>
        <time>2022-02-23T12:58:45Z</time>
      </trkpt>
      <trkpt lat="45.28465" lon="5.76863">
        <ele>1297.92</ele>
        <time>2022-02-23T12:58:47Z</time>
      </trkpt>
      <trkpt lat="45.28457" lon="5.76857">
        <ele>1296.96</ele>
        <time>2022-02-23T12:58:49Z</time>
      </trkpt>
      <trkpt lat="45.28453" lon="5.76852">
        <ele>1295.03</ele>
        <time>2022-02-23T12:58:50Z</time>
      </trkpt>
      <trkpt lat="45.28448" lon="5.76849">
        <ele>1296.48</ele>
        <time>2022-02-23T12:58:51Z</time>
      </trkpt>
      <trkpt lat="45.28444" lon="5.76845">
        <ele>1294.07</ele>
        <time>2022-02-23T12:58:52Z</time>
      </trkpt>
      <trkpt lat="45.28439" lon="5.7684">
        <ele>1292.15</ele>
        <time>2022-02-23T12:58:53Z</time>
      </trkpt>
      <trkpt lat="45.28435" lon="5.76836">
        <ele>1292.15</ele>
        <time>2022-02-23T12:58:54Z</time>
      </trkpt>
      <trkpt lat="45.28423" lon="5.76824">
        <ele>1288.78</ele>
        <time>2022-02-23T12:58:57Z</time>
      </trkpt>
      <trkpt lat="45.28419" lon="5.76822">
        <ele>1288.78</ele>
        <time>2022-02-23T12:58:58Z</time>
      </trkpt>
      <trkpt lat="45.2841" lon="5.76818">
        <ele>1285.42</ele>
        <time>2022-02-23T12:59:00Z</time>
      </trkpt>
      <trkpt lat="45.28406" lon="5.76815">
        <ele>1286.86</ele>
        <time>2022-02-23T12:59:01Z</time>
      </trkpt>
      <trkpt lat="45.284" lon="5.76811">
        <ele>1282.54</ele>
        <time>2022-02-23T12:59:02Z</time>
      </trkpt>
      <trkpt lat="45.28389" lon="5.76802">
        <ele>1279.17</ele>
        <time>2022-02-23T12:59:04Z</time>
      </trkpt>
      <trkpt lat="45.28384" lon="5.76798">
        <ele>1279.17</ele>
        <time>2022-02-23T12:59:05Z</time>
      </trkpt>
      <trkpt lat="45.28373" lon="5.76786">
        <ele>1277.73</ele>
        <time>2022-02-23T12:59:07Z</time>
      </trkpt>
      <trkpt lat="45.28366" lon="5.76778">
        <ele>1272.92</ele>
        <time>2022-02-23T12:59:09Z</time>
      </trkpt>
      <trkpt lat="45.28358" lon="5.76769">
        <ele>1271.96</ele>
        <time>2022-02-23T12:59:11Z</time>
      </trkpt>
      <trkpt lat="45.28351" lon="5.76761">
        <ele>1270.04</ele>
        <time>2022-02-23T12:59:13Z</time>
      </trkpt>
      <trkpt lat="45.28341" lon="5.76748">
        <ele>1266.67</ele>
        <time>2022-02-23T12:59:16Z</time>
      </trkpt>
      <trkpt lat="45.28329" lon="5.76735">
        <ele>1262.83</ele>
        <time>2022-02-23T12:59:19Z</time>
      </trkpt>
      <trkpt lat="45.28319" lon="5.7672">
        <ele>1259.46</ele>
        <time>2022-02-23T12:59:22Z</time>
      </trkpt>
      <trkpt lat="45.28314" lon="5.76713">
        <ele>1258.5</ele>
        <time>2022-02-23T12:59:24Z</time>
      </trkpt>
      <trkpt lat="45.28307" lon="5.76703">
        <ele>1256.58</ele>
        <time>2022-02-23T12:59:26Z</time>
      </trkpt>
      <trkpt lat="45.283" lon="5.76693">
        <ele>1253.22</ele>
        <time>2022-02-23T12:59:28Z</time>
      </trkpt>
      <trkpt lat="45.28288" lon="5.76678">
        <ele>1250.81</ele>
        <time>2022-02-23T12:59:31Z</time>
      </trkpt>
      <trkpt lat="45.28281" lon="5.76669">
        <ele>1249.85</ele>
        <time>2022-02-23T12:59:33Z</time>
      </trkpt>
      <trkpt lat="45.28275" lon="5.76658">
        <ele>1247.45</ele>
        <time>2022-02-23T12:59:35Z</time>
      </trkpt>
      <trkpt lat="45.28255" lon="5.76623">
        <ele>1248.41</ele>
        <time>2022-02-23T12:59:45Z</time>
      </trkpt>
      <trkpt lat="45.28252" lon="5.76616">
        <ele>1246.01</ele>
        <time>2022-02-23T12:59:54Z</time>
      </trkpt>
      <trkpt lat="45.28243" lon="5.76604">
        <ele>1245.53</ele>
        <time>2022-02-23T13:00:03Z</time>
      </trkpt>
      <trkpt lat="45.28243" lon="5.76604">
        <ele>1244.08</ele>
        <time>2022-02-23T13:00:06Z</time>
      </trkpt>
      <trkpt lat="45.28244" lon="5.76606">
        <ele>1245.53</ele>
        <time>2022-02-23T13:00:10Z</time>
      </trkpt>
      <trkpt lat="45.28244" lon="5.76606">
        <ele>1243.6</ele>
        <time>2022-02-23T13:00:14Z</time>
      </trkpt>
      <trkpt lat="45.28246" lon="5.7661">
        <ele>1243.6</ele>
        <time>2022-02-23T13:00:32Z</time>
      </trkpt>
      <trkpt lat="45.28244" lon="5.76607">
        <ele>1242.64</ele>
        <time>2022-02-23T13:00:57Z</time>
      </trkpt>
      <trkpt lat="45.28239" lon="5.76608">
        <ele>1242.64</ele>
        <time>2022-02-23T13:01:10Z</time>
      </trkpt>
      <trkpt lat="45.28235" lon="5.76613">
        <ele>1242.64</ele>
        <time>2022-02-23T13:01:15Z</time>
      </trkpt>
      <trkpt lat="45.28234" lon="5.76618">
        <ele>1243.12</ele>
        <time>2022-02-23T13:01:29Z</time>
      </trkpt>
      <trkpt lat="45.28235" lon="5.76618">
        <ele>1242.16</ele>
        <time>2022-02-23T13:01:48Z</time>
      </trkpt>
    </trkseg>
  </trk>
</gpx>